GFSGL_850_dewp_000.txt.gz
Dewpoint
-5 -3 -1 -4 -6 -8 -6 -5 -4 -5 -5 -6 -5 -5 -4 -5 -9 -11 -9 -9 -10 -11 -12 -13 -13 -15 -15 -15 -15 -14 -13 -11 -9 -10 -10 -10 -11 -10 -10 -10 -11 -9 -9
-1 -1 -4 -5 -7 -4 -5 -5 -5 -6 -6 -6 -4 -3 -7 -8 -10 -13 -11 -10 -10 -11 -12 -16 -17 -16 -15 -14 -12 -11 -11 -10 -9 -9 -9 -8 -8 -8 -8 -8 -8 -12 -13
-2 -4 -5 -6 -3 -6 -5 -6 -5 -6 -5 -5 -4 -4 -8 -9 -9 -9 -9 -10 -12 -16 -17 -17 -16 -13 -12 -11 -10 -10 -10 -10 -10 -9 -9 -9 -9 -9 -9 -9 -9 -9 -11
-4 -5 -6 -4 -3 -6 -5 -5 -6 -5 -4 -3 -3 -5 -7 -8 -10 -10 -11 -14 -16 -16 -15 -13 -11 -10 -10 -11 -11 -11 -12 -12 -12 -11 -11 -10 -10 -11 -11 -11 -11 -11 -12
-4 -4 -4 -2 -2 -4 -5 -5 -4 -4 -4 -4 -5 -5 -6 -9 -11 -13 -14 -15 -14 -14 -14 -13 -13 -14 -16 -16 -14 -14 -13 -12 -10 -9 -8 -8 -8 -8 -10 -12 -12 -14 -15
-3 -2 -2 -3 -3 -3 -4 -5 -5 -5 -6 -7 -8 -9 -10 -12 -14 -13 -13 -12 -12 -12 -13 -14 -16 -16 -15 -14 -13 -12 -11 -10 -10 -10 -10 -9 -10 -9 -10 -11 -12 -10 -10
-3 -3 -5 -6 -5 -6 -8 -9 -9 -9 -10 -11 -12 -13 -13 -13 -12 -12 -11 -12 -13 -13 -14 -15 -14 -13 -12 -12 -12 -12 -11 -11 -11 -10 -10 -9 -9 -10 -10 -10 -10 -11 -11
-4 -5 -6 -7 -9 -10 -12 -14 -15 -14 -14 -13 -13 -13 -13 -13 -12 -12 -12 -13 -15 -15 -14 -14 -12 -12 -12 -11 -11 -10 -10 -10 -10 -10 -11 -10 -10 -10 -10 -10 -10 -10 -10
-6 -6 -8 -9 -11 -12 -16 -16 -14 -13 -13 -13 -13 -12 -12 -12 -12 -14 -15 -15 -14 -14 -13 -12 -12 -12 -11 -11 -10 -10 -10 -11 -11 -11 -10 -10 -10 -10 -10 -10 -9 -9 -9
-6 -6 -9 -11 -14 -16 -16 -15 -14 -13 -13 -13 -13 -13 -13 -14 -14 -16 -14 -13 -13 -12 -11 -12 -11 -10 -10 -10 -10 -10 -10 -10 -10 -10 -9 -10 -11 -10 -10 -9 -9 -9 -9
-6 -9 -11 -15 -16 -16 -15 -14 -13 -13 -13 -14 -14 -14 -14 -14 -16 -15 -14 -12 -11 -11 -11 -11 -10 -10 -11 -11 -11 -11 -11 -11 -10 -10 -9 -9 -10 -11 -10 -9 -9 -9 -9
-9 -12 -14 -14 -14 -14 -13 -13 -12 -12 -12 -13 -13 -14 -15 -16 -16 -14 -13 -12 -11 -11 -11 -10 -10 -11 -11 -11 -12 -12 -11 -11 -11 -11 -10 -9 -9 -10 -10 -10 -9 -9 -9
-11 -14 -13 -13 -12 -11 -11 -11 -11 -11 -12 -12 -13 -14 -15 -16 -15 -13 -12 -12 -12 -11 -10 -10 -11 -11 -12 -13 -12 -11 -11 -10 -10 -10 -9 -9 -9 -9 -9 -9 -9 -9 -9
-13 -14 -12 -11 -10 -10 -9 -9 -10 -11 -12 -13 -13 -14 -15 -14 -14 -13 -13 -13 -12 -11 -11 -11 -11 -12 -12 -12 -11 -11 -10 -10 -9 -9 -8 -8 -9 -9 -9 -9 -9 -9 -9
-13 -13 -11 -9 -9 -10 -9 -9 -10 -11 -12 -13 -14 -14 -13 -13 -13 -13 -13 -13 -12 -12 -12 -12 -12 -13 -13 -12 -12 -11 -10 -10 -9 -8 -8 -8 -8 -8 -9 -9 -9 -9 -9
-11 -11 -9 -8 -8 -10 -10 -10 -11 -12 -13 -13 -15 -15 -14 -13 -13 -13 -13 -13 -12 -12 -12 -12 -13 -13 -13 -13 -13 -12 -11 -10 -10 -9 -8 -8 -8 -8 -8 -9 -9 -9 -9
-11 -9 -8 -7 -9 -10 -10 -11 -12 -13 -14 -15 -16 -15 -15 -13 -13 -13 -13 -13 -13 -12 -12 -13 -13 -13 -13 -13 -13 -13 -12 -11 -10 -9 -9 -8 -8 -8 -8 -8 -8 -8 -8
-10 -7 -7 -8 -9 -10 -11 -12 -12 -13 -14 -15 -16 -15 -15 -14 -14 -14 -13 -13 -12 -13 -13 -13 -13 -13 -13 -13 -13 -13 -13 -12 -11 -10 -9 -9 -8 -8 -8 -8 -8 -8 -8
-7 -7 -8 -9 -10 -11 -11 -12 -13 -14 -14 -15 -15 -16 -15 -14 -14 -14 -14 -13 -13 -13 -13 -13 -14 -13 -13 -13 -13 -13 -13 -13 -12 -11 -11 -10 -9 -9 -9 -9 -9 -9 -8
-8 -9 -10 -10 -10 -10 -12 -14 -14 -14 -14 -14 -15 -16 -15 -15 -15 -14 -14 -14 -14 -14 -14 -14 -14 -14 -13 -13 -14 -13 -13 -13 -13 -13 -12 -11 -11 -10 -10 -10 -10 -10 -9
-9 -9 -10 -10 -10 -11 -12 -13 -14 -14 -14 -14 -15 -16 -15 -15 -15 -15 -15 -15 -14 -14 -14 -14 -14 -14 -14 -15 -16 -16 -14 -13 -13 -13 -13 -13 -12 -12 -11 -11 -11 -11 -11
-9 -9 -9 -10 -10 -11 -13 -14 -14 -15 -15 -15 -15 -16 -16 -15 -15 -15 -15 -15 -15 -17 -24 -21 -18 -17 -17 -18 -18 -18 -19 -17 -14 -13 -13 -13 -13 -13 -12 -12 -12 -12 -12
-9 -9 -9 -10 -11 -12 -13 -13 -14 -15 -15 -15 -16 -16 -16 -16 -16 -16 -15 -17 -25 -35 -35 -34 -28 -24 -22 -20 -19 -18 -18 -19 -19 -15 -13 -13 -14 -13 -14 -13 -13 -13 -13
-10 -10 -10 -11 -11 -12 -13 -13 -14 -15 -15 -16 -16 -17 -16 -16 -16 -16 -16 -29 -35 -35 -34 -34 -34 -34 -31 -28 -24 -23 -21 -20 -21 -22 -18 -14 -14 -14 -14 -14 -14 -13 -13
-10 -10 -10 -11 -11 -11 -12 -13 -13 -14 -15 -15 -17 -21 -18 -15 -16 -16 -19 -30 -34 -35 -35 -35 -35 -35 -35 -33 -32 -31 -30 -28 -27 -25 -23 -22 -20 -16 -15 -15 -14 -14 -14
-10 -10 -11 -11 -11 -11 -12 -12 -13 -13 -15 -15 -18 -24 -23 -28 -21 -16 -15 -15 -25 -34 -35 -36 -35 -34 -34 -34 -33 -34 -33 -33 -33 -32 -30 -29 -30 -30 -27 -24 -20 -18 -16

GFSGL_850_dewp_003.txt.gz
Dewpoint
-1 -0 -3 -6 -7 -7 -5 -5 -5 -4 -4 -7 -6 -7 -5 -3 -2 -5 -6 -7 -10 -10 -10 -11 -12 -13 -12 -9 -9 -9 -9 -9 -9 -10 -10 -8 -8 -9 -9 -9 -8 -9 -9
-0 -4 -6 -5 -5 -5 -4 -5 -4 -4 -6 -7 -6 -5 -3 -4 -6 -7 -9 -9 -9 -10 -13 -16 -18 -18 -17 -16 -13 -9 -8 -8 -8 -9 -9 -8 -7 -8 -7 -7 -7 -7 -7
-4 -5 -5 -4 -4 -3 -4 -4 -4 -4 -4 -4 -4 -4 -5 -6 -7 -9 -11 -12 -11 -13 -15 -16 -16 -14 -13 -12 -11 -9 -9 -9 -9 -9 -9 -9 -9 -8 -9 -8 -8 -8 -7
-7 -7 -4 -2 -3 -3 -3 -4 -4 -4 -4 -4 -5 -6 -6 -6 -6 -9 -10 -10 -14 -15 -15 -15 -13 -12 -12 -12 -12 -11 -11 -11 -11 -10 -10 -10 -10 -10 -9 -9 -9 -8 -8
-6 -4 -3 -3 -3 -2 -3 -4 -6 -9 -10 -10 -10 -9 -9 -9 -11 -12 -14 -14 -14 -14 -13 -14 -14 -14 -14 -15 -12 -10 -9 -9 -9 -9 -9 -9 -9 -8 -8 -8 -8 -8 -8
-5 -4 -3 -5 -6 -7 -9 -10 -12 -15 -14 -13 -13 -13 -13 -14 -14 -14 -13 -12 -12 -12 -11 -13 -13 -16 -17 -16 -14 -12 -11 -9 -9 -9 -9 -9 -10 -10 -10 -10 -10 -9 -10
-6 -5 -7 -8 -10 -10 -11 -13 -17 -17 -16 -15 -14 -14 -14 -14 -13 -12 -11 -11 -11 -12 -13 -11 -12 -12 -11 -10 -10 -10 -10 -10 -10 -10 -9 -9 -9 -9 -9 -9 -9 -9 -10
-7 -7 -6 -9 -11 -12 -15 -17 -16 -16 -15 -15 -15 -14 -13 -13 -12 -13 -13 -14 -13 -13 -13 -14 -11 -10 -10 -11 -10 -10 -10 -10 -9 -9 -9 -9 -9 -9 -9 -9 -9 -9 -9
-7 -6 -7 -10 -12 -16 -15 -15 -15 -15 -15 -14 -13 -13 -14 -14 -14 -14 -14 -13 -11 -11 -14 -11 -11 -11 -10 -10 -10 -10 -10 -9 -9 -11 -11 -10 -10 -10 -10 -9 -9 -9 -9
-5 -6 -8 -12 -15 -14 -13 -14 -13 -13 -12 -12 -12 -13 -13 -14 -15 -15 -14 -12 -12 -11 -11 -11 -11 -11 -10 -10 -11 -11 -10 -9 -10 -9 -9 -9 -9 -9 -10 -10 -9 -9 -9
-8 -7 -9 -14 -13 -12 -12 -11 -11 -10 -11 -11 -12 -13 -14 -15 -16 -16 -15 -12 -12 -11 -11 -10 -10 -10 -10 -11 -11 -11 -11 -11 -11 -10 -9 -9 -9 -9 -9 -9 -10 -9 -9
-7 -9 -12 -13 -13 -11 -10 -10 -9 -9 -10 -11 -13 -12 -12 -13 -14 -15 -13 -13 -12 -12 -11 -11 -10 -11 -11 -12 -12 -12 -12 -11 -11 -11 -10 -10 -9 -9 -9 -9 -9 -9 -9
-9 -11 -13 -13 -12 -10 -9 -9 -8 -9 -10 -11 -11 -12 -12 -13 -13 -13 -13 -12 -12 -11 -11 -11 -11 -12 -12 -12 -12 -12 -11 -11 -11 -10 -10 -9 -9 -9 -9 -9 -9 -9 -9
-10 -12 -12 -12 -10 -8 -8 -9 -9 -10 -11 -11 -12 -12 -13 -13 -13 -13 -13 -13 -12 -12 -12 -12 -12 -12 -12 -13 -12 -12 -11 -11 -10 -10 -9 -9 -8 -8 -8 -9 -9 -9 -9
-10 -11 -11 -10 -8 -7 -9 -10 -10 -11 -12 -12 -13 -13 -14 -14 -14 -13 -13 -13 -13 -13 -12 -12 -12 -12 -13 -13 -13 -12 -11 -11 -10 -9 -9 -8 -8 -8 -8 -9 -8 -9 -9
-10 -10 -10 -8 -7 -8 -10 -11 -12 -12 -14 -15 -15 -15 -14 -14 -14 -14 -13 -13 -13 -13 -13 -13 -13 -13 -14 -14 -14 -14 -12 -11 -11 -10 -9 -9 -8 -8 -8 -8 -9 -9 -9
-11 -11 -9 -7 -8 -9 -11 -11 -13 -15 -16 -15 -15 -16 -16 -15 -14 -14 -14 -14 -13 -13 -13 -13 -13 -13 -14 -14 -14 -13 -13 -12 -11 -10 -10 -9 -8 -8 -8 -8 -8 -8 -8
-10 -8 -8 -8 -9 -10 -11 -12 -15 -15 -15 -15 -15 -16 -16 -15 -14 -14 -14 -13 -13 -14 -14 -14 -14 -14 -14 -14 -14 -13 -13 -13 -12 -11 -11 -10 -9 -9 -9 -8 -8 -8 -8
-9 -9 -9 -10 -10 -10 -11 -13 -14 -15 -15 -14 -15 -17 -17 -15 -15 -14 -14 -14 -14 -14 -14 -14 -14 -14 -14 -15 -15 -13 -13 -13 -13 -13 -12 -11 -10 -10 -9 -9 -9 -9 -8
-9 -8 -9 -10 -10 -10 -11 -13 -15 -16 -16 -15 -16 -16 -16 -15 -15 -15 -15 -15 -15 -15 -15 -15 -15 -15 -16 -17 -18 -17 -14 -13 -13 -13 -13 -12 -12 -11 -10 -10 -10 -10 -10
-9 -8 -9 -10 -10 -11 -12 -13 -16 -17 -16 -16 -16 -17 -16 -16 -16 -16 -16 -16 -17 -28 -31 -23 -21 -19 -19 -18 -18 -19 -19 -15 -13 -13 -13 -13 -13 -12 -11 -11 -11 -11 -11
-9 -9 -9 -10 -11 -12 -12 -13 -15 -18 -17 -18 -19 -18 -16 -16 -16 -16 -16 -20 -32 -36 -35 -33 -27 -23 -21 -20 -19 -19 -20 -20 -17 -13 -13 -13 -13 -13 -13 -12 -12 -12 -12
-9 -10 -10 -10 -11 -11 -12 -13 -14 -16 -18 -18 -21 -19 -16 -16 -16 -16 -18 -25 -33 -34 -33 -32 -31 -29 -25 -23 -22 -22 -22 -22 -20 -18 -15 -13 -14 -13 -13 -13 -13 -13 -13
-10 -10 -10 -10 -11 -11 -11 -12 -13 -14 -17 -18 -20 -22 -18 -16 -16 -16 -17 -23 -32 -34 -34 -33 -33 -33 -32 -31 -29 -28 -26 -25 -24 -24 -23 -20 -16 -14 -14 -14 -14 -14 -14
-10 -10 -11 -11 -11 -11 -11 -11 -12 -13 -15 -17 -20 -26 -25 -26 -19 -15 -15 -15 -17 -31 -34 -34 -33 -33 -33 -32 -32 -32 -32 -32 -31 -30 -29 -29 -27 -24 -20 -17 -16 -15 -15
-10 -10 -11 -11 -11 -11 -11 -11 -11 -12 -14 -17 -19 -29 -32 -32 -31 -27 -24 -19 -17 -20 -35 -35 -34 -34 -34 -34 -33 -33 -33 -32 -32 -32 -31 -31 -31 -31 -30 -26 -22 -19 -18

GFSGL_850_dewp_006.txt.gz
Dewpoint
0 -1 -1 -2 -3 -3 -3 -2 -2 -2 -3 -3 -3 -3 -2 -3 -3 -3 -4 -4 -5 -6 -7 -8 -9 -10 -10 -10 -11 -10 -10 -10 -10 -11 -11 -11 -10 -9 -8 -8 -8 -8 -8
-3 -2 -1 -2 -3 -3 -2 -2 -1 -2 -2 -2 -2 -3 -3 -4 -4 -4 -4 -5 -7 -9 -8 -8 -9 -11 -11 -10 -10 -10 -10 -10 -10 -10 -11 -11 -10 -10 -9 -8 -8 -9 -9
-2 -3 -3 -2 -2 -2 -2 -2 -2 -3 -3 -3 -3 -3 -4 -4 -4 -5 -7 -8 -8 -8 -8 -9 -10 -10 -9 -10 -10 -10 -10 -11 -11 -11 -11 -11 -11 -10 -10 -9 -9 -8 -8
-3 -3 -3 -2 -2 -4 -5 -3 -3 -4 -4 -5 -6 -6 -6 -8 -9 -9 -10 -9 -9 -10 -9 -9 -9 -9 -9 -10 -10 -11 -11 -11 -12 -12 -12 -12 -12 -11 -11 -11 -10 -10 -9
-2 -3 -3 -4 -4 -5 -6 -7 -7 -9 -11 -11 -11 -11 -11 -11 -12 -11 -10 -10 -9 -9 -9 -9 -9 -9 -10 -13 -12 -11 -11 -11 -11 -11 -11 -11 -11 -11 -10 -10 -10 -9 -9
-3 -4 -5 -5 -6 -7 -8 -10 -11 -12 -11 -11 -11 -11 -10 -11 -10 -12 -13 -9 -10 -10 -10 -10 -10 -10 -10 -11 -11 -11 -10 -9 -9 -9 -9 -9 -9 -9 -9 -8 -8 -8 -8
-4 -5 -5 -5 -8 -9 -11 -12 -12 -11 -11 -11 -11 -10 -10 -10 -10 -12 -15 -13 -11 -10 -10 -10 -11 -12 -11 -10 -10 -9 -10 -10 -10 -9 -9 -8 -8 -8 -7 -7 -7 -8 -8
-5 -5 -4 -6 -9 -11 -12 -12 -11 -11 -11 -11 -10 -10 -10 -10 -11 -13 -14 -13 -10 -10 -10 -10 -11 -11 -11 -9 -9 -9 -9 -9 -9 -9 -9 -9 -9 -9 -8 -8 -8 -8 -7
-5 -5 -5 -8 -8 -11 -12 -11 -11 -11 -11 -10 -10 -10 -10 -10 -10 -12 -14 -11 -10 -10 -10 -11 -10 -10 -10 -10 -10 -10 -9 -9 -9 -9 -10 -11 -11 -10 -10 -9 -8 -8 -8
-6 -5 -7 -7 -9 -11 -11 -10 -10 -11 -11 -9 -8 -9 -9 -10 -10 -12 -12 -11 -11 -11 -11 -11 -11 -10 -11 -10 -10 -10 -10 -9 -9 -9 -9 -9 -8 -9 -11 -10 -8 -8 -8
-7 -6 -7 -8 -10 -11 -10 -10 -10 -10 -9 -9 -10 -10 -10 -10 -11 -12 -12 -12 -12 -12 -11 -10 -10 -10 -10 -10 -11 -11 -11 -11 -11 -11 -10 -10 -9 -8 -8 -8 -8 -9 -9
-6 -7 -7 -9 -10 -10 -10 -10 -10 -9 -9 -10 -10 -11 -11 -11 -12 -12 -13 -12 -12 -12 -11 -10 -10 -10 -11 -11 -12 -12 -12 -12 -11 -11 -10 -10 -9 -8 -8 -8 -8 -8 -8
-6 -7 -7 -9 -9 -9 -9 -9 -9 -9 -9 -10 -10 -11 -12 -12 -12 -13 -13 -13 -13 -12 -11 -11 -12 -12 -12 -12 -12 -12 -12 -11 -11 -11 -10 -10 -9 -8 -8 -8 -8 -8 -8
-6 -7 -8 -9 -9 -8 -8 -9 -10 -9 -10 -10 -11 -12 -12 -12 -12 -13 -13 -13 -12 -12 -12 -11 -12 -12 -12 -13 -13 -12 -12 -11 -11 -11 -10 -9 -9 -8 -8 -8 -8 -8 -8
-8 -9 -8 -8 -7 -8 -8 -10 -9 -9 -11 -12 -12 -12 -12 -13 -13 -14 -14 -13 -13 -13 -13 -13 -13 -13 -13 -12 -13 -13 -12 -12 -12 -11 -10 -10 -9 -8 -8 -8 -8 -8 -8
-12 -8 -7 -8 -7 -7 -9 -9 -9 -10 -13 -15 -15 -15 -14 -14 -14 -14 -14 -14 -13 -13 -13 -13 -14 -13 -13 -13 -13 -13 -13 -13 -12 -12 -11 -10 -9 -9 -8 -8 -8 -8 -8
-12 -11 -7 -7 -7 -8 -8 -9 -9 -10 -11 -12 -13 -15 -16 -15 -15 -14 -14 -14 -14 -13 -14 -14 -14 -14 -14 -13 -14 -14 -13 -13 -13 -12 -11 -10 -9 -9 -8 -8 -8 -8 -8
-13 -10 -9 -8 -8 -9 -9 -10 -10 -11 -11 -11 -13 -14 -15 -15 -15 -15 -14 -14 -14 -14 -14 -14 -15 -15 -15 -14 -14 -15 -14 -14 -13 -13 -12 -11 -10 -10 -9 -9 -9 -8 -8
-10 -8 -9 -9 -9 -10 -10 -10 -10 -11 -11 -12 -13 -14 -15 -15 -15 -15 -15 -15 -15 -15 -15 -15 -15 -16 -16 -15 -15 -15 -14 -14 -14 -13 -13 -12 -11 -11 -10 -10 -10 -9 -9
-9 -9 -9 -9 -9 -10 -10 -10 -11 -11 -11 -12 -13 -14 -15 -15 -15 -16 -16 -16 -16 -18 -19 -17 -16 -16 -16 -16 -16 -15 -14 -14 -14 -14 -13 -13 -12 -12 -11 -11 -11 -10 -10
-9 -9 -9 -9 -10 -10 -11 -11 -11 -12 -12 -12 -13 -15 -16 -16 -16 -16 -16 -18 -21 -22 -23 -19 -17 -17 -17 -16 -16 -16 -15 -15 -15 -14 -14 -13 -13 -12 -12 -11 -11 -11 -11
-9 -9 -10 -10 -10 -10 -11 -11 -12 -12 -12 -12 -13 -14 -15 -16 -16 -16 -16 -19 -30 -32 -31 -29 -25 -23 -23 -22 -21 -18 -16 -16 -15 -15 -14 -14 -13 -13 -12 -12 -12 -12 -11
-10 -10 -9 -9 -10 -10 -10 -11 -11 -12 -12 -13 -13 -14 -15 -15 -16 -16 -16 -18 -29 -34 -33 -32 -31 -31 -30 -28 -27 -25 -24 -23 -23 -22 -19 -14 -14 -13 -13 -12 -12 -12 -12
-10 -10 -10 -10 -10 -10 -11 -11 -11 -11 -12 -13 -13 -14 -14 -15 -16 -15 -15 -15 -16 -26 -34 -33 -33 -32 -32 -32 -32 -31 -31 -30 -29 -28 -28 -23 -16 -14 -14 -14 -13 -13 -13
-10 -10 -10 -10 -10 -10 -10 -11 -11 -11 -12 -12 -13 -14 -14 -18 -24 -22 -20 -16 -15 -16 -28 -34 -34 -33 -33 -33 -33 -32 -32 -32 -32 -31 -31 -29 -29 -26 -22 -15 -14 -14 -14
-10 -10 -10 -10 -10 -11 -10 -10 -10 -11 -12 -12 -13 -14 -14 -18 -28 -27 -26 -26 -26 -27 -27 -29 -32 -33 -33 -33 -33 -32 -32 -32 -32 -32 -32 -32 -31 -31 -30 -28 -26 -15 -15

GFSGL_850_dewp_009.txt.gz
Dewpoint
1 -0 -1 -1 -2 -2 -3 -3 -2 -2 -2 -2 -2 -4 -3 -3 -3 -3 -3 -3 -3 -3 -4 -5 -6 -6 -7 -9 -10 -10 -9 -8 -8 -9 -10 -10 -10 -10 -9 -8 -7 -7 -7
-1 -2 -2 -3 -3 -4 -3 -3 -3 -2 -2 -2 -2 -3 -3 -3 -3 -3 -4 -4 -5 -5 -5 -6 -6 -7 -7 -9 -9 -10 -10 -10 -10 -10 -10 -10 -10 -10 -10 -9 -8 -8 -8
-2 -3 -4 -4 -4 -3 -3 -4 -3 -4 -5 -5 -5 -5 -6 -7 -8 -9 -10 -9 -8 -8 -8 -8 -9 -9 -10 -10 -9 -9 -10 -10 -10 -11 -11 -11 -11 -11 -11 -10 -10 -9 -9
-2 -4 -4 -4 -4 -4 -4 -5 -6 -7 -9 -10 -11 -11 -11 -11 -11 -11 -10 -9 -10 -11 -10 -10 -10 -9 -9 -9 -9 -9 -10 -10 -11 -11 -12 -12 -12 -12 -12 -11 -11 -10 -10
-3 -4 -4 -5 -5 -5 -6 -7 -9 -10 -11 -11 -11 -11 -11 -11 -11 -11 -10 -9 -9 -10 -10 -10 -10 -10 -9 -10 -10 -10 -10 -10 -10 -11 -11 -11 -12 -12 -11 -11 -10 -10 -9
-4 -5 -5 -5 -4 -5 -7 -9 -11 -11 -11 -11 -11 -11 -10 -11 -11 -10 -10 -11 -10 -10 -10 -11 -11 -11 -9 -10 -10 -11 -11 -10 -10 -10 -10 -10 -10 -10 -9 -9 -8 -8 -8
-5 -5 -6 -5 -4 -6 -8 -11 -12 -12 -11 -11 -11 -11 -10 -10 -9 -10 -10 -11 -10 -10 -10 -10 -10 -11 -11 -10 -10 -9 -8 -9 -9 -9 -9 -9 -9 -8 -8 -7 -7 -7 -7
-5 -6 -5 -5 -5 -7 -9 -12 -12 -12 -11 -11 -11 -10 -9 -10 -8 -9 -10 -10 -10 -10 -10 -10 -9 -10 -11 -10 -8 -9 -9 -9 -9 -9 -8 -8 -9 -9 -9 -8 -8 -7 -7
-4 -6 -6 -5 -5 -8 -10 -11 -11 -11 -11 -11 -10 -9 -8 -9 -10 -10 -11 -11 -11 -11 -11 -10 -10 -10 -11 -11 -10 -10 -9 -9 -9 -9 -9 -10 -11 -11 -11 -9 -8 -8 -8
-5 -8 -7 -7 -7 -8 -10 -11 -11 -11 -11 -9 -8 -8 -9 -9 -9 -10 -11 -12 -12 -11 -11 -11 -11 -10 -10 -10 -10 -10 -10 -9 -9 -10 -9 -9 -8 -9 -9 -10 -10 -9 -9
-6 -7 -6 -5 -6 -9 -11 -11 -11 -11 -9 -7 -9 -10 -9 -9 -10 -10 -11 -11 -12 -11 -11 -11 -11 -10 -10 -10 -10 -10 -11 -11 -11 -11 -10 -10 -10 -9 -9 -8 -9 -9 -10
-5 -5 -5 -5 -7 -10 -10 -11 -10 -10 -8 -8 -9 -10 -10 -10 -10 -11 -11 -14 -13 -12 -12 -11 -10 -11 -11 -11 -11 -12 -12 -12 -12 -11 -10 -10 -9 -9 -9 -8 -8 -8 -8
-3 -4 -4 -5 -8 -10 -11 -11 -10 -9 -8 -9 -10 -10 -11 -11 -11 -11 -13 -13 -13 -13 -12 -12 -12 -12 -12 -12 -12 -13 -12 -11 -11 -11 -10 -10 -9 -9 -8 -8 -8 -8 -8
-4 -5 -6 -8 -9 -10 -10 -10 -10 -9 -9 -9 -11 -11 -11 -12 -13 -12 -13 -13 -13 -13 -13 -12 -12 -12 -12 -12 -12 -12 -12 -11 -11 -11 -10 -10 -9 -9 -8 -7 -7 -8 -8
-5 -7 -8 -9 -9 -9 -10 -9 -9 -8 -10 -11 -12 -12 -12 -13 -13 -14 -14 -14 -13 -13 -13 -13 -13 -13 -13 -12 -12 -12 -12 -12 -11 -11 -11 -10 -9 -9 -8 -7 -8 -7 -8
-7 -8 -8 -7 -8 -8 -9 -9 -9 -10 -10 -12 -12 -12 -14 -14 -14 -14 -15 -14 -14 -13 -13 -13 -13 -13 -13 -13 -13 -13 -12 -12 -12 -12 -11 -10 -10 -9 -8 -7 -8 -8 -7
-9 -7 -7 -8 -7 -8 -8 -8 -8 -9 -10 -10 -11 -13 -14 -15 -15 -15 -15 -14 -14 -14 -14 -14 -14 -14 -14 -13 -14 -13 -13 -13 -13 -12 -12 -11 -10 -10 -9 -9 -8 -7 -7
-8 -8 -7 -8 -8 -8 -8 -9 -9 -9 -10 -10 -11 -12 -13 -14 -15 -15 -15 -14 -14 -14 -15 -14 -14 -14 -14 -14 -14 -14 -13 -13 -13 -12 -12 -12 -11 -10 -10 -9 -9 -8 -8
-8 -8 -8 -8 -8 -9 -9 -9 -9 -10 -10 -10 -11 -12 -13 -14 -14 -14 -15 -15 -15 -15 -15 -15 -15 -15 -15 -15 -14 -14 -14 -14 -13 -13 -13 -12 -12 -11 -11 -10 -10 -9 -9
-9 -8 -9 -8 -8 -9 -9 -9 -10 -10 -10 -11 -11 -11 -13 -14 -14 -14 -15 -15 -16 -16 -16 -16 -16 -15 -16 -15 -15 -15 -14 -14 -14 -13 -13 -13 -12 -12 -11 -11 -10 -10 -10
-8 -8 -8 -9 -9 -9 -9 -10 -10 -10 -10 -11 -11 -12 -14 -14 -14 -14 -15 -15 -16 -16 -16 -16 -16 -16 -16 -16 -16 -16 -15 -15 -14 -14 -14 -13 -12 -12 -12 -12 -11 -11 -11
-9 -8 -9 -9 -9 -9 -9 -10 -10 -10 -11 -11 -11 -12 -13 -13 -14 -14 -15 -15 -16 -23 -29 -22 -17 -20 -23 -20 -19 -17 -16 -16 -16 -15 -15 -13 -13 -13 -12 -12 -12 -12 -12
-9 -9 -9 -9 -9 -10 -10 -10 -10 -10 -11 -11 -11 -12 -12 -13 -14 -14 -15 -15 -15 -18 -31 -33 -32 -32 -32 -31 -31 -30 -30 -30 -29 -27 -18 -15 -14 -13 -13 -12 -12 -12 -12
-9 -9 -9 -9 -9 -10 -10 -10 -10 -10 -11 -11 -11 -12 -12 -13 -14 -14 -15 -15 -15 -15 -21 -31 -33 -33 -33 -33 -32 -32 -32 -32 -32 -31 -26 -15 -15 -14 -14 -13 -13 -13 -13
-9 -9 -9 -9 -10 -10 -10 -10 -10 -10 -11 -11 -12 -12 -12 -13 -13 -14 -14 -15 -15 -16 -19 -20 -26 -31 -32 -32 -32 -32 -32 -32 -32 -32 -32 -21 -25 -23 -17 -14 -18 -13 -14
-9 -9 -9 -9 -9 -10 -10 -10 -10 -10 -10 -11 -11 -12 -12 -13 -13 -14 -15 -15 -17 -22 -24 -29 -29 -30 -30 -31 -31 -31 -30 -30 -32 -32 -32 -32 -32 -32 -31 -20 -26 -15 -14

GFSGL_850_dewp_012.txt.gz
Dewpoint
1 -0 -1 -2 -3 -3 -3 -3 -2 -4 -5 -4 -3 -4 -4 -4 -5 -5 -6 -7 -7 -7 -6 -4 -4 -4 -4 -4 -5 -6 -8 -9 -8 -8 -8 -9 -10 -9 -7 -7 -5 -6 -7
-0 -1 -2 -3 -4 -3 -3 -3 -4 -4 -5 -5 -5 -5 -7 -8 -10 -9 -10 -10 -10 -8 -6 -7 -7 -8 -8 -8 -9 -9 -9 -9 -9 -9 -9 -9 -10 -10 -10 -10 -9 -8 -8
-2 -3 -3 -4 -4 -4 -5 -4 -4 -5 -7 -8 -9 -10 -11 -11 -11 -11 -11 -10 -9 -9 -10 -11 -9 -9 -10 -10 -10 -10 -9 -9 -9 -9 -10 -10 -10 -11 -11 -11 -11 -10 -9
-2 -3 -3 -4 -4 -5 -5 -5 -6 -7 -8 -10 -11 -11 -11 -11 -11 -10 -11 -11 -11 -12 -13 -14 -11 -10 -9 -9 -7 -7 -9 -9 -9 -10 -11 -11 -11 -12 -11 -12 -13 -12 -12
-1 -2 -4 -4 -5 -5 -5 -5 -7 -9 -11 -11 -11 -11 -11 -11 -11 -11 -11 -10 -10 -11 -12 -13 -11 -11 -10 -10 -10 -8 -9 -10 -11 -11 -10 -9 -10 -10 -10 -9 -8 -7 -8
-1 -1 -3 -3 -4 -4 -6 -6 -8 -11 -11 -11 -11 -11 -11 -10 -10 -9 -9 -9 -9 -10 -11 -12 -11 -10 -10 -9 -9 -9 -10 -11 -11 -10 -10 -10 -10 -9 -9 -9 -8 -8 -8
-5 -4 -3 -2 -3 -3 -5 -7 -8 -10 -11 -11 -11 -10 -10 -9 -9 -9 -8 -9 -11 -12 -12 -11 -10 -10 -10 -10 -9 -9 -8 -9 -8 -9 -9 -10 -11 -11 -11 -11 -10 -9 -8
-8 -5 -3 -2 -4 -5 -5 -7 -9 -10 -11 -11 -10 -9 -9 -10 -11 -10 -11 -11 -12 -13 -13 -12 -12 -11 -10 -10 -9 -10 -11 -11 -11 -10 -10 -10 -9 -9 -9 -9 -9 -9 -10
-10 -6 -3 -4 -5 -6 -6 -7 -9 -12 -11 -10 -8 -8 -8 -10 -11 -9 -9 -10 -11 -12 -14 -12 -11 -13 -13 -12 -11 -11 -13 -12 -12 -11 -9 -9 -9 -9 -9 -9 -10 -10 -10
-5 -4 -3 -4 -4 -5 -5 -8 -10 -11 -9 -8 -9 -9 -11 -11 -10 -9 -10 -11 -12 -12 -13 -13 -13 -12 -10 -10 -10 -10 -9 -9 -9 -11 -13 -13 -13 -12 -10 -9 -8 -8 -10
-5 -4 -3 -4 -4 -6 -8 -10 -10 -10 -9 -9 -8 -9 -12 -10 -9 -10 -11 -11 -12 -13 -13 -13 -12 -11 -10 -11 -11 -11 -12 -12 -12 -12 -12 -13 -12 -11 -11 -11 -11 -9 -9
-5 -5 -5 -4 -4 -6 -8 -9 -10 -10 -10 -9 -9 -11 -10 -10 -11 -13 -11 -12 -13 -13 -13 -12 -12 -12 -12 -12 -12 -12 -12 -12 -12 -11 -11 -10 -10 -9 -9 -9 -9 -8 -8
-7 -5 -5 -5 -6 -8 -9 -10 -10 -10 -9 -10 -11 -11 -12 -13 -14 -13 -13 -14 -14 -13 -13 -13 -12 -12 -12 -12 -12 -12 -12 -11 -11 -10 -10 -10 -10 -9 -9 -9 -9 -8 -8
-6 -6 -6 -8 -9 -9 -9 -10 -9 -9 -10 -10 -10 -12 -13 -13 -15 -14 -14 -14 -14 -14 -13 -13 -12 -13 -13 -12 -12 -12 -12 -11 -11 -11 -11 -10 -9 -9 -8 -8 -7 -7 -7
-6 -7 -8 -7 -8 -8 -9 -9 -9 -9 -9 -10 -12 -11 -12 -14 -14 -14 -14 -14 -14 -14 -13 -13 -13 -13 -13 -13 -13 -13 -12 -12 -12 -12 -11 -10 -9 -9 -9 -8 -7 -8 -8
-8 -9 -7 -8 -9 -8 -8 -8 -9 -9 -9 -11 -10 -11 -12 -13 -13 -14 -14 -14 -14 -14 -14 -14 -14 -14 -14 -14 -13 -13 -13 -12 -12 -12 -11 -11 -10 -10 -9 -8 -7 -7 -8
-7 -10 -8 -8 -7 -7 -8 -9 -9 -9 -10 -10 -10 -11 -12 -13 -13 -14 -14 -14 -14 -14 -14 -14 -14 -15 -15 -14 -14 -14 -13 -13 -13 -12 -12 -11 -11 -10 -10 -10 -10 -9 -8
-8 -8 -9 -8 -8 -8 -8 -8 -9 -10 -10 -10 -10 -11 -11 -12 -15 -14 -14 -14 -15 -15 -15 -15 -15 -15 -15 -15 -14 -14 -13 -13 -13 -13 -12 -12 -11 -11 -10 -11 -10 -10 -9
-7 -8 -8 -9 -8 -8 -9 -9 -9 -10 -10 -11 -10 -11 -11 -14 -14 -14 -14 -15 -15 -16 -16 -16 -16 -15 -15 -15 -15 -15 -14 -13 -14 -14 -13 -12 -11 -11 -11 -11 -11 -10 -10
-8 -8 -8 -9 -8 -9 -9 -9 -9 -10 -10 -11 -11 -11 -12 -13 -15 -14 -14 -15 -15 -18 -18 -17 -16 -16 -17 -17 -16 -15 -15 -15 -15 -14 -13 -12 -12 -11 -11 -11 -12 -11 -11
-8 -8 -8 -9 -9 -9 -9 -9 -9 -10 -10 -11 -11 -11 -12 -13 -14 -14 -14 -15 -15 -20 -27 -25 -19 -22 -25 -24 -22 -20 -19 -21 -20 -18 -14 -13 -13 -12 -12 -12 -12 -12 -12
-8 -10 -9 -9 -9 -9 -9 -9 -10 -10 -10 -11 -11 -11 -12 -12 -13 -14 -14 -14 -15 -15 -21 -31 -30 -31 -31 -30 -30 -30 -30 -30 -30 -27 -18 -15 -14 -14 -13 -12 -13 -13 -12
-9 -9 -9 -9 -9 -9 -9 -10 -10 -10 -10 -10 -11 -12 -12 -12 -13 -14 -14 -14 -15 -15 -15 -23 -30 -32 -32 -32 -32 -32 -32 -32 -32 -32 -24 -18 -16 -16 -14 -13 -12 -13 -13
-10 -9 -9 -9 -9 -9 -10 -10 -9 -10 -10 -10 -11 -11 -12 -12 -13 -13 -14 -14 -15 -17 -18 -18 -20 -26 -30 -31 -31 -31 -31 -31 -32 -32 -31 -24 -21 -21 -17 -16 -15 -13 -14
-10 -9 -9 -10 -10 -10 -10 -10 -9 -10 -10 -11 -11 -11 -11 -12 -12 -13 -13 -14 -15 -19 -22 -24 -28 -29 -29 -29 -30 -30 -30 -30 -31 -32 -32 -32 -30 -29 -26 -21 -22 -15 -15
-9 -9 -9 -10 -9 -9 -10 -10 -10 -10 -10 -10 -10 -11 -11 -12 -12 -13 -13 -14 -16 -18 -23 -21 -23 -24 -25 -26 -29 -30 -29 -29 -30 -31 -32 -32 -33 -33 -33 -32 -28 -23 -21

GFSGL_850_dewp_015.txt.gz
Dewpoint
-0 -0 -1 -1 -3 -3 -4 -4 -4 -7 -11 -7 -6 -6 -8 -10 -10 -11 -11 -11 -10 -10 -9 -7 -6 -7 -7 -6 -7 -7 -7 -7 -5 -7 -8 -9 -9 -9 -10 -9 -9 -6 -3
-2 -2 -1 -2 -3 -4 -4 -4 -6 -9 -6 -7 -7 -8 -10 -11 -11 -11 -11 -11 -11 -10 -9 -9 -10 -10 -13 -10 -9 -9 -9 -10 -9 -9 -8 -9 -9 -9 -10 -10 -10 -10 -6
-4 -2 -2 -3 -2 -1 -3 -4 -6 -6 -6 -7 -9 -10 -11 -11 -11 -11 -11 -10 -11 -11 -11 -11 -12 -14 -15 -13 -10 -9 -8 -8 -8 -8 -9 -10 -10 -10 -10 -11 -11 -12 -11
-5 -3 -4 -3 -2 -2 -3 -4 -5 -5 -7 -9 -11 -11 -12 -11 -11 -11 -11 -11 -11 -11 -10 -10 -11 -11 -12 -13 -10 -10 -9 -9 -9 -9 -10 -11 -14 -14 -13 -12 -12 -12 -12
-6 -6 -4 -3 -2 -2 -2 -2 -3 -6 -9 -11 -11 -12 -11 -11 -11 -10 -10 -10 -11 -11 -10 -12 -14 -14 -10 -9 -8 -8 -8 -7 -8 -9 -11 -12 -12 -12 -13 -10 -9 -9 -7
-10 -10 -7 -4 -3 -3 -2 -2 -5 -7 -10 -10 -12 -11 -10 -10 -9 -9 -9 -10 -12 -12 -13 -14 -15 -13 -11 -10 -10 -9 -9 -8 -8 -9 -10 -9 -10 -10 -12 -13 -12 -11 -10
-11 -11 -6 -5 -6 -4 -2 -6 -5 -6 -9 -12 -11 -10 -9 -9 -8 -8 -10 -11 -10 -11 -11 -13 -15 -14 -13 -12 -11 -10 -10 -10 -9 -8 -9 -9 -10 -12 -11 -10 -10 -10 -9
-11 -10 -8 -7 -7 -5 -5 -3 -7 -7 -10 -11 -9 -9 -9 -8 -10 -12 -11 -10 -10 -10 -12 -13 -14 -13 -12 -12 -12 -12 -12 -13 -13 -12 -13 -13 -10 -11 -9 -9 -9 -9 -9
-9 -8 -8 -7 -6 -3 -3 -4 -4 -9 -10 -9 -9 -10 -9 -10 -12 -11 -10 -11 -11 -12 -13 -13 -13 -13 -13 -12 -11 -11 -11 -11 -12 -11 -11 -10 -9 -10 -9 -9 -9 -9 -9
-9 -7 -7 -8 -4 -6 -6 -7 -8 -10 -9 -10 -10 -9 -10 -12 -11 -10 -11 -11 -11 -12 -13 -14 -14 -12 -11 -11 -11 -12 -12 -13 -12 -11 -11 -10 -11 -13 -13 -13 -13 -12 -9
-7 -7 -6 -8 -6 -5 -5 -6 -9 -10 -10 -10 -9 -10 -12 -13 -13 -13 -12 -12 -12 -13 -14 -13 -13 -13 -12 -12 -12 -12 -12 -11 -11 -12 -13 -12 -12 -11 -10 -10 -11 -11 -11
-7 -6 -7 -7 -6 -6 -7 -9 -10 -10 -10 -10 -10 -12 -12 -14 -15 -17 -15 -14 -13 -13 -13 -13 -12 -12 -12 -12 -12 -12 -11 -12 -12 -11 -11 -11 -10 -10 -9 -9 -8 -9 -9
-7 -7 -7 -7 -8 -8 -8 -9 -9 -9 -9 -10 -11 -11 -13 -13 -15 -15 -14 -14 -14 -14 -13 -13 -13 -13 -13 -12 -12 -12 -12 -11 -11 -11 -11 -10 -10 -10 -9 -9 -8 -8 -8
-8 -8 -7 -8 -7 -7 -8 -9 -9 -9 -9 -10 -10 -12 -12 -13 -14 -14 -14 -14 -14 -14 -14 -13 -13 -13 -13 -13 -13 -13 -12 -12 -12 -12 -11 -10 -10 -9 -9 -8 -8 -8 -8
-7 -9 -10 -9 -8 -9 -8 -8 -8 -9 -10 -10 -11 -11 -12 -13 -14 -13 -13 -14 -14 -14 -14 -14 -14 -14 -14 -14 -14 -13 -13 -13 -12 -12 -11 -11 -10 -10 -9 -8 -7 -8 -8
-6 -9 -11 -11 -9 -7 -7 -8 -9 -10 -10 -11 -10 -11 -12 -13 -12 -13 -13 -14 -14 -14 -14 -15 -15 -15 -15 -14 -14 -14 -13 -13 -13 -12 -12 -11 -11 -10 -9 -9 -9 -8 -8
-7 -8 -10 -9 -9 -8 -8 -8 -9 -10 -10 -11 -11 -10 -11 -12 -12 -14 -13 -14 -16 -16 -16 -15 -15 -15 -15 -15 -15 -14 -13 -13 -13 -12 -12 -12 -11 -10 -10 -11 -10 -10 -8
-6 -9 -7 -7 -8 -9 -8 -9 -9 -10 -10 -11 -11 -10 -11 -11 -12 -15 -14 -15 -18 -23 -19 -17 -15 -15 -16 -16 -15 -15 -14 -14 -14 -13 -12 -12 -11 -11 -11 -12 -11 -11 -10
-7 -8 -8 -7 -8 -9 -9 -9 -9 -10 -10 -10 -11 -11 -11 -11 -13 -16 -15 -15 -15 -22 -27 -21 -17 -18 -19 -18 -18 -16 -15 -16 -15 -13 -13 -12 -12 -11 -11 -11 -12 -11 -11
-7 -8 -7 -7 -8 -9 -9 -9 -10 -10 -10 -11 -11 -11 -11 -11 -13 -14 -15 -15 -15 -16 -28 -30 -24 -25 -26 -25 -24 -22 -24 -27 -22 -15 -13 -13 -13 -12 -12 -12 -11 -11 -12
-7 -7 -7 -8 -8 -9 -9 -10 -10 -10 -10 -11 -11 -11 -12 -12 -13 -13 -13 -15 -16 -15 -16 -26 -31 -32 -32 -31 -30 -30 -31 -31 -30 -20 -15 -14 -14 -13 -12 -12 -13 -12 -12
-7 -8 -8 -9 -10 -9 -9 -10 -10 -10 -10 -11 -10 -11 -12 -12 -12 -12 -13 -14 -15 -17 -16 -17 -23 -30 -32 -32 -32 -31 -31 -32 -32 -31 -22 -18 -18 -14 -13 -13 -13 -14 -13
-10 -12 -11 -9 -9 -10 -10 -10 -10 -10 -10 -11 -11 -11 -11 -11 -12 -12 -13 -14 -15 -16 -20 -19 -20 -22 -26 -29 -31 -31 -30 -30 -31 -32 -31 -24 -23 -21 -16 -15 -14 -13 -14
-10 -10 -11 -10 -10 -10 -10 -10 -10 -10 -10 -11 -11 -10 -10 -11 -12 -12 -13 -13 -14 -16 -20 -23 -24 -27 -28 -28 -29 -30 -30 -29 -30 -31 -31 -31 -29 -28 -25 -20 -16 -14 -15
-8 -8 -9 -9 -9 -10 -10 -10 -10 -10 -10 -10 -11 -11 -11 -11 -12 -12 -12 -13 -13 -14 -17 -21 -21 -22 -23 -23 -25 -29 -29 -28 -28 -30 -31 -31 -32 -32 -32 -29 -27 -22 -22
-7 -8 -9 -10 -9 -10 -10 -10 -10 -10 -10 -10 -10 -11 -11 -11 -12 -12 -12 -13 -13 -13 -14 -16 -18 -18 -16 -15 -15 -19 -25 -26 -25 -28 -31 -33 -34 -34 -33 -33 -33 -32 -31

GFSGL_850_dewp_018.txt.gz
Dewpoint
-3 -4 -4 -3 -1 -2 -2 -3 -3 -4 -4 -4 -7 -7 -8 -8 -11 -11 -11 -11 -11 -11 -10 -10 -10 -11 -12 -12 -13 -13 -11 -8 -7 -8 -9 -9 -10 -10 -9 -10 -9 -10 -8
-6 -5 -3 -3 -3 -2 -3 -2 -1 -2 -4 -5 -7 -7 -8 -11 -11 -12 -13 -13 -12 -11 -11 -11 -13 -13 -12 -12 -13 -15 -15 -10 -8 -8 -8 -9 -9 -10 -10 -9 -10 -10 -11
-8 -2 -7 -9 -6 -3 -3 -2 -4 -4 -4 -6 -7 -8 -11 -11 -12 -11 -11 -11 -10 -10 -10 -11 -12 -12 -13 -13 -14 -14 -15 -12 -9 -9 -9 -8 -8 -9 -11 -14 -13 -11 -11
-9 -9 -10 -11 -8 -2 -2 -3 -4 -2 -3 -7 -7 -9 -11 -12 -11 -11 -10 -10 -10 -9 -10 -12 -13 -14 -15 -16 -11 -10 -9 -8 -10 -9 -8 -8 -9 -11 -12 -14 -15 -12 -13
-10 -10 -12 -14 -9 -9 -9 -7 -7 -3 -5 -6 -11 -11 -12 -11 -10 -9 -9 -9 -8 -11 -12 -12 -12 -13 -14 -14 -10 -10 -10 -9 -9 -8 -8 -8 -9 -11 -12 -12 -12 -13 -11
-12 -12 -12 -12 -11 -10 -10 -6 -3 -5 -7 -6 -8 -11 -11 -9 -9 -8 -8 -10 -12 -11 -11 -11 -12 -13 -15 -14 -12 -12 -11 -10 -10 -9 -8 -8 -9 -10 -10 -11 -13 -12 -14
-11 -11 -11 -10 -9 -9 -7 -4 -3 -4 -7 -7 -8 -10 -9 -9 -8 -9 -11 -11 -10 -11 -12 -12 -13 -14 -15 -13 -13 -14 -13 -13 -12 -11 -10 -9 -10 -10 -11 -12 -12 -11 -10
-10 -10 -9 -8 -8 -9 -6 -5 -4 -7 -6 -9 -9 -9 -10 -9 -11 -12 -11 -11 -11 -12 -12 -13 -13 -14 -13 -13 -12 -11 -11 -11 -11 -11 -11 -11 -12 -12 -11 -11 -10 -9 -10
-9 -8 -8 -7 -7 -8 -6 -6 -6 -8 -9 -9 -9 -10 -9 -11 -13 -13 -13 -15 -15 -15 -15 -15 -13 -13 -13 -12 -12 -12 -11 -13 -13 -11 -10 -9 -10 -10 -9 -9 -10 -9 -9
-8 -7 -6 -7 -7 -5 -5 -5 -7 -8 -8 -9 -10 -9 -10 -12 -14 -15 -16 -14 -14 -14 -14 -14 -14 -12 -12 -12 -12 -11 -12 -13 -13 -13 -13 -13 -11 -10 -9 -10 -12 -13 -13
-6 -6 -7 -7 -7 -6 -5 -6 -8 -9 -10 -9 -9 -10 -11 -13 -15 -17 -16 -13 -13 -13 -14 -13 -13 -13 -12 -13 -12 -12 -12 -11 -11 -12 -12 -12 -11 -12 -12 -11 -11 -11 -11
-6 -7 -8 -8 -7 -8 -8 -9 -9 -9 -9 -9 -10 -11 -12 -14 -16 -17 -15 -14 -14 -13 -13 -13 -13 -13 -13 -12 -12 -12 -12 -12 -11 -11 -11 -11 -11 -10 -10 -10 -10 -9 -9
-8 -7 -7 -8 -8 -7 -7 -8 -9 -9 -9 -9 -11 -11 -13 -14 -15 -17 -15 -15 -14 -13 -14 -13 -14 -13 -13 -13 -13 -13 -12 -12 -12 -11 -11 -11 -10 -10 -9 -9 -8 -8 -8
-7 -6 -7 -9 -10 -8 -8 -8 -9 -8 -9 -10 -11 -12 -12 -13 -14 -16 -14 -14 -14 -14 -14 -14 -14 -14 -14 -14 -13 -13 -13 -13 -12 -12 -11 -11 -10 -10 -9 -9 -8 -8 -8
-5 -5 -8 -10 -11 -10 -7 -7 -7 -8 -9 -11 -11 -11 -12 -13 -13 -13 -13 -13 -14 -14 -15 -15 -15 -17 -17 -16 -14 -13 -13 -13 -12 -12 -12 -11 -10 -10 -9 -9 -8 -8 -8
-5 -5 -7 -9 -9 -9 -8 -7 -8 -8 -11 -10 -11 -11 -11 -12 -12 -13 -13 -14 -16 -19 -19 -16 -17 -17 -17 -16 -15 -14 -14 -14 -13 -12 -12 -11 -11 -10 -10 -10 -9 -9 -8
-5 -6 -6 -8 -7 -7 -8 -8 -9 -11 -10 -11 -11 -11 -11 -11 -12 -14 -15 -15 -16 -26 -24 -19 -18 -18 -18 -17 -16 -15 -15 -14 -13 -13 -12 -12 -11 -11 -11 -11 -10 -9 -9
-6 -7 -7 -7 -8 -7 -8 -9 -9 -10 -10 -11 -11 -11 -11 -11 -12 -13 -16 -16 -16 -22 -30 -24 -20 -21 -23 -20 -19 -17 -17 -17 -14 -13 -13 -12 -12 -11 -11 -11 -11 -11 -10
-7 -7 -7 -8 -8 -8 -8 -10 -10 -10 -10 -11 -11 -12 -11 -11 -12 -13 -14 -15 -17 -15 -20 -31 -29 -28 -29 -27 -25 -25 -28 -26 -19 -14 -13 -13 -12 -12 -12 -12 -11 -12 -12
-7 -7 -7 -8 -8 -8 -9 -10 -10 -10 -10 -11 -11 -11 -11 -12 -12 -12 -13 -13 -15 -17 -15 -20 -29 -31 -32 -32 -31 -31 -31 -31 -27 -16 -14 -14 -13 -13 -12 -13 -12 -12 -13
-7 -7 -8 -8 -8 -9 -9 -10 -10 -10 -10 -11 -11 -10 -11 -12 -12 -12 -13 -13 -14 -16 -19 -16 -17 -24 -30 -31 -31 -31 -31 -31 -32 -29 -20 -18 -16 -14 -13 -13 -13 -13 -13
-7 -7 -8 -8 -9 -10 -10 -10 -10 -10 -10 -11 -11 -11 -11 -11 -11 -12 -12 -13 -13 -14 -17 -21 -21 -22 -23 -26 -29 -30 -30 -29 -30 -32 -31 -24 -22 -19 -15 -14 -14 -14 -14
-6 -7 -11 -12 -11 -10 -10 -10 -10 -10 -10 -10 -11 -11 -11 -11 -11 -12 -12 -13 -13 -13 -14 -20 -23 -24 -27 -28 -28 -29 -30 -29 -29 -29 -31 -31 -29 -27 -24 -18 -17 -15 -16
-6 -7 -9 -9 -10 -10 -10 -10 -10 -10 -10 -11 -11 -11 -11 -11 -12 -12 -12 -12 -13 -13 -14 -16 -19 -20 -20 -21 -22 -25 -29 -28 -28 -28 -30 -31 -32 -32 -32 -29 -24 -21 -21
-6 -7 -7 -8 -8 -9 -10 -10 -10 -10 -10 -10 -9 -11 -11 -11 -12 -12 -12 -12 -13 -13 -13 -14 -15 -17 -18 -15 -15 -15 -20 -24 -24 -24 -28 -31 -33 -34 -33 -33 -32 -31 -31
-7 -7 -7 -7 -8 -8 -9 -10 -10 -10 -10 -10 -10 -11 -11 -11 -12 -12 -12 -13 -13 -13 -13 -13 -14 -14 -16 -15 -15 -15 -17 -19 -18 -18 -19 -28 -33 -34 -35 -33 -31 -32 -31

GFSGL_850_dewp_021.txt.gz
Dewpoint
-5 -6 -5 -2 -4 -8 -7 -3 -3 -3 -2 -3 -3 -5 -6 -8 -10 -11 -12 -13 -14 -12 -11 -11 -11 -11 -11 -12 -13 -14 -13 -13 -14 -14 -10 -8 -8 -9 -11 -13 -11 -9 -10
-7 -7 -7 -6 -10 -14 -5 -1 -1 -4 -4 -4 -4 -4 -6 -9 -11 -11 -12 -13 -12 -10 -10 -10 -9 -9 -11 -13 -14 -15 -16 -14 -13 -14 -12 -7 -7 -8 -9 -10 -12 -12 -10
-8 -9 -10 -11 -13 -16 -12 -12 -10 -8 -5 -4 -3 -5 -8 -7 -11 -11 -11 -11 -10 -9 -9 -8 -10 -12 -12 -13 -14 -15 -16 -11 -9 -8 -10 -10 -9 -9 -9 -11 -13 -13 -14
-9 -10 -12 -13 -13 -11 -11 -10 -12 -7 -3 -3 -5 -7 -10 -10 -8 -10 -10 -9 -8 -8 -9 -12 -12 -11 -11 -12 -13 -15 -12 -10 -10 -10 -9 -8 -8 -8 -9 -10 -12 -14 -15
-12 -13 -12 -11 -10 -10 -9 -10 -10 -3 -3 -3 -4 -10 -9 -8 -9 -9 -9 -9 -9 -11 -12 -11 -11 -12 -11 -11 -12 -12 -12 -12 -12 -10 -10 -9 -9 -8 -9 -10 -11 -13 -13
-12 -11 -10 -10 -9 -8 -8 -10 -8 -6 -5 -4 -6 -8 -8 -9 -9 -9 -9 -11 -12 -12 -12 -12 -12 -12 -14 -14 -15 -12 -11 -11 -12 -12 -11 -11 -10 -8 -9 -9 -10 -11 -12
-11 -10 -9 -8 -8 -8 -9 -9 -7 -5 -4 -8 -6 -8 -8 -9 -9 -10 -12 -13 -15 -15 -15 -13 -13 -14 -15 -13 -13 -14 -12 -11 -11 -11 -11 -12 -11 -11 -10 -10 -11 -11 -12
-9 -8 -8 -8 -7 -8 -8 -7 -7 -5 -6 -7 -9 -8 -9 -9 -10 -12 -14 -16 -18 -16 -15 -15 -14 -13 -13 -12 -12 -12 -13 -12 -12 -11 -11 -10 -11 -11 -11 -12 -12 -11 -11
-9 -8 -8 -7 -8 -8 -6 -5 -7 -7 -8 -8 -8 -8 -9 -10 -12 -14 -17 -18 -16 -15 -15 -14 -13 -13 -12 -12 -12 -11 -11 -13 -13 -14 -13 -13 -11 -10 -10 -10 -10 -10 -10
-9 -7 -7 -8 -8 -8 -6 -5 -6 -7 -8 -8 -9 -9 -10 -12 -13 -16 -18 -16 -15 -15 -14 -14 -13 -13 -13 -13 -12 -12 -12 -12 -12 -12 -12 -13 -12 -13 -12 -10 -10 -10 -10
-7 -7 -8 -7 -8 -8 -7 -7 -8 -9 -9 -9 -9 -9 -11 -12 -14 -17 -18 -15 -13 -13 -14 -14 -14 -13 -13 -13 -13 -12 -12 -12 -12 -12 -11 -11 -11 -11 -12 -13 -13 -13 -13
-7 -7 -7 -7 -8 -8 -8 -8 -8 -8 -9 -9 -9 -11 -12 -13 -14 -15 -17 -14 -13 -13 -14 -14 -14 -13 -13 -13 -13 -13 -13 -12 -12 -12 -11 -11 -11 -10 -10 -10 -10 -10 -10
-7 -6 -6 -6 -9 -8 -8 -8 -8 -9 -8 -9 -10 -11 -12 -13 -13 -15 -17 -15 -14 -14 -15 -14 -14 -14 -17 -15 -13 -13 -13 -13 -12 -12 -12 -11 -11 -10 -10 -9 -9 -9 -8
-7 -5 -5 -6 -9 -10 -10 -9 -8 -8 -8 -9 -11 -11 -12 -12 -13 -14 -16 -15 -16 -19 -22 -16 -15 -18 -18 -16 -14 -14 -13 -13 -13 -12 -12 -11 -11 -10 -9 -9 -8 -8 -8
-7 -6 -6 -6 -7 -11 -10 -8 -8 -8 -8 -9 -11 -11 -12 -12 -12 -13 -13 -15 -16 -22 -28 -24 -21 -21 -21 -19 -16 -15 -15 -14 -13 -12 -12 -11 -11 -10 -10 -9 -8 -8 -8
-6 -6 -6 -6 -7 -8 -8 -8 -8 -9 -9 -10 -10 -11 -12 -12 -12 -12 -14 -17 -16 -19 -32 -28 -23 -23 -23 -20 -19 -17 -16 -15 -13 -13 -12 -12 -11 -11 -11 -10 -9 -9 -8
-6 -6 -7 -7 -7 -7 -8 -8 -9 -10 -10 -10 -11 -11 -11 -11 -12 -12 -13 -16 -17 -16 -28 -32 -27 -28 -27 -23 -21 -20 -23 -18 -14 -13 -13 -12 -12 -11 -11 -11 -11 -10 -10
-7 -7 -7 -7 -7 -8 -8 -8 -9 -10 -10 -11 -11 -11 -12 -12 -12 -12 -13 -14 -17 -17 -16 -23 -31 -32 -31 -29 -27 -29 -30 -27 -17 -14 -13 -13 -12 -12 -12 -12 -12 -12 -11
-7 -7 -7 -7 -7 -8 -8 -9 -9 -9 -10 -10 -11 -11 -12 -11 -12 -12 -12 -13 -15 -18 -18 -16 -22 -30 -32 -32 -31 -31 -31 -31 -24 -15 -14 -13 -13 -13 -12 -12 -12 -12 -12
-7 -7 -7 -8 -8 -8 -9 -9 -9 -10 -11 -11 -11 -11 -11 -11 -12 -12 -12 -13 -13 -15 -17 -20 -16 -18 -23 -29 -31 -31 -30 -31 -32 -29 -21 -18 -15 -14 -13 -13 -13 -13 -13
-7 -7 -7 -8 -8 -9 -9 -10 -10 -10 -11 -11 -11 -11 -11 -11 -11 -12 -12 -12 -13 -14 -15 -19 -23 -24 -25 -25 -27 -29 -30 -29 -29 -31 -31 -25 -23 -21 -15 -14 -14 -14 -14
-7 -7 -7 -8 -8 -9 -10 -10 -10 -10 -10 -10 -11 -11 -11 -11 -11 -11 -12 -13 -13 -14 -14 -17 -22 -22 -23 -26 -26 -27 -28 -29 -28 -29 -30 -31 -29 -27 -25 -18 -19 -15 -15
-7 -7 -7 -7 -10 -12 -11 -11 -11 -10 -11 -11 -11 -11 -11 -11 -11 -11 -12 -12 -13 -13 -14 -14 -16 -18 -19 -19 -19 -19 -22 -27 -27 -27 -29 -30 -31 -31 -31 -30 -27 -24 -23
-8 -7 -7 -7 -8 -9 -9 -10 -10 -10 -10 -11 -10 -10 -10 -11 -11 -12 -12 -13 -13 -13 -14 -14 -14 -15 -16 -17 -16 -15 -15 -19 -23 -23 -23 -29 -32 -33 -34 -33 -32 -31 -31
-7 -7 -7 -7 -7 -7 -8 -8 -9 -10 -10 -11 -11 -11 -10 -10 -11 -12 -12 -13 -13 -14 -14 -14 -14 -14 -14 -15 -15 -15 -15 -17 -18 -18 -17 -20 -29 -33 -34 -34 -33 -32 -32
-8 -8 -7 -7 -7 -7 -7 -8 -8 -8 -9 -11 -11 -11 -11 -11 -11 -12 -12 -13 -14 -14 -14 -14 -14 -14 -14 -15 -15 -15 -15 -16 -17 -17 -19 -21 -26 -32 -34 -33 -31 -29 -28

GFSGL_850_dewp_024.txt.gz
Dewpoint
-8 -7 -7 -5 -7 -11 -14 -15 -10 -7 -10 -10 -5 -3 -3 -5 -5 -6 -9 -11 -11 -11 -10 -10 -10 -10 -9 -9 -11 -13 -13 -15 -15 -16 -16 -16 -14 -13 -8 -9 -10 -15 -14
-7 -8 -9 -11 -12 -14 -12 -11 -10 -10 -12 -7 -4 -5 -4 -4 -8 -8 -10 -10 -11 -10 -9 -9 -9 -9 -10 -12 -12 -12 -12 -13 -15 -13 -14 -15 -14 -13 -7 -7 -10 -11 -11
-8 -10 -12 -13 -13 -12 -11 -10 -10 -12 -13 -6 -5 -5 -4 -8 -7 -9 -10 -10 -10 -9 -8 -9 -9 -11 -12 -12 -11 -11 -12 -13 -13 -10 -11 -11 -11 -10 -10 -8 -9 -10 -11
-11 -12 -13 -12 -11 -10 -9 -9 -10 -12 -10 -7 -5 -4 -4 -7 -9 -9 -10 -9 -9 -9 -10 -12 -12 -12 -12 -12 -11 -12 -11 -12 -12 -12 -12 -12 -9 -11 -9 -8 -8 -9 -11
-12 -12 -11 -10 -9 -9 -9 -9 -10 -10 -7 -4 -5 -5 -6 -7 -7 -9 -8 -9 -10 -12 -14 -16 -16 -15 -11 -11 -11 -12 -12 -12 -12 -12 -12 -12 -11 -11 -9 -9 -8 -9 -11
-12 -11 -10 -9 -9 -9 -9 -9 -9 -8 -6 -5 -4 -6 -7 -8 -8 -8 -10 -11 -13 -16 -18 -17 -15 -15 -15 -12 -13 -12 -12 -12 -12 -11 -12 -11 -12 -13 -12 -10 -9 -9 -9
-11 -11 -9 -9 -8 -9 -9 -9 -7 -7 -6 -6 -6 -7 -8 -8 -9 -10 -10 -13 -17 -19 -16 -15 -15 -14 -14 -14 -13 -13 -12 -12 -12 -12 -11 -12 -11 -11 -13 -12 -11 -10 -10
-10 -9 -9 -8 -9 -10 -9 -10 -6 -6 -5 -6 -8 -8 -8 -9 -9 -10 -13 -17 -19 -17 -16 -15 -14 -14 -14 -12 -12 -12 -13 -13 -12 -12 -12 -13 -13 -12 -10 -11 -11 -11 -11
-9 -9 -8 -8 -11 -9 -9 -9 -6 -6 -6 -6 -8 -8 -9 -9 -10 -13 -16 -19 -18 -16 -15 -15 -14 -14 -13 -12 -13 -12 -13 -12 -12 -12 -12 -12 -13 -14 -13 -11 -10 -11 -11
-8 -8 -9 -9 -9 -8 -8 -8 -7 -7 -7 -8 -8 -9 -9 -10 -12 -14 -16 -18 -17 -16 -15 -15 -15 -14 -13 -13 -13 -13 -13 -13 -13 -13 -12 -12 -12 -13 -13 -13 -12 -10 -10
-10 -11 -10 -7 -6 -7 -9 -8 -8 -8 -9 -9 -9 -9 -10 -12 -13 -14 -15 -16 -15 -15 -16 -16 -15 -13 -13 -13 -13 -13 -13 -13 -12 -12 -12 -12 -11 -11 -11 -11 -13 -14 -12
-13 -12 -10 -6 -6 -7 -8 -8 -8 -8 -8 -9 -9 -9 -11 -12 -13 -14 -15 -18 -16 -16 -21 -22 -15 -14 -16 -18 -14 -13 -13 -13 -13 -13 -12 -12 -11 -11 -10 -10 -11 -11 -11
-13 -12 -9 -6 -6 -7 -9 -9 -8 -8 -9 -8 -8 -10 -11 -11 -12 -13 -14 -19 -17 -17 -25 -28 -19 -18 -21 -19 -15 -14 -14 -13 -13 -13 -12 -12 -11 -11 -10 -10 -9 -10 -10
-11 -10 -8 -7 -7 -6 -9 -12 -10 -8 -8 -8 -8 -10 -11 -11 -12 -13 -14 -18 -19 -16 -25 -32 -26 -24 -24 -21 -18 -15 -15 -14 -13 -13 -12 -12 -11 -10 -10 -9 -9 -9 -8
-9 -7 -8 -7 -6 -6 -8 -9 -9 -8 -8 -9 -9 -10 -10 -12 -12 -13 -13 -14 -19 -17 -19 -32 -30 -30 -29 -26 -23 -19 -19 -16 -13 -13 -12 -12 -11 -11 -10 -10 -9 -9 -8
-8 -7 -7 -7 -7 -7 -8 -8 -8 -9 -10 -10 -10 -10 -11 -11 -11 -12 -13 -14 -17 -19 -16 -22 -31 -31 -31 -29 -28 -29 -28 -19 -14 -13 -13 -12 -12 -12 -11 -11 -10 -10 -9
-7 -7 -7 -7 -7 -7 -8 -8 -8 -9 -10 -10 -10 -11 -11 -11 -11 -12 -13 -13 -15 -19 -18 -16 -21 -30 -31 -31 -30 -30 -31 -30 -17 -14 -13 -13 -12 -12 -12 -12 -11 -11 -10
-7 -7 -7 -7 -8 -8 -8 -8 -8 -9 -10 -10 -10 -10 -11 -11 -11 -12 -12 -13 -13 -17 -22 -18 -16 -20 -27 -30 -31 -31 -31 -31 -27 -16 -14 -14 -13 -13 -13 -13 -13 -12 -12
-8 -8 -7 -7 -7 -8 -8 -8 -9 -10 -10 -10 -11 -10 -11 -11 -11 -12 -12 -13 -13 -14 -17 -22 -20 -17 -17 -21 -26 -30 -30 -30 -31 -31 -23 -19 -16 -14 -13 -13 -13 -13 -13
-8 -6 -7 -7 -7 -8 -9 -9 -9 -10 -10 -10 -11 -11 -11 -11 -11 -11 -12 -13 -13 -14 -14 -17 -21 -23 -24 -25 -26 -26 -28 -29 -28 -29 -31 -27 -23 -21 -16 -14 -14 -14 -14
-8 -7 -7 -7 -7 -7 -8 -9 -9 -10 -10 -10 -11 -11 -11 -11 -11 -11 -12 -12 -13 -14 -14 -14 -17 -20 -20 -22 -24 -25 -26 -28 -28 -28 -29 -30 -29 -28 -26 -19 -18 -18 -15
-8 -8 -8 -8 -8 -7 -8 -11 -11 -12 -11 -11 -11 -10 -11 -11 -11 -12 -11 -12 -13 -13 -14 -14 -15 -15 -16 -18 -17 -17 -18 -21 -26 -27 -27 -29 -30 -31 -31 -29 -25 -23 -21
-9 -9 -8 -8 -8 -7 -8 -11 -12 -11 -11 -11 -11 -11 -11 -11 -11 -11 -12 -12 -13 -13 -14 -14 -14 -15 -15 -16 -16 -16 -15 -15 -18 -22 -22 -24 -29 -32 -33 -33 -33 -31 -29
-8 -9 -9 -8 -8 -7 -7 -8 -9 -9 -10 -10 -10 -10 -11 -11 -10 -11 -11 -12 -13 -13 -14 -14 -14 -14 -15 -15 -15 -15 -15 -15 -17 -18 -17 -17 -21 -29 -34 -34 -32 -32 -32
-8 -9 -9 -8 -8 -8 -8 -8 -8 -8 -8 -9 -9 -10 -11 -11 -11 -10 -11 -12 -12 -13 -14 -14 -14 -14 -14 -14 -15 -15 -15 -15 -16 -17 -17 -18 -20 -26 -31 -33 -31 -29 -29
-8 -8 -9 -8 -8 -7 -7 -7 -8 -8 -8 -8 -8 -9 -10 -11 -11 -11 -12 -12 -13 -14 -14 -14 -14 -14 -14 -14 -15 -15 -15 -15 -16 -17 -19 -21 -23 -26 -30 -32 -31 -29 -28

GFSGL_850_dewp_027.txt.gz
Dewpoint
-9 -7 -7 -8 -10 -12 -14 -15 -13 -12 -12 -13 -12 -8 -5 -4 -4 -4 -6 -9 -9 -10 -10 -10 -10 -9 -8 -8 -8 -9 -10 -11 -11 -12 -12 -12 -11 -10 -10 -9 -9 -8 -8
-7 -8 -9 -11 -13 -15 -15 -11 -9 -10 -12 -13 -10 -7 -5 -5 -5 -5 -8 -8 -10 -10 -10 -9 -9 -8 -8 -8 -9 -10 -10 -10 -11 -11 -12 -12 -10 -10 -9 -9 -8 -8 -8
-8 -10 -12 -12 -14 -11 -9 -9 -10 -12 -12 -11 -8 -5 -4 -4 -6 -7 -8 -8 -9 -9 -9 -9 -10 -9 -9 -10 -10 -10 -10 -10 -10 -11 -12 -12 -12 -12 -10 -9 -9 -8 -8
-11 -12 -12 -12 -10 -9 -9 -10 -13 -13 -11 -8 -6 -4 -6 -4 -6 -7 -7 -9 -9 -9 -10 -12 -16 -15 -11 -11 -10 -11 -11 -11 -11 -11 -12 -12 -12 -12 -9 -9 -10 -9 -10
-11 -12 -12 -10 -9 -9 -9 -13 -13 -11 -9 -9 -5 -5 -6 -6 -7 -8 -8 -9 -10 -11 -15 -19 -18 -17 -16 -13 -12 -11 -11 -11 -11 -11 -11 -12 -12 -12 -12 -11 -10 -9 -9
-11 -12 -11 -10 -8 -9 -13 -13 -11 -10 -8 -7 -6 -6 -6 -6 -8 -8 -9 -10 -12 -15 -19 -18 -16 -15 -12 -13 -14 -14 -12 -11 -11 -11 -12 -10 -13 -10 -11 -11 -10 -9 -10
-12 -11 -10 -9 -10 -12 -13 -10 -10 -9 -6 -6 -5 -6 -8 -8 -8 -9 -9 -12 -15 -19 -18 -16 -14 -12 -12 -12 -12 -12 -12 -12 -12 -12 -11 -11 -11 -12 -11 -10 -10 -10 -10
-12 -10 -10 -11 -12 -11 -11 -9 -9 -8 -6 -6 -7 -7 -8 -8 -9 -9 -12 -14 -17 -19 -17 -15 -12 -13 -13 -13 -12 -12 -12 -12 -12 -11 -11 -11 -11 -11 -11 -10 -11 -10 -10
-12 -11 -11 -11 -11 -10 -9 -8 -9 -8 -7 -7 -8 -8 -8 -9 -9 -11 -13 -16 -17 -18 -17 -13 -13 -13 -13 -13 -13 -12 -12 -12 -12 -12 -13 -12 -12 -12 -12 -11 -11 -10 -10
-13 -12 -11 -11 -10 -8 -7 -8 -10 -9 -8 -8 -8 -8 -8 -9 -10 -12 -14 -15 -17 -17 -14 -16 -20 -14 -13 -13 -13 -13 -13 -12 -13 -12 -12 -11 -11 -11 -11 -11 -11 -11 -11
-13 -12 -13 -13 -11 -7 -6 -8 -9 -9 -8 -8 -8 -8 -9 -10 -12 -13 -14 -15 -16 -15 -15 -22 -26 -17 -15 -19 -16 -14 -13 -13 -13 -13 -12 -11 -11 -11 -11 -11 -11 -11 -10
-12 -13 -13 -13 -12 -8 -7 -7 -9 -9 -8 -8 -8 -9 -9 -10 -12 -12 -13 -14 -18 -17 -16 -25 -30 -26 -24 -23 -20 -17 -15 -15 -13 -13 -13 -12 -11 -11 -11 -10 -10 -10 -10
-14 -14 -13 -11 -9 -7 -7 -7 -8 -10 -8 -8 -8 -8 -9 -10 -11 -12 -13 -14 -16 -19 -17 -24 -30 -28 -28 -25 -22 -19 -17 -16 -14 -13 -13 -12 -11 -11 -10 -10 -9 -9 -9
-14 -14 -11 -8 -8 -7 -7 -6 -8 -10 -9 -8 -8 -9 -9 -10 -11 -12 -12 -14 -15 -18 -18 -19 -28 -30 -30 -28 -26 -25 -25 -18 -14 -13 -12 -12 -11 -11 -10 -10 -10 -9 -8
-13 -11 -9 -8 -7 -7 -7 -7 -8 -8 -9 -9 -10 -10 -10 -11 -11 -11 -12 -13 -14 -16 -19 -17 -19 -26 -30 -30 -29 -30 -30 -22 -14 -13 -13 -12 -12 -12 -11 -11 -10 -9 -9
-11 -9 -9 -8 -8 -8 -7 -7 -8 -8 -8 -9 -11 -11 -10 -11 -11 -11 -12 -13 -13 -14 -18 -19 -17 -19 -24 -29 -30 -30 -31 -31 -20 -14 -14 -13 -13 -12 -12 -12 -11 -10 -10
-9 -8 -8 -8 -8 -8 -8 -7 -8 -8 -8 -9 -10 -11 -10 -11 -11 -11 -12 -13 -13 -14 -16 -20 -19 -17 -18 -22 -27 -29 -29 -30 -31 -22 -16 -14 -13 -13 -13 -13 -12 -12 -11
-9 -8 -8 -8 -8 -7 -7 -8 -8 -8 -8 -9 -11 -10 -11 -10 -11 -11 -11 -12 -13 -13 -14 -16 -20 -20 -18 -18 -20 -22 -25 -27 -28 -30 -29 -24 -19 -15 -13 -13 -13 -13 -13
-8 -8 -8 -7 -7 -7 -7 -7 -8 -8 -9 -10 -10 -10 -11 -11 -11 -11 -11 -12 -12 -13 -13 -14 -15 -18 -20 -22 -23 -25 -25 -26 -27 -27 -29 -29 -26 -24 -20 -15 -14 -14 -14
-8 -8 -8 -8 -8 -8 -8 -7 -8 -9 -9 -10 -11 -11 -11 -11 -11 -11 -11 -11 -12 -13 -13 -14 -15 -15 -18 -19 -20 -21 -22 -23 -26 -27 -27 -29 -28 -28 -27 -22 -18 -19 -16
-8 -8 -9 -9 -7 -8 -8 -8 -7 -8 -9 -10 -10 -11 -11 -11 -11 -11 -11 -11 -12 -12 -13 -14 -15 -15 -16 -16 -17 -17 -17 -18 -21 -25 -26 -27 -28 -30 -30 -28 -24 -23 -19
-7 -8 -9 -9 -9 -9 -8 -8 -8 -8 -11 -12 -12 -11 -11 -11 -11 -11 -12 -12 -12 -12 -13 -14 -15 -15 -15 -15 -16 -16 -16 -16 -16 -19 -22 -22 -25 -30 -32 -32 -31 -29 -27
-7 -7 -9 -9 -9 -9 -8 -8 -8 -8 -10 -12 -11 -10 -11 -11 -11 -11 -12 -12 -12 -12 -12 -14 -14 -15 -15 -15 -15 -15 -15 -15 -15 -17 -18 -17 -18 -23 -30 -33 -32 -32 -31
-8 -9 -9 -9 -9 -9 -8 -8 -8 -8 -8 -8 -9 -9 -9 -10 -11 -11 -12 -11 -11 -11 -12 -13 -14 -15 -15 -15 -15 -15 -15 -15 -15 -16 -17 -17 -18 -21 -25 -29 -30 -29 -29
-8 -8 -8 -9 -9 -8 -8 -8 -8 -8 -8 -8 -8 -8 -8 -8 -9 -10 -11 -11 -11 -11 -12 -13 -13 -15 -15 -14 -14 -15 -15 -15 -15 -16 -17 -18 -21 -22 -25 -28 -29 -28 -28
-9 -9 -8 -8 -9 -9 -9 -9 -9 -8 -8 -8 -8 -8 -8 -8 -8 -8 -8 -10 -11 -11 -12 -12 -13 -14 -14 -14 -14 -15 -15 -16 -16 -16 -16 -18 -21 -23 -25 -28 -29 -29 -28

GFSGL_850_dewp_030.txt.gz
Dewpoint
-3 -7 -8 -8 -10 -8 -7 -7 -7 -7 -7 -7 -6 -6 -5 -5 -4 -4 -3 -4 -5 -5 -6 -6 -7 -7 -9 -10 -10 -11 -11 -11 -11 -12 -12 -12 -11 -11 -11 -10 -10 -9 -10
-7 -8 -7 -11 -8 -7 -7 -7 -6 -6 -6 -6 -4 -4 -5 -4 -3 -3 -4 -5 -5 -6 -7 -7 -8 -9 -9 -10 -11 -11 -12 -11 -10 -11 -11 -11 -11 -11 -11 -11 -11 -11 -10
-7 -8 -8 -7 -7 -7 -7 -6 -5 -6 -6 -4 -4 -4 -3 -3 -4 -5 -5 -5 -6 -7 -7 -8 -9 -9 -10 -11 -11 -11 -11 -11 -10 -10 -10 -11 -12 -12 -11 -10 -8 -8 -10
-8 -9 -9 -7 -7 -6 -5 -5 -6 -6 -5 -4 -5 -5 -5 -5 -5 -6 -6 -7 -7 -8 -8 -9 -10 -11 -11 -11 -11 -11 -11 -11 -11 -11 -11 -11 -11 -11 -11 -12 -12 -10 -9
-10 -9 -8 -7 -5 -5 -4 -5 -6 -5 -4 -5 -5 -4 -5 -5 -6 -6 -6 -7 -8 -9 -10 -11 -12 -12 -15 -12 -11 -11 -11 -11 -11 -11 -11 -11 -12 -12 -10 -12 -11 -12 -13
-11 -8 -9 -7 -6 -5 -5 -7 -6 -5 -5 -5 -4 -5 -5 -6 -8 -8 -8 -9 -9 -11 -12 -13 -12 -12 -11 -12 -11 -12 -12 -11 -11 -10 -11 -11 -11 -12 -12 -10 -11 -10 -10
-9 -9 -8 -7 -6 -6 -7 -7 -6 -6 -5 -5 -4 -5 -5 -6 -8 -8 -9 -10 -10 -11 -12 -12 -12 -12 -12 -11 -12 -12 -11 -11 -11 -11 -11 -11 -10 -10 -10 -10 -12 -11 -10
-11 -9 -7 -7 -7 -7 -6 -6 -6 -6 -6 -5 -5 -6 -6 -7 -8 -9 -10 -12 -10 -10 -11 -11 -11 -12 -12 -12 -12 -12 -11 -12 -12 -12 -11 -11 -11 -11 -10 -10 -10 -11 -11
-9 -8 -8 -7 -7 -7 -6 -6 -5 -6 -6 -6 -5 -6 -6 -7 -8 -9 -12 -12 -9 -10 -10 -11 -12 -13 -12 -13 -13 -12 -12 -13 -12 -12 -12 -12 -13 -13 -12 -11 -10 -10 -10
-9 -9 -8 -7 -6 -7 -6 -5 -6 -6 -7 -7 -7 -6 -7 -8 -9 -10 -12 -12 -10 -10 -10 -11 -12 -15 -25 -14 -14 -13 -12 -12 -12 -12 -12 -11 -11 -11 -11 -11 -10 -10 -11
-15 -12 -7 -7 -7 -7 -6 -6 -6 -7 -6 -6 -8 -8 -8 -8 -8 -10 -12 -13 -11 -11 -11 -11 -12 -22 -29 -26 -24 -14 -14 -14 -13 -12 -12 -11 -11 -10 -10 -10 -10 -10 -9
-16 -9 -8 -8 -7 -7 -6 -6 -6 -6 -6 -6 -7 -8 -7 -8 -9 -10 -12 -13 -14 -14 -12 -11 -14 -25 -29 -29 -24 -22 -22 -16 -13 -12 -12 -11 -11 -11 -10 -10 -10 -9 -9
-15 -12 -9 -7 -6 -6 -6 -6 -6 -6 -7 -6 -7 -7 -8 -8 -8 -9 -12 -13 -14 -15 -15 -18 -17 -21 -27 -22 -21 -29 -21 -14 -13 -13 -12 -12 -12 -11 -10 -10 -9 -9 -9
-14 -11 -7 -6 -6 -6 -7 -6 -6 -6 -6 -7 -7 -8 -8 -8 -9 -9 -10 -10 -11 -11 -12 -16 -18 -17 -18 -19 -15 -14 -16 -23 -14 -13 -13 -13 -12 -12 -11 -10 -10 -9 -8
-13 -10 -7 -6 -6 -6 -6 -6 -6 -6 -6 -7 -7 -8 -8 -9 -9 -9 -10 -11 -11 -12 -14 -15 -12 -12 -13 -14 -15 -15 -15 -19 -17 -14 -14 -13 -13 -12 -12 -11 -10 -10 -9
-12 -9 -6 -6 -6 -6 -6 -6 -6 -7 -8 -8 -8 -9 -10 -11 -10 -11 -11 -11 -12 -14 -14 -12 -12 -12 -13 -13 -14 -14 -15 -16 -24 -26 -14 -14 -13 -13 -12 -12 -11 -11 -10
-12 -11 -6 -7 -6 -6 -6 -7 -7 -7 -8 -8 -8 -8 -9 -11 -11 -11 -11 -11 -12 -13 -12 -11 -12 -12 -12 -13 -13 -14 -15 -17 -22 -21 -22 -15 -14 -14 -13 -12 -12 -11 -11
-11 -10 -7 -6 -7 -7 -7 -7 -7 -7 -8 -7 -8 -8 -9 -11 -11 -11 -11 -11 -11 -11 -12 -11 -12 -12 -12 -13 -14 -15 -19 -22 -22 -25 -22 -22 -17 -15 -13 -13 -13 -13 -12
-9 -7 -6 -7 -7 -7 -8 -7 -8 -7 -7 -8 -8 -8 -9 -10 -11 -11 -11 -11 -11 -11 -10 -11 -11 -12 -12 -13 -13 -15 -19 -18 -20 -23 -22 -21 -17 -17 -15 -14 -13 -13 -13
-6 -6 -7 -7 -7 -7 -8 -8 -8 -8 -8 -8 -8 -8 -9 -9 -10 -10 -10 -10 -10 -11 -11 -11 -11 -12 -12 -13 -13 -14 -14 -14 -15 -19 -22 -23 -17 -16 -15 -15 -14 -14 -14
-6 -6 -6 -7 -7 -7 -8 -8 -8 -8 -8 -8 -8 -8 -9 -9 -9 -10 -10 -10 -10 -10 -11 -11 -11 -12 -12 -13 -13 -14 -14 -15 -15 -16 -19 -20 -21 -17 -16 -15 -16 -15 -15
-6 -6 -6 -7 -7 -8 -9 -9 -9 -8 -8 -8 -8 -8 -9 -11 -10 -10 -10 -10 -10 -10 -10 -11 -11 -11 -12 -13 -13 -14 -14 -15 -15 -15 -17 -18 -17 -15 -16 -16 -16 -18 -17
-6 -6 -7 -7 -8 -9 -8 -8 -9 -8 -8 -8 -8 -8 -8 -9 -9 -9 -9 -10 -10 -10 -10 -12 -12 -13 -14 -15 -15 -15 -15 -15 -15 -15 -16 -17 -17 -16 -19 -16 -15 -16 -23
-6 -7 -8 -8 -8 -8 -9 -8 -9 -9 -8 -8 -8 -8 -8 -8 -8 -9 -9 -9 -10 -11 -12 -11 -12 -13 -14 -14 -15 -15 -15 -16 -16 -16 -16 -17 -18 -19 -21 -23 -16 -19 -18
-7 -9 -9 -8 -8 -8 -9 -9 -9 -9 -8 -8 -8 -8 -8 -8 -8 -8 -8 -8 -8 -9 -11 -11 -11 -11 -12 -13 -15 -15 -15 -15 -16 -16 -16 -16 -18 -20 -22 -25 -26 -17 -21
-8 -9 -9 -9 -9 -9 -9 -9 -9 -9 -9 -9 -9 -9 -8 -8 -8 -8 -8 -8 -9 -9 -8 -10 -11 -11 -12 -12 -14 -14 -14 -15 -16 -16 -16 -16 -17 -19 -21 -23 -25 -23 -17

GFSGL_850_dewp_033.txt.gz
Dewpoint
-1 -0 -1 -3 -5 -5 -6 -6 -6 -6 -6 -7 -7 -6 -5 -6 -6 -4 -4 -3 -3 -4 -5 -4 -4 -5 -6 -7 -10 -11 -11 -12 -12 -12 -12 -11 -10 -10 -10 -10 -11 -10 -11
-1 -2 -2 -5 -6 -6 -6 -7 -6 -5 -6 -7 -6 -5 -5 -5 -4 -4 -4 -4 -4 -5 -5 -5 -6 -7 -9 -10 -11 -11 -12 -12 -12 -12 -12 -10 -10 -10 -10 -11 -11 -11 -9
-1 -3 -5 -6 -6 -6 -7 -6 -5 -5 -6 -6 -5 -5 -5 -5 -5 -4 -5 -5 -5 -5 -6 -6 -9 -10 -10 -11 -11 -11 -11 -12 -11 -10 -10 -10 -10 -11 -11 -11 -11 -11 -10
-4 -5 -8 -7 -6 -7 -6 -5 -5 -6 -6 -6 -5 -5 -5 -6 -6 -5 -5 -6 -6 -6 -8 -9 -10 -10 -11 -10 -11 -11 -11 -11 -11 -10 -10 -11 -11 -10 -10 -11 -10 -10 -11
-2 -6 -8 -7 -6 -6 -5 -5 -5 -6 -5 -5 -6 -5 -5 -5 -6 -6 -6 -7 -9 -10 -10 -10 -11 -12 -12 -12 -11 -11 -11 -11 -11 -11 -11 -10 -10 -10 -11 -11 -11 -11 -11
-4 -7 -7 -7 -8 -6 -5 -5 -6 -6 -6 -6 -6 -5 -6 -6 -6 -9 -9 -9 -9 -10 -11 -11 -11 -12 -12 -12 -10 -10 -11 -11 -11 -10 -11 -11 -12 -11 -10 -9 -10 -10 -11
-8 -7 -8 -8 -7 -6 -7 -7 -7 -6 -6 -6 -5 -5 -5 -5 -6 -8 -9 -9 -9 -10 -10 -10 -11 -12 -11 -11 -11 -12 -11 -12 -12 -11 -11 -10 -10 -11 -11 -10 -11 -9 -10
-7 -8 -9 -7 -7 -7 -7 -7 -7 -6 -6 -6 -5 -5 -4 -5 -7 -9 -8 -10 -9 -9 -9 -10 -11 -11 -12 -13 -17 -11 -12 -13 -13 -12 -11 -11 -12 -12 -12 -11 -11 -11 -11
-8 -9 -9 -9 -8 -8 -8 -8 -7 -6 -6 -6 -6 -5 -5 -6 -6 -9 -9 -10 -9 -9 -9 -10 -10 -11 -12 -19 -27 -13 -12 -13 -13 -13 -13 -12 -13 -12 -12 -10 -12 -10 -10
-9 -9 -9 -9 -8 -8 -7 -7 -6 -6 -7 -7 -7 -6 -6 -6 -7 -8 -9 -10 -9 -9 -9 -10 -10 -11 -13 -25 -28 -22 -13 -12 -13 -13 -12 -11 -11 -10 -10 -10 -10 -9 -9
-10 -9 -8 -8 -8 -8 -7 -7 -6 -6 -6 -6 -6 -6 -6 -6 -7 -8 -8 -10 -10 -9 -10 -10 -10 -11 -17 -24 -29 -24 -15 -24 -18 -12 -12 -11 -11 -11 -10 -10 -10 -10 -10
-18 -7 -8 -9 -8 -8 -6 -6 -6 -6 -6 -6 -5 -7 -8 -7 -7 -9 -10 -10 -12 -13 -10 -10 -10 -17 -18 -21 -22 -22 -25 -17 -12 -13 -12 -11 -11 -11 -11 -10 -10 -9 -9
-9 -10 -8 -7 -7 -6 -6 -7 -7 -6 -6 -5 -5 -6 -6 -7 -7 -7 -9 -10 -11 -13 -12 -12 -16 -18 -17 -16 -14 -15 -15 -13 -13 -13 -12 -12 -12 -11 -11 -11 -10 -9 -8
-12 -7 -7 -7 -6 -6 -6 -7 -7 -6 -5 -5 -6 -6 -6 -7 -7 -7 -8 -10 -10 -10 -10 -10 -14 -12 -12 -12 -12 -12 -12 -13 -14 -13 -13 -12 -12 -12 -12 -11 -11 -10 -9
-8 -9 -8 -7 -5 -6 -6 -7 -7 -6 -6 -6 -6 -6 -7 -8 -8 -9 -9 -9 -9 -10 -12 -14 -11 -10 -11 -11 -11 -12 -12 -12 -13 -14 -13 -13 -13 -12 -12 -12 -11 -11 -10
-14 -12 -10 -7 -5 -6 -6 -6 -6 -6 -7 -7 -7 -8 -8 -8 -9 -11 -10 -11 -11 -12 -12 -11 -10 -10 -11 -11 -11 -12 -12 -12 -13 -14 -13 -13 -13 -13 -13 -12 -11 -11 -10
-13 -12 -10 -6 -5 -6 -6 -5 -6 -7 -7 -7 -8 -8 -8 -9 -8 -9 -11 -11 -11 -11 -12 -11 -10 -10 -11 -11 -11 -12 -12 -12 -14 -13 -13 -13 -14 -13 -13 -13 -12 -11 -11
-11 -9 -6 -5 -5 -6 -6 -6 -7 -8 -7 -7 -7 -7 -8 -8 -8 -9 -10 -11 -10 -11 -11 -10 -10 -10 -11 -11 -11 -12 -12 -13 -13 -13 -14 -13 -14 -14 -13 -13 -13 -13 -13
-7 -5 -5 -5 -6 -6 -7 -7 -8 -8 -8 -8 -7 -8 -8 -8 -9 -9 -10 -10 -10 -10 -10 -10 -10 -10 -11 -11 -11 -12 -13 -13 -13 -14 -14 -14 -14 -14 -13 -14 -13 -13 -13
-6 -6 -5 -5 -6 -6 -6 -7 -8 -8 -8 -8 -8 -8 -7 -8 -8 -9 -9 -10 -10 -10 -10 -10 -10 -10 -10 -11 -11 -12 -12 -12 -13 -13 -13 -14 -14 -14 -13 -13 -14 -14 -13
-6 -6 -5 -5 -6 -6 -7 -7 -7 -8 -8 -8 -8 -8 -7 -8 -9 -9 -9 -10 -10 -10 -10 -10 -10 -10 -11 -11 -12 -12 -12 -13 -13 -13 -14 -14 -14 -14 -14 -14 -13 -14 -14
-6 -5 -5 -6 -6 -7 -7 -7 -7 -9 -9 -8 -8 -8 -8 -8 -8 -9 -9 -9 -9 -10 -10 -10 -10 -10 -10 -11 -11 -12 -12 -13 -13 -14 -14 -14 -15 -14 -14 -14 -14 -14 -14
-6 -6 -6 -6 -7 -7 -8 -7 -7 -8 -8 -8 -9 -8 -8 -8 -8 -8 -9 -8 -9 -9 -10 -10 -10 -10 -10 -11 -11 -13 -12 -12 -13 -14 -15 -16 -15 -14 -15 -14 -14 -14 -14
-7 -8 -7 -7 -7 -8 -9 -8 -8 -8 -8 -9 -9 -8 -8 -8 -7 -8 -8 -8 -8 -8 -9 -9 -10 -11 -12 -10 -11 -13 -15 -15 -15 -16 -17 -16 -17 -15 -15 -15 -15 -14 -14
-8 -7 -7 -8 -8 -9 -9 -9 -8 -8 -8 -8 -9 -8 -8 -8 -8 -8 -8 -8 -8 -8 -8 -9 -9 -9 -10 -11 -11 -12 -14 -15 -15 -15 -16 -17 -17 -17 -19 -19 -19 -19 -15
-8 -8 -7 -8 -9 -9 -9 -9 -9 -8 -9 -8 -9 -9 -10 -10 -9 -9 -9 -9 -9 -8 -8 -8 -9 -9 -9 -10 -10 -11 -11 -14 -14 -15 -16 -17 -17 -17 -15 -15 -17 -20 -15

GFSGL_850_dewp_036.txt.gz
Dewpoint
2 0 -1 0 -2 -2 -5 -4 -5 -6 -5 -5 -6 -6 -6 -5 -5 -5 -4 -4 -3 -4 -4 -4 -4 -5 -6 -6 -7 -9 -10 -10 -10 -11 -11 -11 -11 -11 -13 -12 -12 -13 -13
-0 -0 0 -1 -2 -5 -5 -5 -6 -6 -5 -5 -6 -6 -5 -5 -5 -5 -7 -4 -4 -4 -6 -6 -6 -7 -7 -9 -10 -10 -11 -11 -11 -11 -10 -11 -10 -12 -11 -11 -11 -11 -11
-0 -0 -1 -3 -4 -5 -5 -6 -6 -5 -5 -6 -6 -5 -5 -5 -6 -5 -6 -5 -5 -5 -6 -7 -7 -8 -10 -10 -10 -10 -11 -12 -11 -11 -11 -12 -12 -13 -13 -11 -12 -12 -11
-1 -1 -4 -4 -4 -5 -5 -6 -5 -5 -5 -6 -5 -5 -5 -5 -7 -5 -5 -5 -5 -6 -8 -9 -9 -11 -10 -11 -11 -13 -13 -12 -12 -12 -12 -12 -12 -11 -11 -13 -10 -11 -11
-1 -4 -2 -5 -5 -5 -6 -5 -5 -5 -5 -6 -5 -6 -5 -5 -6 -5 -6 -8 -8 -9 -11 -10 -10 -11 -11 -12 -12 -12 -10 -11 -11 -13 -13 -13 -13 -13 -12 -10 -11 -10 -12
-2 -3 -1 -5 -6 -7 -6 -5 -5 -6 -7 -6 -6 -6 -5 -5 -6 -6 -7 -8 -10 -11 -10 -10 -10 -10 -12 -12 -11 -10 -11 -11 -13 -12 -12 -11 -11 -10 -11 -12 -12 -13 -11
-2 -4 -7 -5 -5 -7 -6 -6 -7 -7 -7 -6 -6 -6 -5 -5 -6 -5 -7 -9 -10 -11 -9 -9 -9 -10 -11 -10 -11 -13 -20 -16 -11 -12 -12 -10 -11 -11 -14 -14 -14 -13 -13
-5 -5 -5 -7 -7 -7 -7 -7 -7 -7 -7 -6 -6 -6 -5 -5 -6 -5 -6 -8 -10 -11 -9 -9 -9 -10 -10 -12 -13 -18 -27 -23 -14 -13 -12 -12 -12 -14 -14 -11 -11 -11 -13
-4 -3 -6 -8 -9 -9 -7 -7 -7 -7 -6 -6 -6 -6 -6 -4 -5 -5 -6 -7 -9 -11 -11 -10 -9 -10 -11 -11 -12 -21 -26 -26 -16 -13 -16 -16 -14 -12 -11 -10 -11 -10 -11
-4 -7 -7 -8 -10 -8 -7 -7 -7 -7 -6 -6 -6 -6 -6 -5 -6 -6 -6 -8 -10 -10 -11 -9 -10 -10 -10 -11 -15 -22 -25 -24 -27 -21 -15 -13 -13 -11 -11 -10 -11 -10 -10
-5 -7 -6 -9 -8 -7 -8 -8 -7 -7 -7 -6 -6 -6 -7 -7 -7 -6 -7 -9 -10 -10 -12 -13 -10 -10 -11 -15 -18 -19 -20 -20 -18 -15 -13 -13 -12 -12 -12 -12 -11 -10 -10
-4 -9 -11 -12 -8 -7 -7 -7 -7 -6 -6 -6 -5 -5 -6 -7 -7 -8 -9 -9 -9 -10 -12 -13 -13 -13 -15 -17 -16 -16 -14 -15 -14 -15 -14 -14 -13 -13 -12 -12 -11 -11 -10
-8 -10 -16 -9 -6 -6 -6 -6 -6 -7 -7 -6 -7 -6 -6 -6 -6 -7 -7 -7 -8 -10 -11 -13 -14 -14 -14 -13 -13 -12 -12 -13 -13 -15 -15 -14 -14 -13 -12 -12 -12 -11 -11
-13 -16 -7 -6 -8 -8 -7 -6 -6 -6 -6 -6 -8 -6 -6 -6 -7 -7 -8 -9 -8 -9 -11 -11 -12 -13 -11 -11 -11 -11 -12 -13 -12 -13 -13 -16 -14 -14 -14 -13 -12 -12 -11
-6 -10 -13 -13 -12 -10 -9 -7 -6 -6 -6 -6 -7 -7 -6 -6 -6 -7 -7 -10 -9 -9 -10 -10 -11 -13 -10 -12 -12 -12 -12 -13 -12 -13 -15 -13 -14 -14 -15 -13 -12 -12 -12
-14 -14 -14 -12 -11 -9 -7 -6 -6 -7 -6 -6 -7 -8 -8 -8 -8 -7 -7 -8 -10 -9 -9 -11 -12 -12 -10 -11 -12 -12 -11 -12 -12 -13 -14 -14 -13 -14 -15 -14 -13 -12 -13
-12 -12 -12 -10 -8 -7 -5 -6 -6 -8 -8 -7 -7 -6 -7 -7 -8 -8 -8 -8 -9 -10 -11 -11 -12 -11 -11 -11 -12 -11 -11 -12 -13 -13 -13 -14 -13 -14 -14 -14 -14 -13 -14
-8 -10 -10 -8 -7 -5 -6 -6 -6 -8 -8 -9 -9 -8 -7 -7 -7 -8 -8 -8 -9 -10 -10 -11 -11 -11 -11 -11 -12 -11 -11 -12 -13 -13 -14 -13 -13 -14 -14 -13 -15 -14 -14
-7 -6 -6 -6 -5 -5 -5 -6 -6 -7 -7 -8 -8 -8 -8 -8 -7 -7 -8 -9 -9 -10 -11 -11 -11 -11 -10 -10 -11 -12 -12 -12 -13 -14 -13 -13 -13 -14 -14 -14 -14 -15 -14
-6 -6 -6 -5 -5 -5 -5 -5 -6 -6 -6 -7 -8 -8 -8 -8 -7 -8 -8 -9 -9 -10 -10 -10 -9 -10 -10 -9 -10 -11 -11 -12 -12 -12 -13 -14 -14 -14 -14 -14 -14 -14 -14
-6 -7 -7 -6 -5 -5 -5 -6 -6 -6 -7 -7 -7 -9 -9 -8 -7 -7 -8 -8 -9 -9 -9 -10 -11 -11 -11 -11 -10 -11 -11 -12 -12 -12 -13 -14 -15 -16 -14 -14 -14 -14 -14
-8 -7 -7 -8 -8 -8 -7 -7 -7 -8 -8 -7 -7 -8 -8 -8 -8 -8 -7 -8 -9 -9 -9 -9 -10 -10 -10 -11 -11 -11 -11 -12 -12 -13 -14 -16 -17 -16 -14 -14 -14 -14 -14
-9 -8 -8 -7 -7 -9 -8 -7 -8 -9 -9 -8 -7 -7 -8 -8 -8 -7 -7 -8 -8 -8 -9 -9 -9 -10 -10 -10 -10 -11 -11 -11 -12 -13 -14 -16 -17 -17 -15 -16 -15 -15 -14
-11 -12 -10 -9 -8 -8 -7 -8 -8 -9 -8 -8 -8 -8 -8 -8 -8 -8 -7 -8 -8 -8 -8 -8 -8 -9 -9 -9 -10 -10 -11 -11 -11 -13 -14 -16 -17 -17 -17 -17 -19 -17 -16
-12 -11 -11 -9 -9 -8 -7 -8 -8 -8 -8 -9 -8 -8 -8 -8 -9 -10 -9 -8 -8 -8 -8 -8 -8 -8 -8 -9 -9 -9 -10 -11 -11 -14 -15 -15 -17 -17 -17 -18 -19 -19 -19
-11 -10 -9 -8 -8 -8 -8 -9 -10 -10 -10 -10 -10 -10 -9 -9 -9 -8 -8 -10 -10 -9 -9 -8 -8 -8 -8 -9 -9 -9 -10 -10 -11 -12 -14 -14 -16 -17 -17 -17 -16 -18 -19

GFSGL_850_dewp_039.txt.gz
Dewpoint
5 5 4 2 0 -2 -1 -3 -4 -4 -4 -7 -8 -8 -10 -8 -5 -5 -5 -6 -8 -4 -4 -4 -5 -6 -6 -6 -7 -8 -9 -10 -10 -11 -12 -13 -14 -13 -12 -13 -13 -13 -12
5 4 2 0 0 -2 -1 -3 -1 -4 -6 -6 -6 -7 -8 -6 -5 -5 -5 -8 -6 -5 -5 -6 -7 -6 -7 -8 -9 -10 -12 -11 -11 -14 -17 -16 -15 -13 -14 -14 -13 -12 -14
4 2 0 -0 -1 -2 -4 -1 -4 -6 -6 -5 -5 -6 -7 -5 -5 -5 -6 -6 -6 -6 -6 -7 -8 -8 -9 -10 -11 -11 -11 -12 -15 -13 -14 -15 -14 -14 -14 -14 -14 -14 -12
1 -0 -0 -1 -3 -4 -2 -3 -2 -6 -5 -5 -5 -7 -7 -5 -5 -5 -7 -8 -7 -6 -6 -8 -10 -10 -10 -11 -11 -12 -12 -13 -13 -12 -15 -14 -13 -14 -12 -12 -11 -12 -14
-0 -0 -1 -3 -3 -3 -3 -2 -5 -7 -4 -5 -6 -7 -6 -6 -5 -5 -7 -6 -6 -8 -10 -11 -13 -10 -10 -11 -12 -12 -12 -11 -11 -13 -15 -12 -13 -12 -11 -10 -12 -15 -16
-1 -1 -2 -3 -2 -3 -4 -4 -5 -5 -7 -7 -7 -6 -6 -6 -5 -5 -6 -6 -6 -7 -12 -13 -11 -10 -11 -11 -11 -11 -11 -12 -17 -23 -12 -12 -12 -11 -12 -13 -14 -15 -12
-1 -2 -3 -3 -4 -4 -2 -5 -6 -7 -10 -7 -7 -6 -5 -6 -6 -4 -5 -5 -6 -8 -11 -13 -10 -9 -10 -10 -11 -11 -14 -17 -25 -22 -13 -12 -11 -12 -12 -14 -14 -11 -11
-2 -4 -4 -4 -3 -5 -6 -6 -5 -7 -6 -6 -6 -5 -6 -6 -6 -5 -4 -5 -6 -7 -9 -12 -10 -10 -10 -10 -11 -13 -14 -19 -24 -22 -12 -13 -13 -14 -12 -11 -11 -10 -11
-5 -4 -3 -5 -5 -5 -5 -6 -7 -6 -6 -7 -6 -6 -6 -7 -6 -6 -4 -5 -6 -7 -8 -11 -13 -10 -10 -11 -12 -13 -18 -19 -22 -24 -20 -15 -13 -12 -11 -11 -11 -11 -12
-4 -3 -3 -3 -3 -6 -10 -11 -8 -7 -7 -7 -7 -6 -6 -6 -6 -6 -8 -7 -6 -7 -9 -11 -12 -12 -12 -12 -13 -16 -18 -18 -18 -19 -20 -17 -14 -13 -12 -12 -12 -11 -11
-2 -2 -2 -4 -8 -13 -10 -7 -8 -8 -7 -8 -7 -6 -5 -5 -5 -6 -7 -8 -7 -8 -9 -12 -12 -13 -13 -13 -14 -17 -16 -16 -15 -15 -15 -17 -16 -14 -13 -13 -12 -11 -11
-1 -2 -4 -10 -9 -8 -8 -7 -7 -6 -6 -6 -6 -6 -6 -6 -6 -6 -6 -8 -8 -8 -8 -10 -12 -13 -14 -15 -15 -15 -14 -13 -13 -14 -13 -14 -16 -16 -14 -13 -13 -12 -11
-4 -7 -9 -11 -15 -12 -9 -9 -7 -7 -6 -7 -6 -6 -6 -7 -7 -6 -6 -7 -7 -7 -8 -9 -11 -13 -14 -15 -13 -12 -12 -12 -13 -13 -13 -13 -15 -15 -15 -15 -14 -12 -13
-8 -9 -14 -13 -12 -13 -12 -12 -10 -7 -6 -6 -6 -6 -6 -7 -8 -6 -6 -6 -7 -8 -10 -9 -10 -11 -11 -13 -12 -12 -11 -11 -12 -12 -13 -13 -15 -14 -15 -15 -12 -13 -13
-13 -14 -13 -13 -14 -13 -12 -10 -8 -7 -6 -6 -6 -6 -6 -7 -8 -7 -6 -7 -7 -7 -8 -10 -10 -10 -10 -12 -11 -11 -12 -12 -12 -13 -13 -14 -15 -15 -15 -15 -14 -13 -13
-9 -10 -13 -13 -13 -12 -11 -9 -8 -7 -8 -8 -9 -8 -8 -7 -6 -7 -7 -7 -7 -8 -8 -9 -9 -9 -11 -12 -11 -11 -12 -11 -11 -12 -13 -15 -15 -14 -14 -14 -15 -14 -14
-7 -8 -8 -8 -9 -9 -8 -7 -7 -8 -7 -8 -8 -9 -9 -9 -7 -7 -7 -7 -7 -8 -9 -9 -10 -11 -11 -12 -11 -11 -12 -11 -11 -12 -14 -15 -15 -15 -14 -14 -14 -15 -15
-9 -7 -5 -6 -6 -6 -6 -5 -5 -5 -5 -8 -8 -8 -8 -9 -8 -8 -8 -7 -7 -8 -9 -9 -10 -12 -12 -12 -11 -11 -12 -12 -11 -12 -15 -16 -15 -14 -15 -14 -14 -14 -15
-6 -7 -7 -5 -5 -5 -5 -5 -5 -6 -5 -6 -9 -7 -8 -8 -8 -8 -8 -7 -7 -8 -9 -10 -11 -11 -11 -11 -12 -10 -10 -11 -12 -13 -15 -15 -15 -14 -15 -14 -14 -14 -15
-8 -9 -7 -7 -9 -9 -8 -7 -6 -6 -6 -7 -7 -7 -9 -7 -8 -8 -8 -8 -7 -8 -9 -10 -10 -11 -11 -10 -10 -9 -10 -10 -11 -12 -14 -14 -15 -16 -16 -14 -14 -14 -14
-15 -12 -11 -11 -9 -8 -7 -7 -7 -9 -8 -7 -7 -9 -9 -7 -7 -8 -8 -8 -8 -8 -8 -9 -9 -9 -11 -11 -10 -11 -10 -10 -10 -12 -15 -14 -14 -17 -16 -15 -14 -14 -14
-10 -11 -13 -14 -15 -14 -11 -8 -7 -7 -7 -8 -9 -9 -9 -8 -7 -8 -8 -8 -8 -7 -8 -8 -9 -9 -9 -10 -10 -11 -11 -11 -11 -12 -14 -14 -14 -17 -17 -17 -15 -15 -15
-19 -16 -12 -11 -10 -10 -12 -10 -9 -7 -7 -8 -9 -9 -9 -8 -7 -8 -8 -8 -8 -7 -7 -8 -9 -9 -9 -9 -9 -10 -10 -11 -11 -12 -13 -14 -15 -16 -17 -17 -17 -16 -17
-13 -12 -12 -12 -11 -10 -9 -9 -8 -9 -8 -8 -9 -9 -9 -9 -8 -8 -8 -9 -9 -8 -7 -8 -8 -8 -8 -8 -9 -9 -9 -10 -10 -11 -12 -12 -15 -15 -17 -17 -17 -19 -19
-15 -14 -13 -13 -13 -12 -12 -11 -10 -11 -10 -10 -10 -10 -10 -10 -10 -9 -9 -9 -9 -9 -9 -8 -8 -8 -8 -8 -8 -9 -9 -9 -9 -10 -11 -12 -14 -15 -17 -18 -17 -18 -19
-16 -16 -16 -16 -15 -15 -14 -14 -13 -13 -13 -13 -12 -12 -12 -12 -12 -11 -11 -10 -10 -9 -9 -9 -9 -9 -9 -9 -9 -9 -9 -9 -9 -10 -11 -11 -14 -15 -17 -18 -17 -17 -18

GFSGL_850_dewp_042.txt.gz
Dewpoint
8 6 6 6 6 4 1 -1 -1 -3 -3 0 -2 -6 -7 -8 -11 -12 -9 -7 -5 -7 -7 -5 -5 -6 -7 -6 -7 -7 -8 -9 -11 -12 -13 -15 -18 -19 -19 -17 -15 -14 -14
6 5 5 5 5 3 0 -1 -1 1 0 -3 -5 -6 -6 -6 -10 -11 -6 -5 -5 -8 -7 -7 -6 -7 -8 -9 -9 -9 -11 -11 -11 -12 -15 -17 -19 -20 -16 -16 -15 -15 -14
5 5 5 3 2 1 0 0 -2 -1 -4 -5 -6 -5 -5 -6 -10 -7 -5 -5 -5 -9 -7 -7 -7 -8 -9 -10 -10 -11 -11 -11 -13 -13 -14 -16 -20 -18 -15 -15 -14 -14 -14
5 5 4 2 1 0 -1 -2 -2 -2 -3 -5 -4 -5 -6 -9 -7 -6 -5 -5 -5 -7 -7 -7 -8 -8 -11 -12 -11 -11 -11 -12 -12 -13 -14 -19 -23 -19 -14 -13 -13 -14 -16
5 4 2 0 -2 -2 -3 -2 -3 -4 -4 -5 -6 -7 -8 -7 -6 -6 -6 -5 -5 -6 -6 -7 -8 -14 -15 -11 -11 -11 -11 -12 -11 -14 -17 -24 -22 -15 -12 -12 -12 -14 -16
3 1 0 -1 -2 -2 -3 -3 -3 -2 -4 -5 -6 -8 -8 -7 -6 -6 -5 -5 -4 -5 -5 -6 -9 -13 -15 -12 -10 -10 -11 -10 -13 -15 -22 -24 -18 -12 -13 -12 -13 -13 -12
1 -1 -2 -3 -2 -3 -2 -1 -2 -3 -3 -5 -9 -7 -7 -6 -5 -6 -6 -5 -4 -4 -5 -6 -8 -9 -13 -11 -10 -10 -11 -12 -13 -18 -23 -22 -18 -15 -15 -13 -12 -12 -11
-1 -3 -3 -4 -3 -2 -3 -2 -1 -2 -5 -10 -6 -6 -6 -6 -6 -6 -7 -5 -5 -5 -5 -6 -7 -10 -12 -11 -11 -10 -13 -14 -17 -19 -21 -22 -17 -14 -12 -12 -11 -11 -12
-3 -4 -3 -3 -2 -1 -0 -1 -4 -8 -8 -7 -7 -7 -7 -7 -6 -6 -6 -5 -5 -6 -6 -6 -8 -10 -11 -11 -11 -13 -15 -17 -18 -18 -18 -18 -17 -14 -12 -12 -12 -12 -13
-4 -5 -3 -1 -0 -1 -3 -8 -8 -8 -8 -7 -7 -7 -8 -8 -6 -6 -5 -5 -5 -6 -7 -7 -8 -11 -11 -12 -13 -14 -17 -18 -17 -16 -16 -16 -18 -18 -16 -13 -12 -12 -12
-2 -1 0 -2 -5 -7 -9 -11 -10 -8 -8 -8 -7 -8 -7 -7 -6 -5 -5 -6 -6 -6 -6 -7 -9 -10 -11 -13 -13 -16 -17 -15 -15 -15 -15 -14 -15 -15 -17 -16 -14 -13 -12
0 -2 -5 -6 -8 -10 -14 -12 -12 -12 -10 -9 -8 -7 -7 -7 -6 -5 -6 -6 -6 -6 -7 -8 -8 -8 -10 -13 -15 -16 -14 -13 -13 -13 -13 -14 -14 -14 -16 -16 -17 -14 -12
-5 -8 -9 -10 -14 -16 -15 -15 -14 -13 -12 -11 -9 -8 -8 -7 -6 -6 -7 -6 -6 -6 -8 -7 -7 -8 -10 -13 -13 -14 -13 -13 -13 -12 -13 -14 -13 -14 -16 -16 -16 -13 -14
-12 -14 -16 -16 -17 -16 -15 -15 -13 -12 -11 -10 -10 -9 -8 -8 -7 -7 -7 -7 -8 -6 -7 -7 -8 -9 -9 -11 -11 -12 -12 -12 -12 -12 -12 -12 -12 -14 -16 -15 -15 -16 -15
-12 -11 -11 -11 -12 -11 -10 -11 -12 -11 -9 -9 -9 -8 -8 -9 -11 -9 -7 -7 -8 -8 -7 -7 -8 -8 -9 -10 -10 -11 -12 -11 -12 -12 -11 -12 -12 -15 -16 -15 -15 -16 -16
-8 -9 -9 -8 -8 -7 -7 -8 -8 -7 -7 -7 -7 -7 -7 -8 -9 -10 -9 -8 -7 -7 -7 -8 -8 -8 -9 -10 -10 -11 -12 -11 -12 -12 -11 -11 -12 -15 -16 -15 -15 -15 -17
-10 -9 -8 -7 -6 -5 -5 -5 -5 -7 -6 -5 -5 -5 -5 -7 -8 -8 -9 -9 -8 -7 -7 -8 -8 -9 -9 -9 -10 -12 -12 -12 -11 -12 -11 -11 -12 -16 -15 -15 -15 -15 -17
-8 -8 -9 -9 -9 -9 -7 -7 -8 -8 -8 -8 -9 -6 -5 -7 -6 -7 -9 -7 -7 -8 -7 -8 -8 -9 -9 -9 -11 -12 -12 -12 -11 -12 -11 -11 -14 -16 -16 -16 -15 -15 -15
-16 -20 -23 -21 -18 -15 -14 -14 -8 -7 -6 -6 -7 -9 -9 -7 -7 -8 -8 -8 -8 -7 -8 -7 -7 -8 -9 -10 -11 -12 -12 -11 -11 -10 -11 -11 -14 -15 -16 -16 -15 -15 -15
-27 -21 -17 -15 -17 -19 -19 -16 -17 -15 -9 -8 -7 -8 -8 -8 -9 -10 -10 -7 -8 -8 -8 -8 -8 -8 -9 -10 -11 -11 -11 -11 -11 -10 -10 -10 -13 -15 -16 -16 -16 -15 -15
-23 -22 -21 -19 -14 -11 -12 -10 -10 -10 -9 -9 -8 -7 -7 -9 -9 -9 -10 -9 -7 -8 -8 -8 -8 -8 -9 -9 -10 -11 -11 -10 -11 -10 -10 -10 -12 -15 -15 -17 -16 -15 -15
-23 -20 -17 -14 -13 -13 -12 -11 -11 -10 -9 -9 -9 -8 -8 -9 -9 -9 -8 -8 -7 -8 -8 -8 -8 -8 -8 -9 -9 -9 -11 -11 -11 -11 -11 -10 -12 -15 -15 -17 -16 -17 -17
-21 -19 -18 -16 -15 -14 -14 -13 -12 -11 -10 -9 -9 -9 -8 -8 -9 -9 -8 -8 -8 -9 -9 -8 -8 -8 -8 -8 -9 -9 -9 -10 -11 -11 -10 -10 -12 -14 -14 -16 -17 -17 -18
-19 -19 -18 -17 -17 -16 -15 -15 -14 -13 -13 -12 -12 -12 -11 -10 -10 -9 -9 -9 -9 -9 -8 -9 -8 -8 -8 -8 -8 -9 -9 -9 -9 -10 -10 -10 -11 -11 -14 -15 -17 -17 -18
-20 -19 -18 -17 -17 -17 -17 -16 -16 -16 -15 -15 -14 -14 -14 -13 -12 -12 -12 -12 -11 -10 -9 -9 -9 -9 -8 -8 -8 -8 -8 -8 -9 -9 -9 -10 -11 -11 -13 -15 -17 -17 -18
-20 -19 -18 -18 -18 -18 -17 -17 -17 -17 -17 -16 -16 -16 -15 -15 -14 -14 -13 -12 -12 -11 -10 -10 -9 -9 -9 -9 -9 -9 -9 -9 -9 -9 -9 -10 -10 -11 -13 -15 -17 -17 -17

GFSGL_850_dewp_045.txt.gz
Dewpoint
9 8 8 8 8 7 6 5 5 4 3 1 1 1 -4 -6 -6 -6 -10 -10 -9 -7 -6 -7 -9 -8 -7 -8 -8 -8 -8 -9 -10 -12 -13 -13 -16 -18 -19 -22 -18 -17 -17
9 8 6 7 6 6 5 4 2 1 -1 -0 -0 -5 -5 -5 -5 -9 -10 -9 -8 -6 -5 -7 -9 -8 -8 -8 -8 -9 -10 -11 -11 -11 -13 -15 -18 -19 -21 -23 -20 -17 -16
7 6 7 7 7 5 4 2 -1 -2 -1 -3 -4 -5 -5 -5 -9 -9 -9 -7 -6 -6 -6 -6 -8 -7 -8 -8 -9 -12 -11 -11 -11 -12 -13 -15 -18 -19 -22 -23 -18 -17 -18
7 7 7 6 4 3 1 0 -1 -1 -2 -1 -4 -2 -4 -5 -7 -9 -8 -7 -7 -6 -5 -5 -6 -6 -8 -10 -15 -12 -11 -11 -12 -12 -13 -15 -17 -21 -23 -18 -20 -18 -20
7 6 6 3 2 1 -0 -1 -2 -3 -4 -4 -3 -2 -3 -4 -9 -7 -6 -6 -5 -5 -5 -4 -5 -6 -6 -9 -12 -13 -11 -11 -11 -12 -13 -15 -19 -22 -20 -18 -18 -18 -15
6 6 3 1 0 -1 -2 -2 -3 -4 -2 -1 -1 -1 -3 -7 -6 -6 -6 -5 -6 -6 -5 -4 -5 -6 -7 -8 -10 -12 -10 -11 -11 -11 -13 -17 -20 -20 -21 -19 -14 -13 -12
6 4 2 0 -2 -3 -3 -3 -2 -0 -0 -0 -2 -5 -7 -6 -7 -7 -6 -6 -6 -6 -5 -4 -5 -5 -6 -7 -11 -11 -10 -11 -11 -12 -15 -18 -19 -20 -18 -17 -14 -12 -11
3 1 -0 -2 -3 -3 -2 0 -0 -1 -2 -3 -6 -8 -8 -7 -7 -7 -6 -6 -6 -6 -4 -5 -5 -6 -6 -8 -10 -10 -11 -11 -12 -14 -18 -18 -18 -19 -17 -14 -12 -12 -13
-0 -2 -3 -3 -2 -1 1 0 -2 -7 -8 -10 -9 -10 -8 -8 -8 -9 -7 -6 -6 -5 -6 -5 -6 -6 -7 -9 -11 -10 -11 -13 -14 -17 -17 -16 -16 -17 -17 -17 -16 -14 -14
-3 -3 -2 -1 -0 0 -3 -8 -9 -10 -11 -12 -13 -11 -11 -13 -11 -9 -7 -6 -5 -6 -6 -6 -6 -7 -7 -10 -11 -12 -13 -13 -16 -16 -15 -15 -15 -15 -15 -16 -15 -14 -14
-3 -1 0 -1 -4 -8 -9 -9 -12 -15 -13 -13 -12 -14 -15 -13 -11 -9 -7 -6 -5 -5 -6 -6 -6 -7 -7 -9 -10 -12 -13 -14 -15 -14 -14 -15 -15 -15 -15 -15 -15 -15 -15
-0 -2 -4 -8 -9 -10 -13 -16 -15 -14 -14 -14 -15 -15 -14 -13 -11 -10 -9 -6 -6 -6 -7 -6 -6 -6 -7 -8 -9 -12 -13 -14 -14 -13 -14 -14 -14 -14 -14 -15 -16 -16 -14
-8 -10 -11 -13 -15 -15 -15 -16 -15 -14 -14 -14 -13 -12 -13 -12 -11 -9 -8 -7 -6 -6 -7 -6 -6 -6 -7 -7 -9 -11 -12 -12 -13 -12 -13 -13 -13 -14 -14 -15 -16 -16 -17
-13 -13 -12 -12 -12 -12 -10 -9 -8 -8 -9 -9 -9 -10 -10 -9 -9 -9 -9 -9 -8 -6 -7 -7 -8 -7 -7 -7 -9 -9 -10 -10 -12 -12 -13 -13 -13 -13 -13 -15 -16 -16 -17
-11 -11 -11 -10 -11 -12 -12 -10 -8 -8 -6 -5 -5 -5 -6 -7 -7 -6 -7 -9 -10 -9 -7 -7 -7 -7 -7 -8 -8 -9 -9 -10 -11 -12 -12 -13 -13 -12 -12 -16 -16 -16 -16
-14 -14 -13 -12 -12 -11 -11 -13 -13 -14 -15 -13 -9 -8 -7 -6 -6 -5 -5 -7 -8 -9 -7 -7 -7 -7 -8 -9 -8 -9 -9 -10 -11 -11 -11 -12 -12 -11 -12 -17 -16 -16 -16
-15 -15 -18 -23 -27 -28 -26 -23 -22 -30 -25 -23 -11 -10 -9 -8 -8 -6 -6 -7 -7 -7 -8 -7 -9 -8 -7 -8 -8 -9 -9 -10 -11 -11 -11 -12 -12 -11 -13 -16 -17 -16 -16
-24 -29 -32 -31 -29 -27 -26 -24 -22 -19 -17 -23 -25 -15 -11 -9 -8 -8 -7 -7 -7 -7 -8 -8 -8 -9 -9 -8 -8 -9 -9 -11 -12 -11 -11 -11 -11 -11 -14 -16 -17 -16 -16
-33 -32 -32 -31 -29 -26 -22 -19 -17 -13 -11 -11 -12 -13 -11 -10 -8 -8 -8 -8 -8 -7 -7 -8 -9 -8 -8 -8 -8 -9 -9 -11 -12 -11 -12 -11 -11 -11 -12 -15 -18 -17 -16
-32 -31 -31 -29 -26 -23 -18 -16 -13 -12 -12 -11 -10 -10 -9 -8 -8 -8 -9 -10 -10 -10 -8 -8 -8 -8 -8 -8 -8 -9 -10 -11 -11 -11 -11 -11 -11 -11 -12 -14 -17 -17 -16
-31 -30 -27 -25 -22 -19 -18 -16 -14 -13 -13 -13 -11 -10 -10 -9 -8 -8 -9 -10 -8 -8 -8 -8 -8 -8 -8 -8 -8 -9 -9 -11 -11 -11 -11 -11 -11 -11 -11 -14 -17 -17 -17
-27 -26 -24 -22 -21 -19 -18 -17 -16 -15 -14 -14 -13 -13 -12 -11 -11 -10 -10 -9 -9 -9 -8 -8 -8 -8 -8 -8 -8 -8 -9 -9 -11 -11 -11 -11 -10 -11 -11 -13 -16 -18 -17
-25 -24 -23 -22 -21 -20 -19 -18 -18 -17 -16 -16 -15 -14 -14 -14 -13 -13 -12 -10 -9 -9 -9 -9 -9 -8 -8 -8 -8 -8 -9 -9 -10 -11 -11 -11 -10 -11 -11 -13 -15 -18 -18
-23 -22 -22 -21 -20 -19 -19 -18 -18 -18 -18 -17 -17 -16 -15 -15 -14 -14 -14 -13 -12 -11 -10 -10 -9 -9 -9 -9 -8 -8 -8 -9 -9 -9 -10 -10 -10 -10 -11 -12 -14 -16 -18
-22 -22 -21 -21 -20 -20 -19 -19 -19 -18 -18 -18 -18 -17 -17 -17 -16 -15 -15 -14 -13 -12 -12 -11 -10 -9 -9 -9 -9 -8 -8 -8 -8 -9 -9 -9 -10 -10 -11 -11 -12 -15 -17
-22 -21 -21 -21 -20 -20 -20 -20 -20 -19 -19 -19 -19 -18 -18 -18 -17 -16 -16 -15 -14 -13 -12 -12 -11 -10 -9 -9 -9 -9 -9 -9 -9 -9 -9 -9 -9 -10 -11 -11 -12 -14 -17

GFSGL_850_dewp_048.txt.gz
Dewpoint
9 9 9 8 7 6 6 6 6 6 6 6 3 3 2 -1 -5 -5 -7 -6 -8 -8 -8 -6 -6 -8 -9 -9 -9 -9 -9 -9 -9 -10 -12 -11 -13 -15 -17 -19 -21 -23 -22
9 8 7 7 7 7 6 7 7 7 6 4 3 0 -3 -4 -2 -5 -2 -8 -9 -7 -6 -5 -5 -6 -8 -8 -8 -8 -8 -10 -11 -11 -11 -13 -14 -16 -18 -20 -21 -22 -19
7 7 7 6 6 6 7 7 6 4 2 1 -1 -2 -0 -3 -2 -2 -7 -7 -7 -6 -7 -6 -6 -5 -6 -7 -7 -8 -12 -14 -11 -11 -13 -13 -15 -18 -19 -20 -21 -21 -21
6 7 8 8 7 6 6 4 2 0 -1 -1 0 -3 -3 -1 -1 -3 -5 -6 -6 -6 -6 -5 -5 -5 -6 -6 -7 -8 -12 -12 -12 -11 -12 -13 -16 -18 -19 -20 -20 -21 -19
7 8 8 7 6 5 2 1 -2 -1 0 -3 -5 -1 -1 -1 -2 -6 -6 -7 -6 -6 -6 -6 -5 -5 -5 -5 -6 -7 -9 -11 -11 -11 -12 -13 -17 -19 -19 -20 -20 -20 -19
8 8 7 6 4 2 0 -1 -1 -2 -2 -3 -0 -0 -1 -3 -7 -6 -6 -7 -6 -6 -6 -6 -6 -5 -5 -5 -6 -7 -7 -10 -10 -11 -11 -13 -17 -19 -19 -19 -19 -16 -13
7 6 4 1 0 -1 -2 -2 -2 -1 -1 0 -0 -2 -5 -7 -7 -8 -8 -8 -8 -7 -6 -6 -6 -5 -5 -5 -6 -6 -8 -10 -10 -11 -11 -14 -17 -18 -17 -18 -17 -16 -13
5 4 1 -1 -2 -3 -1 -1 0 0 -0 -2 -6 -8 -8 -10 -9 -9 -10 -9 -9 -8 -6 -6 -6 -5 -5 -6 -6 -7 -9 -10 -10 -10 -12 -15 -18 -17 -16 -16 -16 -16 -17
2 0 -2 -3 -2 -1 -0 0 0 -3 -9 -9 -10 -11 -11 -13 -13 -12 -11 -10 -9 -8 -6 -6 -5 -5 -5 -6 -6 -8 -10 -11 -10 -11 -13 -17 -16 -16 -15 -14 -15 -16 -16
-2 -2 -2 -2 -1 0 -1 -8 -9 -9 -11 -13 -14 -15 -15 -15 -13 -12 -11 -9 -8 -9 -6 -5 -5 -6 -6 -6 -7 -8 -9 -11 -11 -12 -16 -16 -15 -15 -14 -14 -14 -15 -15
-3 -2 -1 -0 -2 -6 -9 -10 -12 -15 -15 -16 -16 -15 -15 -14 -13 -12 -11 -9 -9 -9 -7 -6 -7 -7 -6 -6 -7 -8 -8 -10 -12 -13 -16 -15 -14 -14 -15 -15 -15 -15 -16
-1 -2 -5 -8 -11 -13 -15 -15 -15 -15 -15 -14 -12 -13 -13 -13 -12 -12 -10 -9 -9 -7 -7 -7 -7 -6 -7 -6 -7 -8 -8 -9 -12 -14 -14 -14 -13 -14 -14 -14 -15 -16 -16
-10 -12 -14 -14 -13 -12 -12 -12 -12 -11 -10 -9 -8 -8 -9 -10 -9 -8 -8 -8 -7 -7 -9 -9 -8 -6 -7 -7 -7 -7 -7 -9 -11 -12 -12 -13 -13 -12 -13 -13 -15 -17 -17
-13 -13 -13 -13 -14 -14 -14 -13 -13 -13 -13 -13 -14 -15 -14 -15 -13 -9 -7 -6 -6 -6 -7 -9 -9 -8 -7 -7 -7 -7 -8 -8 -9 -11 -11 -12 -12 -13 -12 -12 -14 -18 -18
-14 -15 -15 -16 -17 -20 -25 -31 -33 -33 -31 -28 -27 -25 -16 -17 -18 -8 -8 -8 -7 -6 -6 -7 -9 -9 -7 -7 -7 -8 -8 -8 -9 -10 -10 -11 -11 -12 -12 -12 -14 -18 -17
-16 -19 -23 -29 -33 -35 -35 -35 -34 -34 -32 -30 -26 -19 -18 -14 -16 -11 -9 -7 -7 -7 -7 -7 -8 -9 -9 -8 -8 -8 -8 -8 -8 -9 -10 -11 -11 -12 -12 -12 -15 -17 -17
-25 -30 -34 -35 -35 -34 -33 -33 -34 -35 -33 -31 -23 -17 -13 -11 -11 -12 -10 -8 -8 -7 -7 -7 -7 -9 -9 -9 -8 -8 -8 -8 -8 -9 -10 -11 -11 -12 -12 -12 -15 -18 -18
-33 -35 -34 -34 -33 -32 -31 -29 -27 -25 -24 -27 -25 -15 -13 -12 -11 -9 -9 -8 -8 -9 -8 -8 -8 -8 -8 -8 -8 -8 -8 -8 -9 -9 -10 -12 -11 -12 -12 -12 -14 -17 -18
-34 -34 -33 -32 -31 -30 -28 -27 -25 -22 -19 -18 -18 -17 -15 -14 -13 -12 -11 -9 -8 -8 -8 -8 -9 -9 -8 -8 -8 -8 -8 -8 -9 -9 -12 -12 -11 -12 -12 -12 -13 -16 -18
-32 -32 -31 -29 -28 -26 -25 -24 -23 -21 -19 -17 -17 -16 -15 -14 -14 -12 -11 -10 -10 -10 -9 -9 -8 -8 -8 -8 -8 -8 -8 -9 -9 -10 -12 -12 -11 -12 -12 -11 -13 -15 -18
-30 -29 -28 -27 -26 -24 -23 -22 -20 -19 -19 -18 -18 -18 -17 -15 -14 -13 -13 -13 -12 -11 -11 -9 -9 -9 -9 -8 -8 -8 -8 -9 -9 -10 -12 -12 -11 -11 -12 -11 -12 -15 -18
-28 -27 -26 -25 -24 -23 -22 -21 -20 -19 -19 -19 -19 -19 -18 -17 -16 -15 -14 -14 -13 -13 -12 -11 -10 -9 -9 -9 -9 -9 -9 -9 -9 -9 -11 -11 -11 -11 -11 -11 -12 -14 -18
-27 -26 -24 -24 -23 -22 -22 -21 -20 -20 -20 -19 -19 -19 -18 -18 -17 -17 -16 -15 -14 -14 -13 -12 -11 -10 -10 -9 -9 -9 -9 -9 -8 -9 -10 -11 -11 -11 -11 -11 -12 -14 -16
-25 -24 -23 -23 -22 -22 -21 -21 -21 -20 -20 -20 -20 -19 -19 -19 -18 -18 -18 -16 -15 -14 -14 -13 -12 -11 -11 -10 -9 -9 -9 -9 -9 -9 -9 -10 -11 -11 -11 -11 -11 -13 -14
-24 -23 -23 -22 -22 -22 -21 -21 -21 -21 -21 -21 -21 -20 -20 -20 -20 -19 -18 -18 -17 -15 -14 -14 -13 -13 -11 -10 -10 -9 -9 -9 -9 -9 -9 -9 -10 -11 -11 -11 -11 -12 -13
-22 -22 -22 -22 -21 -21 -21 -22 -23 -23 -23 -23 -23 -23 -22 -22 -21 -21 -21 -19 -18 -17 -15 -14 -14 -13 -12 -12 -11 -10 -9 -9 -9 -9 -9 -9 -9 -10 -10 -11 -11 -12 -13

GFSGL_850_dewp_051.txt.gz
Dewpoint
6 5 7 8 8 9 9 9 9 8 7 7 5 4 3 2 1 -5 -4 -1 -1 -8 -9 -7 -7 -6 -6 -7 -8 -8 -6 -6 -6 -8 -9 -10 -13 -13 -13 -16 -20 -21 -21
6 6 8 8 6 7 8 6 7 8 7 7 4 3 3 2 -3 -1 1 -2 -8 -8 -7 -6 -7 -6 -6 -6 -6 -7 -7 -7 -8 -9 -10 -10 -11 -13 -15 -19 -20 -21 -20
7 7 7 6 7 7 7 8 8 7 7 5 3 3 0 -2 1 -0 -1 -4 -5 -6 -6 -6 -6 -5 -5 -6 -6 -6 -6 -7 -9 -10 -10 -10 -11 -11 -13 -14 -17 -19 -18
8 8 8 9 9 8 8 7 7 6 5 3 1 0 0 1 -0 -0 -1 -4 -6 -6 -6 -6 -6 -6 -6 -5 -5 -6 -6 -6 -8 -9 -9 -11 -10 -11 -12 -14 -15 -14 -14
10 9 9 8 8 7 6 5 3 1 1 0 0 0 1 -0 -0 -1 -3 -6 -6 -7 -7 -6 -6 -6 -6 -5 -5 -5 -5 -6 -9 -8 -9 -10 -11 -11 -13 -15 -14 -14 -14
8 8 7 7 6 4 2 1 -0 -1 -0 -0 0 0 -1 -1 -1 -5 -6 -6 -6 -6 -7 -8 -8 -6 -6 -6 -5 -5 -5 -7 -8 -7 -9 -10 -11 -11 -12 -13 -13 -12 -13
7 6 6 5 3 1 -0 -1 -2 -1 -0 -0 -0 -1 -1 -3 -6 -7 -8 -7 -7 -7 -9 -8 -8 -6 -6 -6 -6 -5 -5 -7 -7 -8 -8 -9 -9 -10 -14 -13 -12 -12 -12
5 3 2 0 -0 -1 -1 -1 -0 -0 -0 -0 -4 -7 -8 -10 -9 -9 -9 -9 -9 -11 -11 -10 -9 -7 -6 -6 -5 -5 -6 -7 -8 -10 -11 -10 -10 -12 -17 -13 -11 -12 -12
2 0 -1 -1 -1 -1 -1 -1 -0 -2 -9 -9 -10 -10 -11 -12 -13 -12 -11 -11 -11 -12 -11 -10 -9 -7 -6 -6 -5 -6 -6 -6 -8 -10 -11 -11 -12 -15 -17 -12 -11 -11 -12
-0 -1 -1 -1 -1 -1 0 -3 -8 -9 -11 -13 -15 -15 -15 -15 -15 -15 -14 -12 -12 -12 -12 -10 -9 -8 -6 -6 -6 -6 -6 -7 -8 -9 -11 -12 -13 -16 -16 -15 -12 -11 -12
-2 -2 -2 -1 -0 -2 -8 -11 -14 -15 -16 -17 -16 -15 -14 -12 -11 -11 -10 -8 -9 -10 -9 -9 -9 -9 -7 -6 -6 -6 -7 -6 -7 -8 -10 -12 -14 -14 -14 -12 -12 -12 -12
-1 -2 -5 -9 -11 -14 -14 -14 -14 -13 -13 -13 -14 -16 -18 -22 -27 -28 -24 -14 -7 -6 -6 -6 -7 -8 -8 -7 -6 -6 -7 -7 -7 -8 -9 -12 -14 -14 -12 -11 -12 -14 -13
-9 -12 -13 -13 -13 -14 -14 -15 -17 -21 -28 -34 -34 -35 -30 -25 -23 -25 -22 -20 -16 -9 -7 -6 -6 -6 -7 -7 -8 -7 -7 -7 -8 -8 -9 -11 -12 -12 -12 -13 -14 -14 -15
-13 -14 -15 -15 -17 -20 -28 -34 -35 -35 -35 -33 -30 -26 -26 -22 -12 -10 -11 -11 -11 -10 -9 -9 -8 -6 -7 -7 -7 -7 -7 -7 -8 -8 -8 -9 -10 -11 -12 -13 -13 -13 -13
-16 -17 -20 -26 -32 -35 -36 -36 -35 -34 -33 -31 -21 -13 -16 -14 -11 -11 -11 -10 -11 -11 -8 -7 -8 -7 -7 -7 -8 -8 -7 -8 -8 -9 -9 -9 -10 -10 -12 -12 -13 -12 -12
-21 -27 -31 -34 -36 -36 -36 -35 -34 -33 -31 -30 -25 -21 -17 -17 -17 -15 -13 -11 -9 -11 -9 -8 -7 -7 -7 -7 -8 -9 -9 -8 -8 -8 -8 -9 -9 -10 -11 -12 -12 -12 -12
-30 -33 -35 -36 -35 -34 -34 -32 -31 -29 -29 -28 -26 -25 -22 -21 -18 -16 -14 -12 -11 -9 -9 -7 -7 -8 -8 -7 -8 -9 -9 -9 -8 -8 -9 -9 -9 -10 -11 -11 -12 -12 -13
-33 -35 -35 -34 -33 -32 -31 -30 -29 -27 -26 -25 -25 -24 -23 -23 -22 -18 -15 -13 -11 -10 -9 -8 -8 -8 -8 -8 -8 -8 -8 -8 -8 -8 -9 -9 -9 -10 -11 -12 -12 -13 -13
-34 -34 -33 -31 -30 -30 -29 -28 -27 -26 -25 -24 -24 -24 -24 -23 -22 -20 -18 -15 -13 -13 -12 -11 -10 -10 -9 -9 -9 -8 -8 -8 -8 -8 -9 -9 -9 -11 -11 -12 -12 -12 -14
-33 -32 -31 -30 -29 -28 -27 -26 -25 -24 -24 -23 -22 -22 -22 -22 -21 -20 -19 -16 -15 -14 -13 -12 -12 -11 -10 -9 -9 -9 -9 -8 -8 -9 -9 -9 -10 -12 -11 -12 -12 -12 -14
-31 -30 -29 -28 -27 -26 -25 -24 -24 -23 -22 -22 -21 -21 -20 -20 -19 -19 -18 -18 -17 -15 -15 -14 -13 -12 -11 -11 -10 -10 -9 -9 -9 -9 -9 -9 -10 -12 -11 -12 -12 -12 -14
-29 -28 -27 -26 -26 -25 -24 -23 -23 -22 -22 -22 -21 -21 -21 -21 -20 -20 -19 -19 -18 -17 -15 -15 -14 -13 -13 -12 -11 -10 -10 -10 -10 -10 -9 -9 -11 -12 -11 -11 -12 -12 -13
-28 -27 -26 -25 -24 -23 -23 -22 -22 -22 -22 -22 -22 -22 -22 -22 -21 -21 -20 -20 -19 -18 -17 -15 -14 -14 -13 -13 -12 -11 -10 -10 -10 -10 -10 -9 -10 -12 -12 -11 -11 -12 -13
-26 -25 -24 -24 -23 -22 -22 -22 -22 -23 -24 -25 -25 -25 -25 -25 -24 -24 -23 -22 -21 -20 -18 -17 -15 -14 -14 -13 -12 -11 -10 -9 -9 -10 -10 -9 -10 -11 -11 -10 -11 -11 -12
-25 -24 -23 -23 -22 -22 -22 -22 -25 -26 -25 -25 -24 -24 -24 -23 -23 -23 -23 -23 -23 -22 -21 -18 -16 -15 -14 -13 -13 -12 -11 -10 -9 -10 -10 -9 -9 -10 -11 -10 -11 -11 -12
-24 -23 -22 -22 -22 -22 -23 -26 -26 -25 -24 -24 -23 -23 -23 -23 -23 -23 -23 -22 -22 -22 -22 -20 -18 -15 -14 -13 -13 -12 -11 -10 -10 -9 -10 -10 -9 -9 -10 -10 -11 -11 -11

GFSGL_850_dewp_054.txt.gz
Dewpoint
11 10 10 10 9 9 9 9 8 8 9 8 7 7 6 4 3 2 2 0 0 0 -1 -3 -3 -4 -4 -5 -5 -5 -6 -7 -7 -9 -9 -10 -9 -8 -9 -10 -10 -11 -14
11 11 10 9 8 9 9 8 8 8 8 8 8 7 5 3 2 2 -0 0 -0 -1 -2 -3 -3 -4 -4 -4 -5 -5 -6 -7 -7 -8 -9 -9 -10 -10 -9 -9 -10 -13 -14
10 9 8 8 9 8 8 9 9 8 8 7 7 5 4 3 2 0 1 -0 -0 -1 -1 -3 -4 -4 -4 -5 -5 -6 -6 -7 -8 -8 -9 -9 -10 -10 -10 -10 -11 -13 -14
8 8 9 10 9 9 8 8 8 7 7 7 5 3 2 2 1 0 0 -1 -1 -1 -2 -3 -4 -4 -5 -5 -6 -6 -6 -6 -7 -7 -8 -9 -10 -10 -9 -11 -13 -16 -15
10 10 10 9 8 8 7 7 6 6 5 3 2 1 0 1 1 0 -1 -1 -1 -1 -3 -3 -4 -4 -4 -5 -6 -7 -6 -5 -6 -7 -6 -8 -8 -9 -9 -12 -12 -15 -14
9 8 8 7 7 6 5 4 3 2 2 1 1 0 1 1 0 -0 -1 -2 -3 -3 -4 -4 -5 -5 -5 -6 -8 -6 -6 -6 -5 -5 -6 -7 -8 -8 -11 -11 -13 -15 -14
7 7 6 5 4 3 2 1 1 -0 -0 0 0 0 0 -0 -1 -4 -6 -7 -5 -5 -5 -5 -6 -7 -7 -5 -5 -6 -6 -6 -6 -5 -6 -7 -7 -9 -10 -11 -13 -14 -13
5 5 4 2 2 1 0 0 -0 -0 0 0 -0 -1 -2 -2 -6 -9 -9 -10 -7 -6 -6 -6 -6 -6 -7 -6 -5 -5 -5 -5 -5 -6 -7 -7 -8 -9 -10 -11 -12 -11 -11
3 2 1 1 0 -0 -1 -1 -1 -0 -1 -2 -3 -4 -5 -6 -10 -15 -14 -14 -8 -7 -7 -7 -7 -7 -7 -6 -5 -5 -5 -5 -5 -6 -7 -7 -9 -10 -11 -10 -11 -11 -11
1 0 0 -0 -1 -1 -0 -1 -4 -6 -8 -10 -10 -11 -13 -13 -9 -12 -12 -10 -9 -6 -5 -6 -6 -7 -6 -8 -7 -7 -5 -5 -5 -6 -7 -8 -9 -10 -12 -13 -11 -11 -12
-0 -1 -1 -1 -1 -2 -6 -10 -12 -10 -14 -14 -15 -16 -17 -13 -17 -23 -29 -27 -18 -14 -11 -9 -8 -7 -5 -6 -7 -6 -6 -6 -6 -7 -7 -8 -8 -9 -10 -10 -11 -11 -11
-1 -1 -2 -7 -11 -13 -14 -15 -15 -16 -19 -22 -22 -17 -11 -10 -11 -12 -15 -13 -14 -11 -10 -9 -8 -8 -7 -6 -6 -6 -6 -6 -6 -7 -7 -8 -8 -9 -11 -11 -11 -11 -11
-6 -10 -13 -14 -15 -17 -18 -22 -21 -21 -21 -14 -13 -11 -11 -10 -10 -10 -10 -14 -16 -10 -10 -11 -12 -11 -10 -10 -9 -7 -6 -6 -8 -7 -7 -8 -8 -8 -9 -9 -10 -10 -11
-12 -14 -16 -17 -20 -28 -29 -30 -19 -26 -27 -20 -12 -11 -11 -11 -11 -13 -13 -12 -12 -11 -10 -10 -11 -12 -10 -8 -7 -7 -6 -6 -7 -7 -8 -8 -8 -9 -9 -9 -10 -10 -10
-16 -18 -22 -28 -32 -27 -25 -33 -33 -30 -34 -33 -23 -26 -17 -13 -15 -24 -21 -18 -17 -12 -12 -11 -10 -9 -8 -7 -7 -7 -7 -7 -7 -7 -7 -8 -8 -9 -9 -9 -10 -10 -10
-21 -27 -30 -33 -34 -29 -20 -15 -25 -32 -32 -31 -29 -28 -27 -26 -26 -26 -26 -26 -21 -15 -11 -9 -8 -8 -8 -7 -8 -7 -7 -8 -8 -7 -8 -8 -9 -9 -9 -10 -10 -10 -10
-28 -30 -33 -34 -31 -29 -27 -24 -15 -13 -25 -26 -28 -27 -26 -25 -26 -26 -26 -25 -21 -16 -12 -12 -11 -9 -9 -7 -7 -7 -8 -8 -8 -8 -8 -8 -9 -9 -9 -9 -10 -10 -10
-30 -33 -34 -33 -31 -30 -29 -28 -22 -19 -15 -16 -18 -25 -26 -25 -24 -24 -24 -22 -15 -14 -13 -13 -13 -12 -11 -10 -9 -8 -8 -8 -8 -8 -8 -8 -9 -9 -9 -9 -10 -10 -10
-32 -34 -34 -32 -31 -31 -30 -28 -25 -21 -17 -17 -16 -17 -21 -24 -23 -21 -18 -15 -15 -15 -15 -15 -15 -14 -13 -12 -11 -10 -9 -9 -8 -8 -8 -9 -9 -9 -9 -9 -10 -10 -10
-33 -33 -32 -31 -30 -29 -28 -27 -24 -20 -18 -16 -15 -16 -22 -23 -19 -16 -16 -16 -16 -16 -16 -16 -16 -15 -14 -13 -12 -11 -10 -9 -8 -9 -9 -9 -9 -9 -9 -10 -11 -10 -11
-31 -31 -30 -29 -28 -28 -27 -25 -24 -22 -20 -19 -17 -18 -24 -25 -17 -17 -17 -17 -18 -18 -18 -17 -17 -16 -15 -14 -13 -12 -11 -10 -10 -9 -9 -9 -9 -10 -10 -10 -11 -10 -10
-31 -30 -29 -28 -27 -26 -25 -25 -24 -23 -22 -21 -21 -22 -28 -21 -18 -18 -18 -18 -19 -19 -19 -18 -18 -16 -15 -15 -14 -13 -12 -12 -11 -10 -10 -10 -10 -10 -10 -11 -11 -11 -11
-29 -28 -27 -26 -26 -25 -24 -24 -23 -23 -24 -26 -26 -24 -23 -21 -21 -19 -20 -20 -20 -20 -20 -20 -19 -18 -16 -15 -14 -14 -14 -13 -12 -11 -11 -11 -11 -10 -10 -11 -11 -11 -11
-28 -26 -25 -25 -25 -24 -23 -23 -23 -24 -27 -27 -26 -24 -21 -22 -21 -20 -20 -20 -21 -22 -22 -23 -22 -20 -18 -15 -14 -14 -14 -13 -12 -11 -11 -11 -11 -10 -10 -11 -11 -11 -11
-26 -25 -24 -24 -23 -23 -23 -22 -24 -27 -27 -26 -25 -24 -22 -22 -20 -21 -21 -21 -22 -22 -22 -22 -22 -21 -19 -17 -14 -14 -13 -13 -13 -12 -11 -10 -11 -11 -10 -10 -11 -11 -11
-25 -24 -23 -23 -22 -22 -22 -23 -27 -27 -26 -26 -25 -24 -23 -22 -21 -21 -22 -21 -20 -20 -20 -20 -20 -19 -19 -18 -15 -14 -13 -13 -12 -11 -11 -10 -11 -11 -10 -10 -10 -11 -11

GFSGL_850_dewp_057.txt.gz
Dewpoint
11 11 11 11 11 10 10 10 10 9 9 9 9 8 7 7 6 5 3 3 2 2 1 0 0 -1 -2 -3 -3 -4 -5 -5 -6 -7 -8 -8 -9 -8 -8 -8 -8 -8 -9
11 11 11 11 11 11 10 10 10 9 9 9 8 8 7 6 5 4 3 2 1 1 -0 0 -0 -1 -2 -3 -3 -4 -5 -6 -6 -7 -8 -8 -9 -9 -9 -9 -8 -10 -10
10 11 11 11 10 11 10 10 9 9 8 8 8 7 6 4 3 2 1 1 1 0 0 0 -0 -1 -2 -2 -3 -4 -5 -6 -7 -7 -7 -8 -8 -9 -9 -9 -8 -9 -10
11 11 11 10 10 9 8 7 8 8 7 7 7 6 4 3 2 1 1 1 0 -0 -0 -0 -1 -1 -2 -3 -4 -5 -5 -6 -6 -6 -6 -7 -7 -8 -9 -9 -8 -10 -10
9 9 9 9 8 8 8 8 7 7 6 6 5 4 2 1 1 1 1 1 -0 -1 -1 -1 -2 -3 -3 -4 -4 -5 -6 -6 -7 -7 -6 -6 -7 -7 -7 -8 -7 -9 -11
9 9 8 8 7 7 6 6 6 5 5 4 3 2 2 1 1 1 -0 -0 -1 -1 -3 -4 -4 -5 -5 -5 -5 -5 -5 -5 -6 -6 -6 -6 -6 -5 -6 -7 -7 -9 -11
7 7 6 5 5 4 3 3 3 2 1 1 1 1 1 0 -2 -2 -4 -6 -6 -5 -5 -5 -5 -6 -7 -7 -7 -7 -7 -6 -6 -6 -6 -6 -6 -5 -6 -7 -7 -9 -10
4 4 4 3 3 2 2 1 0 -0 0 -0 -0 -2 -2 -2 -3 -4 -7 -10 -10 -7 -7 -7 -7 -7 -7 -7 -7 -6 -6 -6 -6 -5 -5 -7 -6 -6 -6 -6 -8 -9 -10
3 2 3 2 2 1 1 1 0 0 -0 -1 -2 -3 -4 -5 -5 -6 -11 -12 -11 -9 -6 -6 -6 -6 -6 -7 -7 -7 -7 -6 -7 -7 -6 -5 -5 -6 -8 -7 -8 -9 -10
2 2 2 2 1 1 0 0 -1 -3 -5 -6 -6 -6 -6 -6 -4 -5 -9 -14 -25 -26 -19 -15 -17 -16 -14 -11 -8 -6 -6 -6 -7 -7 -5 -6 -6 -7 -7 -6 -8 -9 -10
1 1 0 -1 -1 -1 -3 -4 -6 -6 -5 -5 -10 -11 -10 -10 -10 -16 -28 -31 -24 -25 -27 -30 -24 -13 -11 -9 -8 -8 -8 -7 -6 -6 -6 -5 -6 -7 -8 -9 -10 -11 -10
-1 -2 -2 -4 -6 -5 -6 -7 -9 -10 -10 -11 -14 -16 -11 -11 -10 -12 -15 -18 -22 -24 -26 -27 -24 -22 -17 -13 -13 -13 -11 -11 -8 -7 -6 -6 -6 -6 -7 -7 -8 -10 -10
-3 -4 -6 -8 -10 -11 -11 -13 -13 -12 -12 -12 -14 -10 -10 -10 -10 -10 -15 -32 -31 -27 -25 -28 -28 -21 -16 -14 -12 -14 -12 -7 -8 -7 -6 -6 -6 -7 -7 -8 -9 -9 -9
-6 -7 -10 -12 -15 -16 -16 -16 -14 -14 -19 -15 -11 -10 -11 -13 -11 -16 -30 -29 -26 -28 -28 -28 -19 -11 -9 -9 -8 -9 -8 -7 -7 -7 -7 -7 -7 -7 -7 -8 -8 -8 -9
-9 -12 -14 -19 -16 -15 -17 -19 -26 -33 -36 -35 -22 -29 -26 -25 -19 -28 -27 -27 -27 -26 -26 -14 -11 -11 -10 -9 -9 -7 -7 -8 -8 -7 -7 -7 -8 -7 -7 -8 -8 -9 -9
-13 -15 -20 -24 -23 -16 -15 -16 -21 -25 -31 -34 -33 -31 -29 -28 -27 -26 -26 -26 -25 -24 -18 -12 -12 -12 -11 -10 -10 -9 -7 -9 -7 -7 -7 -8 -8 -7 -7 -8 -9 -9 -9
-14 -23 -28 -27 -17 -16 -21 -18 -13 -13 -19 -21 -24 -28 -29 -27 -26 -25 -25 -25 -20 -16 -12 -13 -12 -13 -12 -12 -11 -11 -10 -8 -8 -9 -8 -8 -8 -8 -8 -8 -9 -9 -9
-24 -27 -20 -16 -17 -24 -17 -21 -17 -13 -12 -11 -11 -16 -22 -26 -25 -25 -25 -22 -13 -13 -13 -13 -13 -13 -14 -14 -13 -13 -11 -10 -10 -8 -8 -8 -8 -8 -8 -8 -9 -9 -9
-21 -20 -25 -28 -33 -33 -32 -28 -22 -16 -13 -13 -13 -13 -13 -19 -26 -21 -14 -14 -14 -14 -14 -14 -14 -15 -15 -15 -14 -14 -13 -11 -10 -8 -8 -8 -8 -8 -8 -8 -9 -9 -9
-29 -33 -32 -28 -27 -26 -24 -21 -15 -14 -13 -13 -13 -13 -14 -24 -29 -15 -14 -15 -15 -15 -16 -16 -16 -16 -16 -16 -16 -15 -13 -12 -11 -10 -9 -8 -9 -9 -9 -8 -9 -9 -10
-15 -29 -32 -28 -21 -22 -22 -19 -17 -15 -13 -13 -14 -14 -18 -26 -19 -15 -16 -16 -16 -17 -17 -17 -18 -18 -18 -17 -17 -16 -15 -14 -13 -12 -11 -9 -9 -9 -9 -9 -9 -9 -10
-30 -31 -30 -27 -25 -24 -25 -23 -19 -15 -14 -14 -15 -15 -17 -17 -16 -16 -17 -17 -18 -18 -18 -18 -19 -19 -19 -19 -18 -17 -16 -15 -14 -13 -12 -11 -10 -10 -9 -9 -9 -10 -10
-31 -30 -28 -27 -26 -26 -22 -18 -16 -15 -16 -16 -16 -16 -17 -17 -17 -18 -18 -19 -19 -19 -20 -20 -20 -20 -20 -19 -19 -18 -17 -15 -15 -15 -14 -12 -11 -11 -10 -10 -10 -10 -10
-29 -29 -27 -25 -22 -24 -17 -17 -16 -16 -18 -17 -17 -17 -18 -18 -18 -19 -19 -19 -20 -20 -21 -21 -20 -20 -20 -20 -18 -18 -16 -15 -15 -14 -14 -13 -12 -11 -10 -10 -10 -10 -11
-28 -26 -24 -20 -16 -16 -17 -17 -17 -18 -18 -18 -18 -18 -19 -19 -19 -20 -20 -21 -21 -21 -21 -20 -20 -20 -20 -19 -19 -18 -16 -15 -14 -14 -14 -13 -12 -11 -11 -10 -10 -10 -11
-24 -23 -22 -18 -17 -17 -18 -18 -18 -19 -19 -19 -19 -20 -20 -20 -20 -21 -21 -22 -22 -21 -21 -20 -20 -19 -19 -18 -18 -19 -18 -15 -14 -14 -14 -13 -12 -11 -11 -10 -10 -10 -11

GFSGL_850_dewp_060.txt.gz
Dewpoint
11 11 10 10 11 10 9 9 8 10 9 10 8 8 8 8 6 6 6 6 4 3 2 2 1 1 -0 0 -1 -2 -3 -3 -4 -4 -5 -6 -7 -7 -8 -8 -8 -8 -8
11 11 11 11 11 8 9 10 9 10 9 9 8 8 8 7 6 6 5 4 3 2 2 1 -0 -0 -0 -0 -1 -2 -3 -3 -3 -5 -6 -6 -6 -7 -7 -8 -9 -9 -9
10 9 10 9 9 10 10 10 10 9 9 8 8 7 7 6 5 5 3 2 2 2 0 0 0 0 0 -0 -1 -2 -2 -3 -3 -4 -4 -5 -6 -6 -6 -7 -8 -8 -8
10 10 9 10 10 10 10 9 9 8 8 7 7 7 5 5 4 3 2 2 2 1 0 -0 -1 -0 -1 -2 -2 -3 -2 -3 -3 -3 -4 -4 -5 -5 -5 -6 -7 -7 -8
10 10 10 10 9 9 8 8 7 7 7 7 6 6 4 3 2 2 1 1 1 0 -1 -2 -2 -2 -2 -3 -3 -4 -4 -5 -5 -5 -5 -5 -6 -6 -5 -5 -6 -5 -7
10 10 10 9 8 8 7 6 6 6 5 5 4 3 3 2 1 1 1 0 -1 -1 -2 -2 -4 -5 -6 -5 -5 -5 -6 -6 -6 -6 -5 -5 -5 -5 -6 -7 -5 -5 -5
9 9 8 7 6 6 5 4 4 3 2 1 1 1 1 1 -1 -2 -4 -6 -8 -9 -11 -10 -8 -6 -6 -6 -6 -6 -6 -6 -6 -5 -5 -5 -5 -5 -7 -6 -5 -5 -6
7 6 5 5 4 3 3 2 1 0 0 0 -0 -1 -2 -1 -3 -4 -5 -6 -8 -14 -14 -11 -8 -8 -8 -6 -6 -6 -6 -6 -6 -5 -5 -6 -6 -6 -7 -6 -6 -6 -7
4 4 3 3 3 2 2 1 2 1 -0 -1 -2 -2 -4 -4 -5 -6 -8 -12 -13 -18 -28 -31 -30 -30 -30 -31 -28 -22 -21 -18 -13 -10 -7 -6 -7 -8 -7 -5 -6 -6 -6
3 3 3 2 2 2 2 0 0 -1 -2 -5 -6 -6 -6 -6 -5 -11 -18 -23 -31 -33 -35 -36 -39 -38 -38 -36 -31 -21 -15 -19 -15 -14 -14 -13 -8 -6 -7 -6 -5 -6 -7
2 2 2 2 1 1 -0 -2 -4 -6 -6 -7 -10 -11 -13 -13 -16 -25 -30 -34 -33 -36 -38 -38 -38 -36 -35 -35 -25 -17 -16 -14 -13 -10 -13 -12 -13 -7 -7 -7 -8 -8 -6
1 1 -0 -1 -2 -3 -4 -6 -6 -7 -9 -14 -19 -20 -19 -15 -15 -24 -33 -32 -33 -36 -36 -35 -35 -35 -33 -21 -12 -10 -8 -8 -8 -9 -9 -8 -7 -10 -9 -6 -7 -7 -10
-1 -2 -3 -4 -5 -6 -7 -10 -11 -13 -14 -16 -19 -21 -12 -12 -14 -23 -30 -31 -35 -34 -33 -32 -32 -31 -22 -17 -10 -10 -9 -8 -7 -8 -8 -8 -7 -7 -8 -6 -7 -8 -8
-2 -4 -6 -8 -11 -12 -13 -14 -15 -16 -18 -22 -20 -17 -19 -23 -29 -31 -33 -34 -33 -31 -30 -30 -28 -18 -15 -16 -16 -13 -10 -9 -8 -6 -7 -8 -7 -6 -6 -7 -7 -7 -8
-5 -7 -9 -12 -15 -14 -15 -17 -21 -25 -32 -32 -30 -30 -35 -34 -34 -33 -31 -31 -29 -28 -27 -25 -15 -13 -15 -17 -18 -13 -12 -12 -9 -8 -7 -7 -7 -6 -8 -7 -7 -7 -7
-9 -11 -14 -18 -15 -14 -18 -19 -24 -26 -29 -32 -33 -33 -33 -33 -32 -30 -29 -28 -27 -25 -22 -14 -13 -13 -14 -14 -14 -14 -14 -13 -12 -10 -8 -8 -7 -7 -8 -8 -8 -7 -8
-11 -12 -15 -20 -20 -19 -16 -17 -17 -15 -17 -22 -26 -27 -31 -31 -30 -27 -28 -28 -24 -15 -13 -13 -13 -14 -14 -14 -14 -14 -14 -14 -12 -11 -9 -8 -8 -9 -8 -8 -8 -8 -8
-13 -19 -18 -16 -18 -21 -20 -17 -17 -14 -13 -15 -14 -16 -18 -19 -24 -25 -27 -22 -16 -16 -15 -15 -15 -15 -15 -15 -15 -15 -15 -15 -14 -12 -11 -10 -8 -8 -9 -8 -8 -8 -8
-17 -15 -16 -19 -22 -25 -26 -29 -26 -21 -18 -14 -13 -12 -12 -13 -17 -26 -17 -14 -15 -16 -15 -15 -16 -16 -16 -16 -17 -16 -16 -16 -15 -14 -13 -11 -10 -8 -8 -8 -8 -8 -8
-21 -23 -29 -30 -31 -31 -28 -26 -21 -18 -16 -14 -14 -13 -13 -16 -20 -26 -15 -15 -16 -16 -16 -17 -17 -17 -17 -18 -17 -17 -17 -17 -16 -15 -14 -13 -11 -10 -8 -9 -9 -8 -8
-15 -15 -19 -30 -28 -27 -26 -24 -22 -21 -20 -17 -15 -15 -15 -17 -20 -17 -15 -16 -16 -16 -18 -18 -18 -18 -18 -18 -18 -18 -18 -18 -16 -16 -15 -14 -12 -11 -10 -9 -9 -9 -8
-9 -20 -27 -28 -26 -27 -27 -25 -24 -23 -19 -16 -14 -15 -15 -16 -16 -16 -17 -17 -17 -18 -18 -18 -19 -19 -19 -19 -19 -20 -19 -19 -18 -17 -16 -15 -14 -12 -11 -10 -9 -8 -8
-16 -21 -27 -28 -27 -27 -26 -22 -19 -18 -14 -15 -17 -17 -16 -16 -16 -17 -18 -18 -18 -19 -19 -20 -20 -20 -20 -20 -20 -20 -20 -19 -18 -17 -17 -16 -14 -13 -12 -11 -10 -9 -9
-23 -28 -27 -26 -26 -25 -22 -18 -18 -17 -16 -17 -16 -17 -17 -17 -18 -18 -18 -19 -19 -20 -21 -20 -20 -21 -20 -20 -20 -19 -19 -18 -18 -18 -18 -16 -15 -14 -13 -12 -10 -10 -9
-25 -27 -26 -23 -20 -17 -17 -17 -16 -16 -17 -17 -17 -18 -18 -18 -19 -19 -19 -20 -20 -21 -21 -21 -21 -21 -20 -20 -19 -18 -18 -18 -17 -17 -16 -15 -15 -14 -13 -12 -11 -10 -10
-21 -19 -19 -18 -18 -16 -17 -17 -17 -17 -18 -18 -18 -19 -19 -20 -20 -20 -21 -21 -21 -21 -21 -21 -21 -20 -19 -19 -18 -18 -18 -17 -17 -17 -16 -15 -14 -14 -13 -12 -11 -10 -10

GFSGL_850_dewp_063.txt.gz
Dewpoint
8 8 8 8 8 8 8 8 8 6 8 8 9 9 9 8 7 8 7 6 6 6 5 4 3 2 1 1 0 0 0 -1 -2 -3 -3 -3 -4 -5 -6 -6 -7 -7 -8
9 9 9 9 9 9 9 9 8 10 9 9 9 9 8 8 7 7 6 6 6 4 3 2 2 1 1 0 0 0 -2 -2 -2 -3 -3 -3 -4 -5 -4 -5 -5 -6 -6
10 10 10 8 6 9 8 10 10 9 9 9 8 8 7 7 7 6 5 5 4 3 2 2 1 1 0 -0 -1 -2 -3 -3 -3 -2 -2 -2 -3 -3 -3 -3 -4 -3 -4
8 9 9 9 8 10 10 10 10 9 8 8 8 7 8 7 6 5 4 3 2 2 2 1 0 -1 -2 -2 -2 -2 -3 -3 -3 -3 -4 -4 -4 -4 -4 -4 -5 -6 -7
8 9 10 10 11 10 9 9 8 8 8 8 7 7 6 5 4 3 3 2 2 1 1 -1 -2 -2 -2 -3 -4 -5 -5 -5 -5 -5 -5 -5 -5 -5 -5 -5 -5 -5 -5
9 10 10 10 10 10 9 9 8 8 7 6 6 5 5 4 3 2 2 1 1 -0 -2 -4 -5 -6 -7 -9 -8 -7 -6 -6 -6 -5 -5 -5 -5 -5 -4 -4 -5 -4 -4
10 10 10 9 9 8 8 7 7 6 5 5 3 2 2 2 1 1 -0 -3 -6 -8 -10 -12 -13 -13 -12 -11 -11 -11 -10 -8 -7 -6 -7 -7 -7 -5 -5 -5 -5 -6 -6
9 9 9 8 8 7 6 5 5 4 2 0 0 1 0 -1 -2 -3 -5 -7 -9 -10 -11 -12 -14 -20 -26 -32 -36 -38 -38 -38 -38 -35 -30 -25 -18 -11 -8 -6 -5 -7 -6
8 8 7 7 6 5 4 3 2 0 -1 -1 -1 -1 -1 -2 -3 -4 -6 -7 -9 -11 -22 -30 -33 -37 -38 -39 -39 -39 -39 -38 -23 -16 -15 -17 -18 -18 -20 -15 -7 -6 -5
7 6 5 4 3 3 2 2 1 -1 -1 -1 -2 -3 -4 -4 -6 -9 -9 -10 -23 -30 -33 -37 -38 -38 -38 -37 -36 -28 -22 -16 -11 -11 -12 -12 -14 -19 -12 -11 -10 -7 -5
5 4 3 3 3 2 2 -0 -1 -1 -2 -4 -4 -5 -6 -8 -11 -13 -18 -26 -34 -35 -37 -38 -38 -38 -37 -34 -29 -21 -14 -11 -10 -9 -10 -9 -10 -10 -8 -7 -9 -6 -6
3 3 3 2 2 1 -0 -1 -1 -3 -4 -6 -6 -7 -10 -15 -19 -23 -27 -34 -35 -37 -38 -38 -37 -36 -33 -29 -29 -28 -24 -16 -12 -10 -10 -9 -8 -7 -8 -8 -7 -9 -7
3 2 2 1 1 0 -1 -4 -5 -6 -7 -10 -15 -16 -16 -18 -19 -21 -32 -33 -35 -36 -36 -35 -33 -31 -28 -29 -26 -27 -27 -18 -14 -12 -10 -9 -8 -7 -7 -7 -8 -7 -6
2 1 0 -1 -3 -3 -5 -6 -8 -12 -14 -16 -16 -19 -18 -19 -21 -30 -34 -36 -36 -35 -35 -33 -31 -27 -25 -24 -25 -26 -25 -22 -16 -13 -12 -10 -8 -8 -8 -8 -7 -7 -7
-0 -1 -3 -5 -5 -7 -8 -11 -13 -14 -16 -20 -23 -24 -23 -30 -35 -35 -35 -34 -33 -32 -32 -30 -28 -25 -23 -22 -22 -22 -22 -22 -20 -15 -13 -11 -9 -8 -7 -7 -7 -8 -7
-2 -4 -6 -9 -11 -12 -14 -16 -15 -17 -23 -29 -32 -34 -35 -34 -33 -33 -32 -31 -30 -30 -28 -23 -19 -17 -17 -18 -19 -21 -20 -19 -18 -16 -14 -12 -10 -9 -8 -8 -7 -7 -8
-4 -8 -11 -13 -13 -14 -15 -17 -20 -19 -19 -20 -24 -27 -28 -30 -30 -30 -28 -30 -30 -29 -21 -18 -17 -17 -17 -19 -20 -19 -20 -19 -18 -16 -15 -13 -12 -11 -9 -8 -8 -7 -8
-9 -11 -13 -13 -14 -14 -15 -16 -18 -18 -18 -21 -21 -19 -21 -24 -24 -20 -24 -27 -25 -26 -24 -21 -19 -18 -20 -21 -20 -20 -20 -20 -18 -17 -16 -14 -13 -13 -11 -9 -8 -8 -8
-11 -11 -13 -14 -15 -17 -19 -19 -20 -21 -22 -20 -16 -14 -14 -14 -14 -15 -16 -24 -21 -18 -19 -19 -18 -20 -21 -20 -19 -20 -20 -20 -19 -18 -17 -15 -15 -14 -12 -11 -9 -8 -8
-13 -15 -14 -15 -24 -26 -18 -14 -22 -24 -21 -17 -15 -14 -13 -13 -13 -15 -21 -21 -17 -17 -17 -17 -19 -22 -21 -21 -21 -20 -20 -21 -21 -19 -17 -16 -16 -15 -14 -12 -11 -10 -9
-10 -10 -13 -9 -7 -8 -9 -11 -20 -24 -22 -19 -16 -15 -14 -15 -16 -18 -18 -16 -17 -17 -18 -19 -22 -22 -22 -21 -21 -21 -20 -21 -20 -20 -18 -17 -16 -15 -14 -13 -12 -10 -9
-7 -8 -8 -9 -9 -10 -11 -17 -23 -23 -21 -18 -17 -16 -15 -15 -16 -17 -16 -16 -17 -18 -19 -20 -21 -22 -22 -21 -20 -20 -20 -20 -20 -20 -19 -18 -17 -16 -15 -14 -12 -11 -10
-9 -9 -10 -11 -11 -12 -18 -23 -22 -20 -19 -17 -15 -15 -17 -17 -17 -17 -17 -17 -18 -19 -19 -21 -23 -22 -21 -21 -21 -20 -20 -20 -19 -19 -19 -18 -17 -16 -15 -14 -13 -12 -11
-10 -11 -12 -13 -13 -15 -20 -21 -19 -17 -18 -17 -16 -17 -17 -17 -17 -18 -18 -18 -19 -19 -21 -23 -22 -22 -21 -21 -20 -20 -19 -19 -19 -19 -19 -18 -17 -16 -15 -14 -14 -13 -11
-12 -13 -14 -15 -16 -16 -15 -16 -16 -16 -16 -17 -17 -17 -18 -18 -18 -19 -19 -20 -20 -22 -23 -23 -22 -21 -21 -21 -20 -19 -19 -18 -18 -18 -18 -17 -17 -16 -15 -14 -13 -13 -12
-14 -15 -15 -16 -16 -17 -17 -17 -17 -17 -18 -18 -18 -19 -19 -19 -20 -20 -20 -21 -22 -24 -24 -23 -22 -21 -21 -20 -19 -19 -19 -19 -18 -17 -17 -17 -16 -16 -14 -14 -13 -13 -12

GFSGL_850_dewp_066.txt.gz
Dewpoint
6 5 6 7 7 8 8 9 10 9 8 5 7 6 8 8 9 8 8 7 7 7 6 5 5 5 3 2 2 1 0 0 0 -0 -2 -2 -3 -3 -3 -3 -3 -4 -5
8 8 8 8 9 8 9 9 8 5 7 9 7 7 10 9 8 8 7 7 7 6 5 5 4 3 2 2 1 1 1 -0 -1 -3 -3 -3 -3 -3 -3 -3 -3 -3 -4
9 9 9 9 9 9 9 10 7 6 5 6 9 9 9 8 8 7 7 7 6 5 4 4 2 2 2 1 -0 -0 -1 -2 -2 -3 -3 -3 -4 -4 -3 -3 -4 -3 -3
8 6 10 10 9 6 6 7 7 8 8 10 9 9 8 8 7 7 6 6 5 4 3 2 1 1 -0 -2 -2 -2 -2 -2 -3 -4 -5 -5 -5 -5 -5 -5 -5 -5 -5
9 5 5 7 8 10 9 8 10 10 9 8 8 8 8 8 7 6 5 4 3 2 2 1 0 -1 -2 -2 -3 -4 -4 -4 -5 -5 -5 -6 -6 -6 -6 -6 -5 -5 -6
9 7 7 6 10 10 10 10 10 9 8 8 8 7 7 6 5 4 4 3 2 1 1 0 -2 -4 -4 -5 -7 -8 -8 -7 -7 -8 -8 -11 -18 -24 -25 -18 -9 -7 -6
9 8 8 10 10 10 9 8 8 8 7 7 6 6 5 4 4 3 2 1 1 1 -2 -8 -11 -13 -15 -16 -16 -16 -20 -28 -35 -37 -37 -36 -29 -22 -21 -22 -17 -11 -8
10 10 10 9 9 8 8 8 7 6 6 5 5 4 3 3 2 1 1 -1 -4 -9 -12 -14 -15 -17 -21 -32 -36 -38 -39 -39 -39 -37 -28 -21 -15 -15 -13 -12 -13 -14 -16
10 10 9 8 8 8 7 6 6 5 4 4 2 1 1 1 0 -1 -3 -7 -9 -10 -12 -15 -26 -33 -37 -38 -38 -38 -38 -37 -34 -31 -31 -28 -15 -11 -10 -9 -10 -8 -8
10 9 8 8 8 7 6 6 5 4 1 0 -0 -1 -1 -2 -2 -3 -5 -7 -10 -13 -26 -30 -36 -37 -38 -38 -38 -37 -36 -36 -36 -35 -31 -27 -20 -14 -10 -8 -8 -9 -9
8 8 8 7 6 6 4 3 2 0 -1 -1 -1 -1 -2 -3 -5 -5 -7 -11 -18 -28 -33 -36 -37 -37 -37 -37 -36 -33 -33 -34 -33 -34 -34 -27 -16 -10 -11 -9 -8 -8 -9
7 7 6 5 4 3 2 2 0 -1 -1 -1 -2 -4 -5 -5 -7 -9 -14 -19 -27 -33 -36 -36 -36 -36 -35 -35 -32 -33 -33 -32 -33 -33 -32 -25 -16 -11 -10 -8 -8 -8 -8
6 5 4 3 3 2 2 0 -0 -1 -1 -3 -4 -5 -7 -8 -10 -14 -16 -21 -30 -34 -35 -35 -35 -34 -33 -32 -32 -32 -30 -30 -30 -30 -28 -24 -16 -12 -10 -9 -8 -8 -8
4 3 3 3 2 1 0 -0 -0 -1 -4 -5 -5 -6 -9 -13 -15 -16 -17 -25 -32 -34 -33 -33 -33 -32 -30 -30 -28 -28 -29 -28 -27 -26 -25 -22 -16 -12 -11 -9 -8 -8 -7
3 3 2 2 1 1 -1 -4 -5 -5 -5 -6 -9 -12 -14 -15 -15 -16 -27 -32 -33 -33 -32 -32 -29 -28 -30 -29 -28 -28 -28 -28 -28 -26 -24 -22 -17 -13 -11 -10 -8 -8 -7
3 2 1 0 -1 -3 -5 -7 -9 -10 -11 -12 -13 -14 -14 -15 -19 -29 -32 -31 -30 -31 -31 -28 -26 -27 -29 -27 -27 -27 -26 -26 -27 -26 -23 -21 -17 -14 -12 -11 -9 -8 -8
2 -0 -3 -4 -4 -6 -8 -10 -11 -12 -14 -19 -22 -24 -27 -29 -26 -26 -28 -27 -28 -30 -26 -24 -25 -25 -25 -25 -25 -25 -24 -24 -24 -24 -23 -20 -17 -15 -14 -13 -11 -9 -9
-1 -4 -7 -10 -12 -13 -14 -15 -16 -17 -17 -16 -16 -17 -21 -22 -22 -21 -20 -20 -21 -24 -25 -23 -22 -22 -22 -23 -24 -23 -24 -24 -24 -23 -24 -21 -18 -16 -15 -14 -13 -12 -10
-6 -10 -10 -9 -10 -10 -11 -10 -9 -15 -14 -10 -10 -10 -11 -15 -15 -15 -15 -14 -16 -21 -20 -20 -21 -21 -22 -24 -24 -24 -24 -24 -23 -22 -24 -23 -19 -17 -16 -15 -14 -13 -12
-7 -6 -6 -7 -9 -9 -8 -9 -11 -10 -9 -10 -11 -12 -12 -12 -12 -13 -13 -16 -19 -18 -18 -18 -19 -21 -23 -24 -24 -24 -23 -22 -22 -22 -22 -22 -20 -18 -16 -15 -14 -14 -12
-5 -7 -7 -7 -7 -8 -9 -8 -9 -10 -11 -11 -12 -12 -12 -13 -13 -14 -16 -18 -17 -17 -18 -18 -20 -21 -23 -23 -23 -22 -22 -22 -21 -21 -21 -21 -20 -18 -17 -16 -15 -14 -13
-7 -8 -8 -9 -9 -9 -10 -10 -11 -12 -12 -13 -13 -14 -14 -14 -15 -15 -16 -16 -16 -17 -18 -19 -19 -20 -22 -23 -22 -22 -21 -21 -21 -20 -20 -20 -20 -19 -18 -17 -15 -15 -14
-8 -9 -9 -10 -11 -11 -12 -12 -13 -14 -14 -14 -15 -15 -15 -15 -16 -16 -17 -17 -17 -18 -18 -19 -20 -21 -23 -22 -22 -21 -21 -20 -20 -19 -19 -19 -19 -18 -18 -17 -15 -15 -14
-10 -11 -11 -12 -13 -13 -14 -14 -15 -15 -15 -16 -16 -16 -17 -17 -17 -17 -18 -18 -19 -19 -19 -20 -21 -23 -23 -22 -21 -21 -20 -19 -19 -19 -19 -19 -18 -18 -17 -17 -16 -15 -14
-12 -13 -13 -14 -15 -15 -16 -16 -16 -16 -17 -17 -17 -18 -18 -18 -18 -19 -19 -20 -20 -21 -21 -21 -23 -24 -23 -22 -21 -20 -20 -19 -19 -19 -19 -19 -18 -17 -16 -16 -15 -15 -14
-14 -15 -15 -16 -16 -17 -17 -18 -18 -18 -18 -19 -19 -19 -19 -20 -20 -21 -21 -22 -22 -22 -23 -23 -25 -24 -22 -21 -21 -20 -19 -19 -19 -19 -19 -18 -18 -17 -16 -15 -15 -15 -14

GFSGL_850_dewp_069.txt.gz
Dewpoint
2 2 3 4 4 5 5 6 7 8 8 9 9 7 8 8 8 8 9 8 7 6 6 7 6 5 5 5 4 3 2 2 1 1 0 -1 -3 -3 -4 -5 -5 -4 -3
2 1 1 1 2 3 4 6 6 7 8 5 6 5 8 9 8 8 9 9 8 7 6 6 6 5 4 4 3 2 2 1 1 0 -1 -2 -3 -4 -5 -5 -6 -6 -5
5 5 5 6 3 4 4 5 7 8 8 4 3 7 9 9 8 9 9 9 7 7 7 6 5 4 3 2 2 2 1 1 0 -1 -2 -3 -3 -4 -6 -8 -7 -7 -6
8 7 7 7 7 7 8 8 8 10 10 7 6 6 6 7 9 9 8 8 7 7 5 5 4 3 2 2 2 1 -1 -3 -3 -3 -4 -5 -7 -10 -10 -11 -15 -21 -25
8 8 8 8 8 9 9 9 7 8 9 8 9 8 8 9 9 9 8 7 7 5 4 4 2 2 2 1 -0 -3 -5 -6 -8 -8 -10 -13 -16 -22 -33 -37 -34 -31 -27
8 9 9 9 9 10 10 9 8 7 7 8 8 9 8 8 8 8 7 6 5 4 4 2 2 1 1 -1 -3 -6 -9 -13 -13 -15 -24 -36 -38 -37 -30 -21 -17 -17 -14
9 9 9 9 10 7 9 9 8 8 9 9 8 8 8 8 7 7 6 5 4 3 2 1 1 0 -2 -7 -11 -15 -16 -20 -32 -38 -38 -37 -34 -33 -29 -21 -12 -10 -9
8 9 10 10 9 9 8 9 10 9 9 9 8 8 7 7 6 5 4 3 2 1 1 1 -1 -6 -11 -14 -16 -25 -35 -38 -38 -37 -36 -38 -37 -35 -30 -16 -11 -10 -11
9 9 9 10 9 9 10 10 9 9 8 8 7 6 6 5 4 3 2 2 1 1 -1 -7 -10 -12 -16 -28 -36 -37 -38 -37 -37 -37 -38 -39 -37 -35 -25 -17 -13 -9 -9
9 9 10 9 9 9 9 9 8 8 7 6 6 5 4 3 2 1 1 0 -2 -6 -9 -10 -14 -25 -33 -37 -37 -37 -37 -35 -36 -37 -37 -37 -37 -34 -21 -12 -10 -8 -8
9 9 9 10 9 9 8 8 7 6 5 4 4 2 1 1 -0 -1 -1 -3 -6 -7 -10 -19 -29 -35 -37 -37 -37 -36 -33 -34 -34 -35 -35 -36 -34 -33 -27 -15 -10 -9 -9
9 9 9 8 8 7 7 6 5 4 3 2 1 0 -1 -1 -2 -2 -3 -5 -7 -13 -22 -31 -35 -36 -36 -35 -33 -32 -32 -35 -34 -34 -35 -35 -33 -33 -31 -22 -13 -10 -9
9 8 8 7 6 6 5 4 3 2 1 0 -0 -1 -2 -2 -3 -5 -6 -8 -14 -21 -31 -35 -35 -34 -32 -29 -27 -29 -31 -31 -33 -35 -36 -36 -34 -31 -28 -23 -15 -10 -9
7 7 6 5 4 3 2 2 2 1 -0 -0 -1 -1 -2 -4 -6 -7 -11 -13 -17 -28 -33 -32 -32 -30 -29 -26 -26 -28 -30 -32 -34 -34 -35 -35 -34 -30 -28 -22 -15 -11 -9
5 5 4 3 3 2 1 1 0 0 -0 -1 -3 -4 -5 -6 -8 -11 -13 -15 -27 -33 -31 -30 -28 -26 -24 -25 -28 -28 -30 -32 -32 -32 -32 -32 -32 -30 -28 -22 -15 -12 -10
4 3 3 2 2 1 1 0 -1 -2 -4 -5 -6 -7 -9 -10 -12 -13 -14 -25 -31 -29 -29 -26 -24 -23 -23 -25 -27 -27 -29 -30 -30 -29 -29 -27 -28 -29 -25 -20 -16 -13 -11
3 3 2 2 1 1 -1 -3 -4 -7 -8 -8 -11 -11 -12 -13 -14 -21 -26 -22 -23 -25 -24 -22 -22 -22 -23 -23 -24 -25 -27 -28 -28 -27 -26 -25 -25 -27 -23 -19 -16 -15 -13
3 2 1 0 -2 -4 -6 -7 -7 -7 -10 -13 -17 -19 -18 -19 -19 -17 -15 -15 -15 -15 -17 -20 -20 -20 -20 -21 -22 -24 -26 -27 -27 -25 -24 -24 -24 -24 -23 -20 -17 -15 -14
0 -2 -2 -4 -6 -6 -6 -6 -7 -7 -7 -8 -8 -9 -9 -9 -10 -11 -11 -12 -12 -13 -15 -18 -17 -18 -20 -20 -23 -24 -26 -27 -25 -23 -23 -23 -22 -23 -22 -19 -17 -16 -15
-6 -6 -6 -5 -5 -6 -6 -7 -7 -8 -8 -9 -9 -10 -11 -11 -12 -12 -13 -13 -14 -14 -15 -15 -16 -16 -17 -20 -22 -25 -26 -25 -23 -23 -22 -22 -21 -21 -21 -19 -18 -16 -15
-5 -5 -6 -6 -7 -8 -8 -8 -9 -9 -10 -11 -11 -12 -12 -13 -13 -13 -14 -14 -15 -15 -16 -16 -17 -18 -19 -20 -22 -25 -25 -23 -23 -22 -21 -21 -20 -20 -20 -20 -18 -17 -16
-6 -7 -8 -8 -9 -9 -10 -10 -11 -11 -12 -12 -13 -13 -14 -14 -14 -15 -15 -16 -16 -17 -17 -17 -18 -18 -19 -20 -23 -24 -23 -23 -22 -21 -20 -20 -20 -19 -19 -18 -18 -17 -16
-8 -9 -10 -10 -11 -11 -12 -12 -13 -13 -14 -14 -15 -15 -15 -16 -16 -17 -17 -17 -18 -18 -18 -19 -19 -20 -20 -21 -23 -23 -22 -22 -21 -20 -20 -19 -19 -19 -18 -18 -17 -17 -16
-10 -11 -11 -12 -12 -13 -13 -14 -15 -15 -16 -16 -16 -17 -17 -17 -18 -18 -18 -19 -19 -19 -20 -20 -21 -21 -21 -23 -24 -23 -22 -21 -21 -20 -20 -20 -19 -19 -18 -18 -17 -16 -16
-12 -12 -13 -14 -14 -15 -15 -16 -16 -17 -17 -18 -18 -18 -19 -19 -19 -20 -20 -21 -21 -22 -23 -22 -22 -22 -23 -24 -25 -22 -21 -20 -20 -20 -20 -20 -20 -19 -18 -18 -17 -16 -16
-14 -15 -16 -16 -17 -18 -18 -18 -19 -19 -19 -19 -20 -20 -20 -21 -21 -21 -22 -22 -23 -23 -23 -23 -23 -24 -24 -25 -24 -21 -21 -20 -20 -20 -20 -20 -19 -19 -18 -18 -17 -16 -16

GFSGL_850_dewp_072.txt.gz
Dewpoint
1 2 4 4 4 4 3 3 3 3 2 3 4 6 8 8 8 7 7 8 8 9 9 7 7 6 7 6 5 5 5 4 3 2 2 2 1 -0 -2 -5 -5 -7 -8
0 -1 -1 -1 -0 -1 -1 0 1 2 4 5 7 7 8 7 8 5 6 9 8 9 8 7 6 5 7 6 5 5 4 3 2 2 2 0 0 -2 -5 -7 -10 -16 -18
6 2 -0 -1 -1 -0 0 1 3 3 4 5 6 5 8 5 7 7 7 8 8 9 8 8 7 7 6 6 5 4 3 2 2 1 1 -0 -3 -8 -11 -17 -25 -32 -36
7 6 4 2 1 1 2 3 3 4 3 6 6 7 8 4 4 6 7 8 8 8 8 7 7 6 6 5 4 3 2 2 0 -1 -3 -6 -11 -18 -25 -35 -36 -36 -37
7 7 7 6 4 3 3 3 4 6 7 7 6 7 9 6 8 8 7 8 8 8 7 6 6 5 5 3 2 2 1 -0 -3 -6 -9 -16 -23 -35 -37 -37 -37 -38 -38
7 7 7 8 8 7 6 6 6 6 8 9 8 8 9 9 9 8 8 8 8 7 7 5 5 4 3 2 1 1 -1 -5 -8 -14 -20 -35 -37 -37 -37 -38 -39 -39 -36
3 6 8 8 8 8 8 8 8 8 9 9 9 9 9 8 9 9 8 7 7 6 5 5 4 3 1 0 0 -2 -7 -14 -17 -30 -37 -37 -37 -37 -38 -39 -39 -35 -30
4 6 7 8 8 9 9 9 9 9 8 9 9 8 8 8 8 8 8 7 6 5 4 3 2 1 1 -0 -4 -12 -15 -25 -36 -37 -37 -37 -37 -38 -38 -36 -33 -26 -22
4 6 6 7 8 9 9 10 10 9 9 8 8 8 8 8 8 7 6 5 4 3 2 1 1 -0 -2 -8 -12 -19 -33 -37 -37 -37 -36 -37 -37 -38 -36 -33 -28 -19 -25
5 6 7 8 9 9 9 9 8 8 8 8 8 7 6 6 5 4 4 3 2 2 1 0 -1 -6 -10 -14 -27 -35 -37 -36 -36 -35 -36 -36 -37 -37 -36 -33 -29 -21 -15
7 8 9 10 9 9 9 8 8 8 8 7 6 5 4 4 3 2 1 1 1 0 -1 -5 -8 -12 -23 -32 -36 -36 -36 -36 -36 -36 -37 -37 -38 -37 -37 -35 -31 -23 -15
9 10 9 9 9 9 9 8 8 6 6 5 4 4 3 2 1 1 0 -0 -1 -3 -6 -8 -16 -26 -33 -35 -36 -36 -35 -35 -35 -35 -36 -36 -37 -37 -37 -35 -32 -27 -18
9 9 9 9 9 8 7 7 6 5 5 4 4 3 2 1 0 -1 -2 -2 -4 -6 -10 -17 -26 -33 -35 -35 -34 -30 -31 -31 -32 -33 -34 -35 -35 -35 -35 -34 -32 -29 -26
9 9 8 8 7 7 6 5 5 4 4 3 3 1 1 -0 -1 -2 -3 -4 -7 -11 -17 -27 -33 -33 -32 -32 -28 -23 -26 -30 -31 -32 -33 -33 -33 -32 -32 -32 -32 -30 -29
8 7 7 6 5 4 3 3 3 2 2 2 1 0 -1 -1 -2 -4 -6 -8 -13 -16 -25 -32 -31 -30 -27 -21 -19 -24 -27 -28 -29 -30 -31 -31 -31 -31 -30 -30 -29 -27 -22
6 5 5 4 3 3 2 2 1 1 1 0 -0 -1 -1 -4 -5 -5 -6 -10 -13 -19 -29 -23 -23 -22 -20 -23 -23 -25 -26 -27 -28 -29 -30 -30 -29 -29 -29 -28 -28 -26 -22
4 4 4 3 3 2 2 1 1 -1 -2 -3 -4 -5 -5 -6 -6 -7 -9 -11 -22 -24 -15 -14 -18 -22 -21 -22 -21 -17 -20 -21 -24 -20 -27 -28 -27 -27 -26 -26 -26 -25 -22
4 3 3 2 2 1 -0 -2 -3 -4 -5 -5 -5 -6 -7 -8 -9 -12 -13 -11 -11 -11 -11 -12 -13 -14 -14 -14 -15 -15 -16 -15 -16 -21 -27 -25 -24 -24 -24 -24 -24 -24 -22
1 0 -0 -2 -3 -4 -5 -5 -5 -5 -6 -6 -7 -8 -9 -9 -10 -11 -11 -12 -12 -13 -13 -13 -14 -15 -15 -15 -16 -16 -16 -17 -18 -25 -25 -24 -23 -22 -22 -22 -22 -22 -20
-3 -4 -4 -5 -5 -5 -6 -6 -7 -8 -8 -9 -9 -10 -10 -11 -11 -12 -12 -13 -13 -14 -14 -15 -15 -16 -16 -17 -17 -17 -18 -20 -24 -24 -23 -22 -22 -21 -21 -21 -21 -21 -20
-5 -5 -6 -6 -6 -7 -8 -8 -9 -9 -10 -11 -11 -12 -12 -12 -13 -13 -14 -14 -15 -16 -16 -16 -17 -17 -18 -18 -18 -19 -20 -22 -23 -23 -22 -21 -21 -20 -20 -20 -19 -19 -18
-6 -7 -7 -8 -9 -9 -10 -10 -11 -11 -12 -12 -13 -13 -13 -14 -14 -15 -16 -16 -17 -17 -17 -18 -18 -19 -19 -19 -20 -20 -21 -22 -23 -22 -21 -21 -20 -20 -20 -19 -19 -18 -18
-8 -9 -9 -10 -10 -11 -11 -12 -12 -13 -13 -14 -14 -15 -15 -16 -16 -17 -17 -17 -18 -18 -19 -19 -19 -20 -20 -21 -21 -21 -21 -23 -23 -22 -21 -21 -20 -20 -19 -19 -19 -18 -18
-10 -10 -11 -11 -12 -12 -13 -14 -14 -15 -15 -16 -16 -17 -18 -18 -18 -19 -19 -19 -20 -21 -21 -22 -23 -23 -23 -23 -22 -23 -23 -24 -22 -21 -21 -20 -20 -20 -20 -19 -19 -19 -18
-12 -12 -13 -13 -14 -15 -16 -17 -18 -19 -19 -20 -20 -20 -21 -21 -21 -21 -21 -21 -22 -23 -23 -24 -24 -24 -24 -24 -24 -24 -24 -23 -21 -21 -21 -21 -20 -20 -20 -20 -19 -19 -18
-18 -19 -20 -21 -22 -22 -23 -23 -23 -23 -23 -23 -23 -23 -23 -23 -23 -23 -23 -23 -24 -24 -24 -25 -25 -25 -25 -25 -25 -25 -24 -22 -21 -21 -21 -21 -21 -20 -20 -20 -19 -19 -18

GFSGL_850_dewp_075.txt.gz
Dewpoint
-1 2 3 3 3 3 3 4 4 5 4 3 3 3 4 4 2 2 3 7 7 8 6 5 7 8 8 8 7 6 6 5 5 4 4 3 2 2 1 0 -2 -8 -10
-1 -3 1 3 2 1 -1 -1 0 1 2 2 2 2 2 2 2 2 6 7 8 8 7 7 8 8 8 6 6 6 6 5 5 4 3 2 2 1 0 -4 -9 -14 -25
5 3 -1 -1 2 2 1 1 1 1 1 1 2 1 2 4 6 7 8 7 8 7 7 8 7 8 8 7 6 6 5 4 4 3 2 2 1 -2 -7 -12 -21 -34 -35
7 7 5 2 -1 -1 0 1 2 1 1 1 2 3 4 5 6 6 8 6 8 9 8 8 8 8 8 7 6 5 5 4 3 2 1 -0 -4 -10 -17 -29 -36 -34 -33
7 7 7 7 5 1 0 0 1 1 1 1 2 2 4 6 7 8 8 6 7 7 6 7 8 7 6 6 5 5 4 3 2 1 0 -5 -11 -19 -35 -36 -35 -35 -35
5 5 6 7 7 7 4 3 2 2 2 3 4 4 7 6 6 7 9 7 8 7 7 8 7 6 6 5 5 4 2 2 0 -1 -6 -14 -24 -36 -36 -36 -36 -35 -28
2 3 5 6 7 7 7 6 6 4 4 5 6 7 8 9 9 9 9 8 8 8 7 7 7 6 4 4 3 2 1 1 -1 -9 -17 -30 -36 -36 -36 -36 -36 -35 -34
1 2 4 5 7 7 7 7 7 7 7 8 8 9 8 9 9 9 8 8 8 7 6 5 5 4 3 3 1 1 -0 -5 -13 -21 -35 -36 -36 -36 -36 -37 -37 -36 -35
1 2 3 5 7 8 8 8 8 9 9 9 9 9 9 8 8 8 8 7 6 6 4 4 3 2 1 1 -0 -2 -9 -16 -28 -36 -37 -36 -36 -36 -37 -37 -37 -35 -32
1 4 5 5 6 7 8 9 9 9 9 8 8 8 8 8 8 8 7 6 5 4 3 2 1 0 -0 -1 -5 -13 -23 -33 -35 -35 -34 -34 -36 -37 -37 -37 -37 -36 -31
3 4 6 8 8 9 9 9 9 8 8 8 8 7 7 7 6 4 4 4 4 3 2 1 -1 -1 -4 -9 -17 -28 -34 -35 -35 -35 -35 -36 -36 -36 -36 -37 -37 -36 -35
7 8 8 9 9 9 9 9 8 8 8 7 7 6 5 4 3 1 1 1 1 1 -0 -2 -4 -6 -12 -21 -30 -34 -35 -35 -34 -33 -28 -32 -35 -36 -36 -36 -36 -36 -36
7 8 9 9 9 9 8 8 8 7 7 6 4 3 2 1 0 -0 -0 -1 -2 -2 -4 -5 -10 -16 -25 -31 -33 -33 -32 -29 -16 -20 -29 -33 -34 -33 -34 -35 -33 -33 -35
9 9 9 9 9 8 7 6 6 5 5 4 3 2 0 -0 -0 -1 -2 -2 -3 -4 -7 -12 -19 -27 -31 -31 -29 -28 -19 -14 -21 -29 -31 -28 -28 -30 -30 -24 -25 -33 -33
8 8 8 8 7 6 6 5 3 3 2 3 2 1 1 -1 -2 -3 -3 -4 -5 -7 -10 -16 -23 -28 -26 -21 -22 -19 -17 -23 -27 -23 -21 -26 -18 -18 -16 -23 -30 -30 -29
7 7 6 6 5 4 4 2 1 1 1 0 0 -0 -1 -2 -3 -4 -5 -5 -6 -6 -8 -11 -16 -16 -16 -17 -16 -17 -21 -23 -16 -13 -14 -13 -14 -14 -18 -24 -28 -25 -25
6 5 4 4 3 2 1 1 1 -1 -1 -2 -3 -4 -4 -5 -6 -6 -6 -7 -7 -8 -11 -20 -18 -14 -13 -13 -16 -17 -16 -13 -14 -14 -14 -15 -15 -17 -22 -24 -24 -20 -20
5 4 3 3 2 1 -1 -2 -3 -3 -4 -5 -6 -5 -6 -6 -6 -7 -8 -9 -10 -11 -10 -11 -12 -12 -13 -13 -14 -14 -15 -15 -16 -16 -16 -16 -16 -18 -22 -21 -20 -18 -18
3 1 -1 -2 -2 -3 -4 -4 -5 -5 -5 -6 -7 -7 -8 -8 -9 -9 -10 -11 -12 -12 -13 -13 -13 -14 -15 -15 -15 -16 -16 -17 -17 -17 -17 -18 -18 -21 -21 -20 -19 -20 -20
-3 -4 -4 -5 -5 -5 -5 -6 -6 -7 -7 -8 -9 -9 -10 -10 -11 -12 -12 -12 -13 -13 -14 -15 -15 -16 -16 -17 -17 -17 -18 -18 -18 -19 -20 -20 -21 -21 -20 -20 -21 -20 -20
-5 -6 -6 -6 -6 -7 -7 -7 -8 -9 -9 -10 -11 -11 -12 -12 -13 -13 -14 -14 -15 -15 -16 -16 -17 -17 -18 -18 -18 -19 -20 -20 -20 -20 -21 -21 -21 -21 -21 -21 -21 -21 -20
-6 -7 -7 -7 -8 -8 -9 -9 -10 -10 -11 -12 -12 -13 -13 -14 -14 -15 -15 -16 -17 -17 -17 -18 -18 -19 -19 -19 -20 -20 -21 -21 -21 -21 -22 -22 -22 -22 -22 -22 -22 -21 -21
-8 -8 -9 -9 -10 -10 -11 -11 -12 -12 -13 -14 -14 -15 -15 -16 -16 -17 -17 -18 -18 -19 -19 -20 -20 -21 -22 -23 -23 -23 -23 -23 -22 -23 -23 -22 -23 -23 -23 -22 -22 -22 -21
-10 -10 -10 -11 -11 -12 -13 -13 -14 -15 -15 -16 -17 -18 -19 -20 -21 -21 -21 -21 -22 -22 -22 -23 -23 -24 -24 -24 -24 -24 -24 -24 -24 -24 -23 -23 -22 -22 -22 -23 -22 -22 -21
-12 -12 -13 -14 -16 -17 -19 -20 -21 -23 -24 -24 -25 -25 -25 -24 -24 -24 -24 -24 -24 -24 -24 -24 -25 -25 -25 -25 -25 -25 -25 -25 -24 -23 -23 -22 -22 -21 -21 -21 -21 -21 -21
-27 -27 -27 -27 -28 -28 -28 -28 -28 -27 -27 -26 -26 -26 -25 -25 -25 -25 -25 -25 -25 -25 -25 -25 -25 -26 -26 -25 -25 -25 -25 -24 -23 -22 -22 -22 -21 -21 -21 -21 -21 -21 -20

GFSGL_850_dewp_078.txt.gz
Dewpoint
8 8 8 7 8 8 8 7 7 7 7 7 7 7 7 7 7 7 7 8 8 4 2 5 7 7 6 7 7 8 8 7 6 6 5 4 4 3 2 2 2 1 -1
4 7 5 6 7 8 7 6 6 6 7 7 7 7 7 7 7 7 7 4 4 3 3 3 5 7 7 8 8 8 8 7 6 6 5 5 4 3 3 2 1 -2 -6
7 4 6 5 6 5 4 7 8 8 7 7 7 7 7 6 6 6 4 3 2 4 6 5 7 8 6 6 7 7 7 6 6 5 5 5 4 3 2 2 -1 -8 -19
7 6 5 2 0 1 2 5 6 7 7 7 7 7 7 7 7 2 3 5 5 6 7 6 7 6 6 8 8 7 7 6 6 5 4 4 3 2 1 -3 -10 -17 -34
8 8 6 5 4 4 4 3 3 5 6 6 6 5 5 6 4 3 3 5 6 6 7 6 7 8 8 8 8 7 7 5 5 4 3 2 1 -0 -5 -12 -18 -21 -28
6 6 8 8 7 5 4 4 5 5 6 7 7 5 3 3 2 2 3 4 5 8 8 7 7 8 8 7 7 6 6 5 4 3 2 1 -1 -7 -14 -22 -16 -15 -12
3 5 7 8 8 8 8 7 6 6 7 6 6 4 5 5 2 3 6 6 6 6 8 7 8 8 7 6 5 5 4 3 2 1 0 -2 -8 -15 -23 -21 -15 -11 -10
4 3 4 6 6 8 8 8 8 8 7 7 7 8 7 6 4 6 7 8 8 8 9 8 8 7 6 5 4 2 2 1 0 -0 -4 -11 -21 -33 -35 -32 -19 -17 -15
1 3 4 4 6 7 7 8 8 8 8 8 8 8 8 9 9 9 9 8 8 8 8 7 6 5 4 2 2 1 0 -0 -2 -7 -14 -28 -36 -36 -36 -35 -29 -12 -11
-0 3 7 7 6 8 8 9 8 8 8 8 9 9 9 9 9 9 9 8 8 7 6 5 3 2 2 1 0 -1 -2 -4 -12 -24 -34 -36 -35 -36 -36 -36 -34 -25 -12
8 7 7 8 8 8 8 8 8 9 9 9 9 8 8 8 8 8 8 7 6 5 3 2 1 0 -0 -1 -2 -5 -10 -20 -31 -34 -34 -35 -35 -35 -35 -34 -33 -29 -16
8 7 7 7 7 7 9 9 9 9 9 9 8 8 7 6 6 5 3 2 2 3 2 0 -1 -2 -2 -5 -9 -20 -30 -33 -34 -34 -34 -30 -22 -23 -28 -30 -31 -30 -29
8 8 8 8 9 9 9 9 8 8 7 7 7 6 5 4 2 1 0 0 0 -0 -1 -2 -3 -4 -8 -18 -27 -32 -34 -34 -33 -23 -15 -16 -19 -22 -26 -29 -28 -28 -27
8 8 8 8 8 8 8 8 7 7 7 6 6 4 3 1 -0 -1 -1 -2 -2 -2 -3 -4 -6 -15 -25 -29 -31 -29 -19 -11 -12 -14 -16 -18 -24 -24 -20 -21 -19 -16 -15
8 8 8 8 8 8 7 6 5 4 4 5 4 2 1 -1 -1 -2 -2 -2 -3 -5 -6 -8 -11 -11 -10 -9 -9 -11 -13 -14 -15 -16 -19 -17 -13 -13 -13 -13 -14 -14 -14
7 7 6 6 6 5 4 4 2 1 1 1 1 0 -1 -1 -2 -3 -4 -5 -5 -6 -6 -8 -9 -10 -10 -11 -11 -12 -13 -13 -14 -14 -14 -14 -14 -15 -15 -15 -15 -15 -14
5 5 4 4 3 2 2 1 1 -2 -2 -2 -3 -3 -3 -4 -5 -5 -6 -6 -7 -8 -9 -10 -11 -11 -12 -12 -12 -13 -13 -14 -14 -15 -15 -16 -16 -16 -16 -16 -16 -15 -15
3 3 3 2 1 0 -1 -2 -3 -4 -4 -6 -6 -6 -6 -6 -7 -7 -8 -8 -9 -11 -11 -11 -12 -12 -13 -13 -14 -14 -15 -15 -16 -16 -16 -17 -17 -17 -17 -17 -16 -16 -16
1 -0 -1 -1 -3 -4 -4 -4 -5 -5 -6 -8 -8 -8 -8 -9 -9 -10 -11 -11 -11 -12 -12 -13 -13 -14 -14 -15 -15 -16 -17 -17 -17 -18 -18 -18 -18 -18 -18 -18 -17 -18 -18
-3 -4 -4 -5 -6 -6 -6 -7 -8 -8 -9 -10 -10 -11 -11 -11 -12 -12 -12 -13 -13 -13 -14 -14 -15 -15 -16 -17 -17 -18 -18 -18 -18 -18 -19 -19 -19 -19 -19 -19 -19 -18 -18
-6 -6 -6 -7 -7 -7 -7 -8 -9 -9 -10 -10 -11 -12 -12 -12 -13 -14 -14 -14 -15 -15 -15 -16 -17 -17 -18 -18 -19 -19 -19 -20 -20 -20 -20 -20 -20 -20 -20 -20 -20 -19 -19
-7 -7 -7 -7 -8 -8 -9 -9 -10 -11 -12 -12 -12 -13 -13 -13 -14 -15 -15 -16 -16 -17 -17 -18 -18 -19 -20 -20 -20 -21 -21 -21 -21 -22 -22 -22 -22 -21 -21 -21 -20 -20 -20
-8 -8 -9 -9 -10 -10 -10 -11 -11 -12 -13 -14 -15 -15 -15 -15 -17 -17 -17 -18 -20 -21 -23 -23 -23 -22 -21 -21 -22 -22 -23 -23 -23 -23 -24 -23 -23 -22 -22 -22 -21 -21 -20
-10 -10 -10 -11 -11 -12 -13 -13 -14 -15 -16 -16 -17 -18 -18 -19 -20 -23 -24 -25 -25 -24 -24 -25 -25 -25 -25 -25 -25 -24 -23 -23 -24 -24 -24 -24 -24 -23 -23 -22 -22 -21 -21
-13 -14 -15 -17 -19 -20 -22 -23 -23 -22 -22 -20 -19 -19 -19 -20 -21 -22 -24 -25 -26 -26 -26 -26 -26 -26 -26 -26 -26 -26 -26 -25 -25 -25 -24 -23 -23 -24 -24 -23 -23 -22 -21
-31 -31 -31 -31 -31 -30 -28 -27 -26 -25 -24 -23 -21 -22 -22 -22 -24 -26 -26 -26 -26 -26 -26 -26 -26 -26 -26 -26 -26 -26 -26 -25 -25 -23 -22 -22 -22 -23 -23 -23 -22 -22 -22

GFSGL_850_dewp_081.txt.gz
Dewpoint
9 9 9 9 9 9 9 8 8 8 8 7 7 4 3 4 4 4 4 5 7 6 7 7 8 7 6 8 8 7 6 7 7 5 7 6 6 4 3 3 3 3 2
8 8 9 9 9 9 8 9 8 8 8 7 7 5 5 4 5 5 5 7 7 7 7 8 6 6 6 4 4 5 6 5 7 7 7 6 5 5 4 3 2 2 2
7 8 9 9 9 8 8 8 8 8 8 8 7 7 7 7 7 7 7 7 7 7 7 7 7 5 4 4 6 7 7 6 6 7 7 6 5 5 4 4 3 2 2
7 8 8 9 8 8 8 9 9 8 8 8 8 7 7 7 7 7 7 7 7 7 7 7 7 7 5 6 7 7 5 6 6 7 6 6 5 5 4 3 2 1 -2
9 8 8 8 8 9 8 9 9 8 8 7 8 8 8 8 8 8 7 7 7 8 8 7 5 6 7 5 4 5 5 6 7 6 6 6 5 5 3 3 1 -1 -9
9 9 8 8 9 9 8 8 8 8 8 8 8 8 8 8 7 7 7 8 8 8 7 5 5 6 8 7 6 7 8 8 7 6 5 4 5 4 3 1 -1 -7 -12
9 9 9 9 9 9 9 9 8 8 8 8 7 7 7 7 7 6 6 7 8 7 6 5 5 6 8 7 7 8 7 7 5 5 4 3 3 2 1 -1 -9 -17 -18
9 9 9 9 9 9 9 9 9 8 8 8 8 8 8 8 8 7 7 7 7 7 6 6 7 7 7 8 8 6 6 4 3 2 1 1 0 -1 -2 -10 -17 -13 -10
8 9 8 9 9 9 9 9 9 9 9 8 9 8 8 8 8 8 8 8 7 6 7 8 8 8 8 8 7 5 3 2 1 1 0 -1 -4 -8 -17 -25 -27 -25 -22
7 8 8 8 9 9 9 9 9 9 9 9 9 9 8 8 9 9 8 8 8 8 8 7 7 6 5 4 3 2 1 0 -0 -1 -1 -4 -11 -32 -35 -35 -32 -25 -15
5 7 8 8 8 8 8 9 9 9 9 9 9 8 8 8 8 8 8 8 7 7 6 5 4 2 1 -0 -1 -1 -2 -2 -4 -7 -12 -20 -33 -28 -20 -29 -32 -28 -22
5 7 8 8 8 8 9 9 9 9 8 9 8 8 8 8 8 8 7 6 5 4 3 2 -0 -2 -2 -2 -2 -3 -4 -8 -10 -21 -31 -27 -22 -19 -16 -15 -15 -19 -22
8 8 9 9 9 9 9 9 9 9 8 9 8 8 7 6 6 6 5 3 1 1 0 -1 -2 -3 -4 -4 -6 -9 -14 -25 -30 -15 -15 -15 -12 -12 -12 -14 -16 -21 -21
8 8 9 9 9 9 8 8 8 8 8 7 8 7 5 5 4 2 1 0 -1 -2 -3 -4 -4 -4 -5 -8 -11 -14 -14 -10 -10 -12 -9 -10 -10 -11 -13 -14 -12 -12 -12
6 7 7 7 6 7 6 6 6 5 4 5 5 4 3 1 -0 -1 -1 -1 -2 -3 -3 -4 -4 -5 -6 -7 -8 -8 -9 -9 -10 -11 -11 -11 -12 -12 -12 -12 -13 -13 -13
5 4 3 4 3 3 3 3 0 2 1 0 1 1 -0 -2 -3 -3 -3 -3 -4 -4 -5 -6 -7 -8 -9 -10 -10 -11 -11 -12 -12 -13 -13 -13 -13 -13 -14 -14 -14 -14 -14
4 3 1 -0 0 1 1 0 -1 -3 -3 -4 -3 -4 -4 -6 -6 -6 -6 -6 -7 -8 -8 -9 -9 -10 -10 -11 -11 -12 -12 -13 -14 -14 -14 -14 -15 -15 -15 -15 -15 -15 -15
1 2 1 0 -1 -2 -2 -3 -3 -4 -6 -7 -7 -7 -7 -8 -8 -8 -8 -8 -9 -9 -10 -10 -11 -11 -12 -12 -13 -13 -14 -14 -15 -15 -16 -16 -16 -16 -16 -16 -16 -16 -16
-1 -2 -3 -3 -3 -4 -5 -6 -7 -8 -8 -9 -9 -9 -9 -9 -10 -10 -10 -10 -11 -11 -12 -12 -12 -13 -13 -14 -14 -15 -15 -16 -16 -16 -17 -17 -17 -17 -17 -17 -17 -17 -17
-4 -4 -5 -6 -7 -7 -8 -8 -9 -9 -10 -10 -10 -10 -11 -11 -11 -11 -12 -12 -12 -13 -13 -14 -14 -15 -15 -15 -16 -16 -17 -17 -17 -17 -18 -18 -18 -19 -19 -19 -19 -18 -18
-6 -6 -7 -7 -7 -8 -8 -8 -9 -10 -10 -11 -11 -12 -12 -12 -13 -13 -14 -14 -14 -14 -15 -16 -16 -17 -17 -17 -18 -18 -18 -19 -19 -19 -19 -20 -20 -20 -20 -20 -20 -19 -19
-7 -8 -8 -9 -9 -9 -10 -11 -11 -11 -12 -12 -13 -13 -13 -14 -15 -15 -15 -16 -16 -17 -18 -18 -18 -18 -19 -19 -20 -20 -20 -20 -20 -20 -21 -21 -21 -21 -21 -20 -20 -20 -20
-8 -9 -9 -10 -10 -11 -11 -12 -13 -13 -14 -14 -15 -15 -15 -16 -17 -17 -18 -18 -19 -19 -22 -23 -20 -22 -20 -24 -25 -21 -21 -21 -22 -22 -22 -23 -22 -22 -22 -21 -21 -21 -20
-10 -11 -11 -12 -13 -13 -14 -14 -15 -15 -16 -16 -16 -17 -18 -18 -18 -19 -19 -22 -21 -20 -22 -26 -25 -26 -26 -26 -26 -25 -23 -23 -25 -25 -25 -23 -23 -23 -23 -22 -22 -22 -21
-17 -17 -16 -16 -16 -16 -16 -17 -17 -17 -17 -17 -18 -18 -18 -19 -19 -20 -20 -22 -27 -27 -27 -27 -27 -26 -26 -27 -26 -26 -26 -26 -26 -26 -25 -24 -22 -24 -23 -23 -22 -22 -21
-20 -18 -17 -17 -17 -18 -18 -18 -18 -19 -19 -19 -19 -20 -20 -20 -21 -21 -25 -26 -27 -27 -26 -26 -26 -26 -26 -26 -25 -26 -26 -26 -26 -24 -22 -22 -22 -24 -23 -22 -22 -22 -22

GFSGL_850_dewp_084.txt.gz
Dewpoint
9 9 9 9 9 8 8 8 7 6 1 -1 -3 -1 2 5 5 5 4 4 4 4 4 4 5 4 5 6 6 6 6 6 6 6 5 6 5 6 6 6 5 4 3
9 9 8 9 9 9 8 8 8 8 5 1 -1 -1 3 4 5 5 4 4 4 6 6 5 6 5 5 6 6 6 6 6 7 7 7 6 5 6 7 6 5 3 3
8 9 9 8 9 9 8 8 9 8 8 6 3 5 3 4 4 3 4 4 4 5 5 7 7 6 7 6 6 6 7 6 7 7 7 7 6 5 6 5 4 4 3
8 9 9 9 9 9 8 9 9 9 9 9 8 7 7 8 7 7 6 7 6 5 6 6 6 8 7 7 8 7 6 6 7 7 6 7 6 6 6 6 5 4 3
8 7 8 9 9 10 10 10 8 8 9 9 9 8 8 8 8 7 7 7 5 6 7 8 8 7 7 6 7 6 5 6 7 7 6 6 6 6 6 5 5 4 4
9 8 8 8 9 9 9 9 9 9 8 8 9 9 8 8 8 7 7 7 8 8 8 7 7 7 7 7 8 6 7 8 6 7 7 6 7 6 6 5 4 2 1
9 9 9 8 8 9 10 9 9 9 9 9 9 8 8 8 7 7 7 8 8 8 8 8 8 8 8 7 7 8 7 8 7 7 7 6 6 5 4 3 2 0 -1
8 9 10 10 9 9 10 10 9 9 9 9 9 9 9 8 8 8 8 8 8 8 8 8 8 8 8 8 8 7 7 7 7 6 5 4 3 2 1 1 0 -1 -3
8 8 9 10 10 10 9 9 10 10 9 9 9 9 9 9 9 8 8 8 8 8 8 8 8 8 8 8 7 7 6 5 4 3 2 1 1 0 -1 -2 -3 -5 -7
4 8 8 9 9 10 10 10 10 10 9 10 9 9 9 9 9 9 9 8 8 7 7 8 8 8 7 7 6 5 3 2 0 -1 -2 -2 -2 -3 -2 -5 -10 -19 -26
6 4 8 8 8 9 9 10 10 10 10 9 9 9 9 9 9 9 9 9 8 9 8 8 7 7 6 5 3 1 0 -0 -2 -3 -3 -5 -6 -10 -21 -25 -20 -17 -13
8 8 7 9 9 8 9 9 10 10 10 10 10 9 9 9 9 9 9 9 8 7 7 5 4 3 2 0 -1 -2 -2 -3 -4 -4 -8 -12 -10 -8 -8 -8 -8 -13 -18
7 7 8 9 8 8 9 9 9 9 10 10 9 9 9 8 8 8 7 8 8 5 3 2 -0 -2 -3 -3 -4 -4 -4 -4 -6 -8 -8 -8 -9 -9 -9 -10 -10 -9 -9
6 7 7 8 9 9 9 9 9 9 9 9 9 8 6 1 2 4 2 0 1 0 -1 -3 -4 -4 -4 -4 -4 -4 -6 -7 -7 -8 -9 -9 -9 -10 -10 -10 -11 -11 -12
4 4 5 4 4 5 6 6 5 4 4 6 6 2 3 1 -4 -3 -3 -3 -2 -4 -5 -5 -5 -5 -6 -7 -8 -8 -8 -9 -9 -9 -10 -11 -11 -12 -12 -12 -13 -13 -13
3 4 3 3 1 0 -0 -1 -2 -2 -2 -2 -1 -0 -3 -3 -3 -4 -5 -5 -6 -6 -6 -6 -7 -8 -9 -9 -10 -10 -11 -11 -11 -12 -12 -13 -13 -14 -14 -15 -15 -15 -15
1 1 1 1 1 -0 -0 -2 -4 -6 -5 -6 -6 -5 -5 -6 -6 -6 -7 -7 -8 -7 -8 -9 -9 -9 -10 -10 -11 -11 -12 -12 -13 -14 -14 -15 -15 -16 -16 -16 -16 -17 -17
-1 -1 -1 -2 -3 -5 -5 -6 -7 -8 -9 -9 -9 -8 -8 -8 -8 -8 -8 -8 -9 -9 -9 -10 -11 -11 -12 -12 -12 -13 -13 -14 -15 -16 -16 -17 -17 -17 -18 -18 -18 -18 -18
-4 -5 -5 -5 -6 -6 -6 -8 -8 -9 -9 -10 -9 -9 -9 -9 -9 -10 -9 -9 -10 -11 -11 -12 -12 -12 -13 -14 -14 -15 -15 -16 -17 -17 -17 -17 -18 -19 -19 -19 -19 -19 -19
-7 -7 -8 -8 -8 -8 -8 -9 -9 -10 -10 -10 -11 -11 -10 -10 -10 -11 -11 -11 -12 -13 -13 -13 -14 -14 -15 -16 -16 -17 -17 -18 -18 -19 -19 -19 -19 -20 -20 -20 -20 -20 -20
-7 -8 -8 -8 -8 -9 -9 -9 -10 -10 -11 -11 -12 -12 -11 -11 -12 -12 -12 -13 -13 -14 -15 -15 -16 -17 -19 -20 -20 -19 -20 -20 -20 -20 -20 -20 -20 -21 -21 -21 -21 -21 -21
-8 -8 -8 -9 -10 -10 -10 -11 -11 -11 -12 -12 -13 -13 -13 -13 -14 -14 -15 -16 -17 -19 -20 -19 -19 -21 -23 -24 -25 -24 -21 -20 -20 -21 -22 -24 -23 -22 -21 -21 -21 -21 -22
-10 -10 -11 -11 -11 -12 -12 -12 -13 -13 -14 -14 -14 -15 -15 -16 -17 -19 -20 -20 -23 -26 -26 -26 -25 -25 -25 -26 -25 -24 -23 -23 -25 -26 -26 -26 -25 -22 -22 -22 -22 -22 -22
-12 -12 -12 -13 -13 -14 -14 -14 -15 -15 -16 -16 -17 -17 -17 -18 -20 -22 -24 -24 -24 -24 -25 -26 -25 -25 -27 -27 -27 -27 -27 -26 -26 -26 -26 -26 -25 -24 -23 -23 -22 -22 -22
-19 -19 -18 -17 -17 -18 -18 -18 -18 -17 -17 -17 -18 -18 -18 -19 -20 -21 -24 -26 -27 -27 -26 -25 -26 -27 -27 -27 -27 -27 -26 -26 -26 -26 -26 -24 -23 -23 -23 -22 -22 -22 -22
-21 -19 -18 -18 -17 -17 -18 -18 -18 -18 -18 -19 -19 -19 -20 -21 -21 -22 -26 -26 -26 -27 -26 -26 -26 -26 -26 -26 -26 -26 -26 -26 -26 -25 -23 -23 -23 -22 -22 -22 -22 -22 -22

GFSGL_850_dewp_087.txt.gz
Dewpoint
7 9 9 9 9 8 8 8 7 6 4 4 2 2 2 1 3 4 3 3 4 5 5 5 5 4 4 4 4 5 6 6 7 6 5 5 7 7 7 7 6 6 7
8 8 9 9 8 8 8 8 7 7 6 4 3 3 3 3 3 4 2 3 5 5 5 5 4 5 4 4 5 5 5 5 6 6 5 5 6 7 7 7 6 6 6
7 8 8 9 9 9 9 8 8 7 7 6 4 3 2 0 1 1 1 2 3 5 5 4 4 4 4 5 4 4 5 5 5 6 6 6 5 6 7 7 7 6 6
8 9 9 8 8 9 9 8 8 8 8 8 7 7 7 3 -1 -1 1 0 2 5 5 4 5 4 4 5 5 4 5 6 6 6 6 6 5 5 7 7 6 6 6
8 7 8 9 9 8 7 8 8 9 8 8 8 8 8 6 4 -0 -1 0 2 4 4 4 4 5 4 5 5 5 6 7 7 6 6 6 6 6 6 6 7 6 6
9 8 7 8 9 9 9 8 8 8 8 8 9 9 8 7 7 6 4 2 3 3 5 6 5 5 5 5 5 6 7 8 7 7 8 7 7 7 7 6 6 6 4
8 9 9 8 7 9 10 10 9 9 9 9 8 9 9 9 8 8 7 7 8 8 7 6 6 6 5 6 7 8 8 8 8 8 8 7 7 6 6 6 5 5 3
10 9 9 9 9 8 9 9 10 10 10 10 9 9 9 9 9 9 9 9 8 8 8 8 7 7 7 8 8 8 8 9 8 8 8 7 6 5 4 3 3 2 1
9 10 10 10 10 9 8 8 9 10 10 10 10 10 9 8 9 9 9 9 9 8 8 8 8 8 8 8 8 9 9 8 8 8 7 6 3 3 2 1 -0 -1 -2
7 7 7 9 10 10 10 9 9 9 10 10 9 9 9 9 9 9 9 9 9 9 9 9 9 8 8 8 8 8 8 7 6 3 1 0 0 -1 -1 -2 -3 -4 -5
7 7 7 7 8 10 10 10 10 10 10 10 10 10 10 10 10 9 10 9 9 9 9 9 8 8 8 8 8 7 6 3 -0 -1 -2 -3 -3 -4 -3 -3 -5 -8 -9
6 7 7 7 9 9 10 10 10 10 10 10 10 10 10 10 10 9 9 9 9 9 9 8 8 7 7 6 4 3 1 -1 -2 -3 -4 -4 -5 -6 -6 -7 -7 -7 -7
5 4 5 6 7 8 9 9 9 10 10 10 10 10 10 9 9 9 9 9 9 6 2 1 0 -2 -3 -3 -4 -4 -4 -4 -4 -4 -6 -6 -7 -7 -8 -8 -9 -9 -9
4 3 3 2 2 4 6 7 7 6 6 7 7 6 2 1 3 5 5 4 3 3 -1 -4 -5 -5 -4 -5 -5 -6 -6 -7 -7 -8 -8 -9 -9 -9 -9 -10 -10 -10 -11
2 3 3 2 2 2 2 2 2 2 1 -0 1 0 -1 -3 -4 -3 -1 -1 -2 -4 -5 -6 -6 -6 -7 -7 -8 -9 -8 -9 -8 -9 -9 -9 -10 -10 -11 -12 -13 -14 -15
2 2 1 1 1 -0 -1 -0 -0 -2 -2 -2 -2 -2 -5 -5 -6 -6 -6 -6 -6 -6 -6 -7 -8 -8 -8 -8 -9 -9 -9 -10 -10 -10 -10 -11 -12 -13 -15 -16 -16 -17 -17
0 0 -0 -1 -1 -2 -3 -4 -5 -6 -6 -6 -8 -8 -7 -7 -7 -7 -7 -7 -7 -6 -7 -9 -9 -10 -10 -11 -11 -11 -11 -12 -13 -14 -15 -16 -16 -17 -18 -20 -21 -20 -20
-3 -2 -2 -3 -4 -5 -6 -6 -7 -8 -8 -8 -8 -8 -8 -8 -8 -8 -7 -7 -8 -8 -9 -10 -10 -11 -11 -11 -12 -13 -13 -14 -15 -16 -17 -20 -21 -22 -23 -24 -23 -22 -22
-6 -6 -6 -6 -7 -7 -7 -8 -8 -9 -9 -9 -9 -9 -9 -8 -8 -8 -8 -8 -9 -10 -11 -11 -12 -12 -12 -13 -14 -15 -16 -17 -19 -21 -22 -23 -25 -26 -25 -23 -23 -22 -22
-8 -8 -7 -8 -8 -8 -8 -9 -9 -10 -10 -10 -10 -10 -10 -9 -9 -10 -10 -11 -11 -12 -13 -13 -13 -14 -15 -16 -17 -19 -21 -22 -23 -24 -24 -25 -24 -24 -24 -24 -23 -22 -21
-9 -9 -9 -9 -9 -9 -9 -10 -10 -11 -11 -11 -12 -11 -11 -11 -12 -12 -12 -13 -13 -14 -14 -15 -17 -19 -22 -24 -25 -26 -26 -27 -26 -26 -26 -26 -26 -25 -25 -23 -22 -22 -21
-9 -10 -10 -10 -10 -10 -11 -11 -11 -12 -12 -13 -13 -13 -13 -13 -14 -14 -15 -16 -16 -18 -20 -21 -23 -25 -26 -27 -28 -28 -28 -28 -27 -27 -27 -26 -26 -26 -25 -24 -23 -22 -22
-10 -10 -11 -12 -12 -12 -12 -13 -13 -13 -14 -14 -15 -15 -16 -19 -22 -24 -25 -25 -25 -26 -26 -27 -27 -27 -28 -28 -28 -28 -27 -27 -27 -27 -26 -26 -26 -25 -24 -24 -23 -23 -23
-11 -12 -12 -13 -13 -13 -14 -14 -15 -16 -17 -18 -20 -21 -22 -23 -24 -25 -26 -26 -27 -28 -28 -28 -28 -28 -28 -28 -27 -27 -26 -27 -27 -27 -27 -26 -25 -24 -23 -23 -23 -23 -22
-20 -19 -18 -18 -18 -18 -18 -18 -18 -18 -18 -19 -19 -20 -21 -23 -25 -26 -27 -28 -28 -28 -27 -27 -27 -27 -27 -27 -27 -27 -27 -27 -27 -27 -26 -25 -24 -23 -23 -23 -22 -22 -22
-22 -21 -20 -20 -20 -20 -20 -19 -19 -19 -20 -21 -21 -21 -22 -25 -26 -26 -26 -27 -27 -27 -26 -27 -27 -26 -27 -27 -27 -27 -27 -27 -26 -25 -24 -23 -23 -22 -22 -22 -22 -22 -22

GFSGL_850_dewp_090.txt.gz
Dewpoint
3 3 7 9 8 8 8 8 7 7 7 6 5 3 4 4 3 3 3 3 2 4 5 5 6 5 5 5 5 5 5 5 5 4 4 4 5 5 5 5 5 6 7
5 1 4 8 8 8 8 8 7 7 7 5 5 4 4 4 5 4 3 2 2 3 4 5 5 5 5 5 5 5 5 5 5 5 4 4 5 5 5 6 6 5 5
7 3 3 7 8 8 8 8 8 8 7 6 5 4 4 3 3 3 2 2 3 3 3 2 3 4 4 5 5 5 5 4 4 5 5 5 5 5 5 6 5 4 5
8 7 4 5 5 7 8 8 8 8 8 7 7 6 5 4 3 2 2 2 2 3 4 3 2 3 4 5 5 5 4 4 4 5 6 5 5 5 6 6 6 4 4
9 8 8 6 5 6 6 8 8 8 8 8 8 7 7 7 5 3 3 3 3 3 3 3 2 3 3 3 5 4 4 5 4 5 7 7 7 7 7 6 7 7 6
9 9 8 8 8 7 8 8 7 7 8 8 8 8 8 8 8 7 6 6 5 2 -0 0 1 1 1 1 4 5 5 5 6 7 7 7 7 8 7 6 7 7 7
10 9 9 9 9 9 9 9 9 8 8 7 7 8 8 7 8 8 8 8 7 7 5 2 -0 -0 0 2 3 5 6 7 7 8 8 8 8 8 7 8 7 7 6
10 10 10 9 9 9 9 9 9 9 9 9 8 8 8 7 7 7 8 9 8 7 7 6 6 5 6 7 8 7 7 7 8 8 8 8 8 8 8 7 6 5 4
8 9 9 9 10 9 9 9 9 10 10 10 9 9 9 9 9 9 9 9 9 9 8 8 7 8 8 8 8 8 8 8 8 8 8 8 8 7 6 6 4 3 1
6 7 7 7 8 8 10 10 10 9 9 10 10 10 10 10 9 9 9 9 9 9 9 9 8 8 7 7 8 8 8 8 8 8 7 6 6 5 4 2 1 1 -0
5 5 5 7 7 8 9 10 10 10 10 10 10 10 10 10 10 10 10 10 9 9 9 9 9 9 9 8 8 8 8 8 4 2 1 0 -1 -2 -2 -1 -2 -3 -3
4 3 2 3 4 6 7 8 9 9 9 9 10 10 10 9 10 10 10 9 9 10 9 9 8 7 7 7 7 6 4 2 -1 -3 -3 -4 -4 -4 -4 -4 -4 -5 -6
3 3 2 2 2 2 4 6 7 7 8 8 7 6 6 5 5 7 9 9 7 6 4 6 5 5 3 0 -1 -4 -3 -3 -4 -5 -5 -6 -6 -7 -8 -8 -8 -7 -8
2 3 2 1 1 2 2 2 2 2 3 3 4 4 2 1 -1 -3 -1 2 3 1 -4 -4 -2 -2 -3 -4 -4 -5 -5 -5 -5 -6 -7 -8 -8 -8 -8 -8 -8 -9 -9
2 1 1 1 1 0 0 0 0 -0 0 0 -0 -1 -1 -1 -2 -3 -3 -4 -3 -3 -4 -5 -6 -6 -6 -6 -7 -7 -8 -8 -8 -8 -9 -9 -9 -10 -10 -10 -11 -12 -15
0 -0 -1 -1 -1 -2 -2 -3 -3 -3 -3 -3 -3 -3 -5 -5 -5 -5 -6 -6 -6 -5 -5 -5 -6 -7 -7 -7 -8 -9 -9 -9 -10 -10 -10 -10 -11 -12 -13 -15 -18 -21 -24
-2 -2 -2 -3 -3 -4 -5 -5 -6 -7 -7 -7 -7 -7 -7 -7 -6 -6 -6 -6 -6 -6 -7 -8 -8 -9 -9 -10 -9 -9 -10 -11 -11 -11 -12 -13 -15 -21 -24 -27 -27 -27 -26
-4 -4 -4 -4 -5 -6 -6 -7 -8 -8 -8 -8 -8 -8 -8 -8 -8 -7 -7 -7 -7 -8 -9 -9 -10 -10 -11 -11 -11 -11 -12 -13 -15 -17 -21 -25 -25 -26 -27 -26 -26 -26 -26
-6 -7 -7 -7 -7 -7 -7 -8 -8 -9 -9 -9 -9 -9 -8 -8 -8 -8 -8 -8 -9 -10 -10 -11 -11 -12 -12 -12 -14 -15 -16 -19 -23 -24 -25 -25 -27 -26 -27 -27 -26 -27 -26
-8 -8 -8 -8 -8 -8 -8 -9 -9 -9 -9 -10 -10 -10 -9 -9 -9 -9 -10 -10 -11 -12 -12 -12 -13 -14 -15 -16 -18 -21 -23 -23 -24 -26 -27 -28 -28 -28 -27 -27 -27 -26 -26
-8 -9 -9 -9 -9 -9 -10 -10 -10 -10 -11 -11 -11 -11 -11 -10 -11 -12 -12 -12 -13 -14 -15 -16 -17 -20 -22 -24 -26 -27 -27 -28 -27 -27 -27 -27 -27 -27 -27 -27 -26 -26 -24
-9 -9 -9 -10 -10 -10 -10 -11 -11 -11 -12 -12 -12 -12 -12 -12 -13 -14 -15 -16 -18 -20 -22 -24 -26 -27 -28 -28 -29 -28 -28 -28 -28 -28 -28 -27 -27 -27 -26 -26 -25 -24 -23
-10 -10 -10 -11 -11 -11 -12 -12 -12 -13 -13 -14 -14 -15 -18 -23 -25 -26 -27 -27 -27 -27 -27 -28 -28 -29 -29 -29 -28 -28 -28 -28 -28 -28 -27 -27 -27 -26 -24 -24 -24 -23 -23
-11 -11 -12 -12 -13 -13 -13 -14 -14 -15 -17 -20 -22 -23 -24 -25 -26 -27 -28 -29 -29 -29 -29 -29 -29 -29 -29 -29 -28 -28 -28 -28 -28 -27 -27 -26 -25 -24 -23 -23 -23 -23 -22
-17 -16 -15 -15 -16 -16 -18 -19 -20 -20 -21 -22 -22 -23 -24 -25 -26 -27 -28 -28 -28 -28 -28 -28 -28 -28 -28 -27 -27 -27 -27 -27 -27 -27 -25 -24 -23 -23 -23 -23 -22 -22 -22
-23 -23 -23 -22 -21 -21 -21 -21 -21 -21 -22 -23 -24 -25 -25 -26 -27 -27 -27 -27 -27 -27 -27 -27 -27 -27 -27 -27 -27 -27 -27 -27 -25 -24 -24 -23 -23 -23 -22 -22 -22 -22 -22

GFSGL_850_dewp_093.txt.gz
Dewpoint
7 6 3 5 7 7 7 7 7 7 8 8 8 8 8 8 7 7 7 8 7 5 3 2 1 1 2 3 5 4 6 6 6 5 5 5 5 5 4 5 5 5 5
8 7 4 5 6 7 7 7 7 7 7 7 7 8 7 7 5 6 5 5 5 4 3 3 2 3 2 2 5 6 6 5 6 6 5 5 5 4 4 4 4 4 4
9 8 6 5 7 7 7 8 8 7 7 7 7 7 7 7 5 4 4 4 4 4 4 2 2 2 4 5 6 6 5 5 5 6 5 5 5 4 4 4 4 4 4
9 9 8 6 5 6 7 7 7 8 8 7 7 7 6 6 4 4 4 3 3 3 3 3 3 2 2 4 5 5 5 5 5 6 6 5 5 5 5 5 5 5 5
9 9 9 8 7 7 7 7 8 7 8 8 8 7 7 6 5 4 4 4 4 4 4 3 3 2 2 2 3 3 3 4 5 5 6 6 5 6 6 6 6 7 7
10 10 9 9 9 8 8 8 8 8 8 7 8 8 8 7 7 6 5 5 4 4 3 3 2 2 2 2 3 3 4 3 4 4 5 6 6 6 7 7 7 7 6
9 9 9 9 10 9 9 9 9 9 9 9 8 8 8 7 7 7 7 7 7 7 6 5 4 4 3 3 2 1 1 2 3 3 4 5 6 6 7 7 7 7 7
10 10 9 9 9 9 9 9 9 10 9 9 9 9 9 9 8 8 8 8 8 8 8 8 8 8 8 7 7 5 4 3 2 3 4 6 7 7 7 7 7 7 7
8 8 8 9 9 9 9 9 9 9 9 9 10 9 9 9 9 9 9 9 9 8 8 8 8 8 8 7 7 7 7 7 7 7 8 8 8 8 8 7 7 7 6
4 4 6 6 7 8 8 9 9 9 9 9 9 9 9 9 9 9 9 9 9 9 9 9 9 9 8 8 8 8 7 8 7 8 8 7 7 7 7 5 4 3 3
3 2 2 2 3 4 6 7 8 8 9 9 9 9 9 9 9 9 9 9 9 9 8 8 8 8 8 8 8 8 7 7 7 6 3 2 -0 -1 -1 -1 -1 -1 -1
3 2 2 1 1 1 3 5 6 7 7 7 8 8 8 8 8 8 9 9 9 8 7 6 7 8 8 8 6 5 4 5 4 -0 -3 -3 -3 -4 -4 -4 -5 -5 -5
2 3 2 1 1 1 2 2 3 4 5 5 6 5 5 5 5 5 4 4 3 4 5 5 3 -1 -1 2 2 2 1 -2 -5 -4 -5 -5 -5 -6 -6 -6 -6 -7 -7
1 2 2 1 1 1 1 0 0 1 1 1 1 1 1 0 -0 -1 -0 -0 -1 -1 -1 -2 -2 -1 -2 -4 -4 -4 -4 -5 -5 -5 -7 -8 -8 -8 -8 -8 -8 -8 -9
0 -0 -1 0 0 0 -1 -1 -1 -1 -1 -1 -2 -2 -2 -3 -3 -4 -3 -3 -3 -4 -4 -4 -5 -6 -6 -6 -7 -7 -7 -7 -7 -8 -8 -8 -9 -9 -9 -9 -9 -10 -12
-1 -2 -2 -2 -2 -3 -4 -4 -4 -4 -4 -4 -4 -5 -6 -6 -6 -5 -5 -5 -5 -5 -5 -6 -7 -7 -8 -8 -9 -9 -9 -9 -10 -10 -10 -10 -10 -10 -12 -18 -29 -32 -32
-2 -3 -4 -4 -4 -5 -6 -6 -6 -6 -6 -6 -7 -7 -7 -7 -7 -7 -7 -6 -6 -6 -6 -8 -9 -9 -9 -9 -9 -10 -10 -10 -11 -10 -11 -15 -26 -30 -31 -31 -31 -31 -31
-5 -5 -5 -6 -6 -7 -7 -7 -8 -8 -8 -8 -8 -8 -8 -7 -7 -7 -7 -7 -7 -8 -8 -9 -10 -10 -11 -11 -11 -11 -11 -13 -22 -28 -29 -30 -30 -30 -30 -30 -30 -29 -28
-7 -7 -7 -7 -7 -7 -8 -8 -8 -8 -9 -9 -9 -9 -8 -8 -8 -8 -8 -8 -9 -10 -10 -10 -11 -11 -11 -12 -14 -18 -23 -27 -27 -28 -30 -29 -29 -29 -29 -28 -27 -27 -27
-8 -8 -8 -8 -8 -8 -9 -9 -9 -9 -9 -9 -10 -10 -10 -9 -9 -9 -10 -10 -11 -11 -12 -12 -13 -15 -17 -21 -24 -25 -27 -28 -28 -29 -29 -29 -29 -28 -28 -27 -27 -27 -27
-9 -9 -9 -9 -9 -9 -9 -9 -10 -10 -10 -10 -11 -11 -11 -10 -11 -11 -12 -12 -14 -15 -17 -20 -23 -25 -26 -27 -28 -28 -28 -28 -28 -28 -28 -28 -28 -28 -27 -27 -27 -27 -26
-9 -9 -9 -9 -10 -10 -10 -10 -11 -11 -11 -11 -12 -12 -13 -13 -14 -15 -17 -19 -22 -25 -26 -26 -28 -29 -29 -29 -29 -28 -28 -28 -28 -28 -28 -28 -28 -28 -27 -27 -26 -25 -25
-10 -10 -10 -10 -11 -11 -11 -11 -12 -12 -13 -14 -15 -16 -21 -26 -27 -28 -27 -27 -27 -28 -28 -29 -29 -29 -29 -29 -29 -29 -28 -28 -28 -28 -28 -28 -28 -27 -26 -25 -25 -24 -23
-11 -11 -12 -12 -12 -13 -13 -14 -14 -17 -21 -24 -26 -27 -27 -28 -28 -28 -29 -29 -29 -29 -28 -29 -28 -28 -28 -28 -28 -28 -28 -28 -28 -28 -27 -27 -27 -25 -24 -24 -24 -23 -23
-17 -15 -15 -15 -16 -17 -19 -21 -22 -23 -23 -24 -25 -26 -27 -27 -28 -29 -29 -28 -28 -27 -27 -27 -27 -28 -28 -27 -27 -27 -28 -28 -28 -27 -27 -26 -25 -24 -24 -23 -23 -22 -22
-23 -23 -23 -22 -22 -22 -22 -23 -24 -24 -24 -25 -26 -26 -27 -27 -27 -27 -28 -28 -27 -27 -27 -27 -27 -27 -27 -27 -27 -27 -28 -28 -27 -26 -25 -24 -24 -23 -23 -22 -22 -22 -22

GFSGL_850_dewp_096.txt.gz
Dewpoint
8 8 7 4 5 7 7 7 7 7 7 8 8 8 8 8 7 6 6 6 7 6 6 7 6 6 5 5 5 5 4 4 5 4 4 4 5 6 5 5 5 5 5
9 8 7 5 5 7 8 7 7 7 7 8 8 8 9 8 8 7 7 7 7 8 7 6 6 5 5 4 3 3 2 3 4 4 5 5 5 5 5 5 5 4 4
9 9 8 7 5 5 6 7 7 8 8 8 8 8 8 8 8 7 7 7 7 7 7 7 6 5 5 3 2 2 2 2 3 6 6 5 5 4 5 5 5 5 5
9 9 9 8 8 6 6 6 6 7 8 8 8 8 7 8 8 8 7 7 6 6 6 6 7 6 4 2 2 2 3 3 4 5 6 6 6 5 5 5 5 4 4
10 10 9 9 9 8 7 7 7 6 6 7 8 8 8 7 7 8 7 7 6 5 5 4 5 5 4 4 4 3 3 3 4 4 5 5 5 6 4 4 5 3 3
10 10 10 10 9 9 9 8 8 8 8 7 7 7 7 8 8 7 7 6 6 4 4 4 4 3 3 3 3 3 3 3 3 3 4 6 6 5 4 4 4 5 6
9 9 9 8 9 9 9 9 9 9 9 9 9 9 8 8 7 7 8 8 8 7 6 5 5 5 5 4 4 3 3 3 3 3 5 5 6 6 5 6 6 5 5
8 8 8 8 9 9 9 9 9 9 9 9 9 9 9 9 9 9 9 8 8 8 7 7 7 7 7 7 7 7 7 6 6 6 5 6 6 6 6 6 6 6 6
8 8 8 8 8 8 9 9 9 9 8 8 9 9 9 9 9 9 9 9 8 8 8 9 9 8 8 8 8 8 8 8 8 7 7 6 6 6 6 6 6 6 6
2 3 4 5 6 7 7 7 8 8 9 9 9 9 9 9 9 9 9 9 8 8 8 8 8 7 8 8 8 7 6 6 6 6 6 6 5 5 5 6 6 5 4
2 2 1 1 1 1 2 4 6 7 7 8 8 8 8 8 8 8 8 8 8 7 7 6 6 6 6 6 6 6 5 5 5 5 3 2 0 -1 -0 -0 -0 0 -0
2 2 2 1 1 1 1 2 3 5 5 6 6 6 5 5 5 5 6 6 6 5 5 5 5 5 5 5 4 4 4 4 3 2 -0 -1 -2 -3 -4 -4 -4 -4 -4
1 1 1 1 1 1 1 1 1 1 1 2 3 3 3 2 2 2 1 1 1 2 2 1 0 0 -0 0 1 -0 -1 -2 -3 -3 -5 -6 -7 -7 -7 -7 -7 -7 -6
0 0 -0 0 0 -0 -1 -1 -1 -1 -1 -1 -1 -1 -2 -2 -2 -2 -2 -2 -2 -2 -3 -3 -3 -3 -3 -4 -4 -4 -5 -5 -6 -7 -9 -9 -9 -9 -8 -9 -8 -9 -8
-1 -1 -1 -1 -1 -1 -2 -3 -3 -3 -3 -3 -3 -3 -4 -4 -5 -5 -4 -4 -4 -4 -4 -5 -5 -6 -6 -7 -7 -7 -8 -8 -8 -9 -9 -9 -9 -9 -9 -9 -9 -11 -14
-2 -2 -2 -3 -3 -3 -4 -4 -5 -7 -6 -6 -6 -6 -6 -6 -6 -6 -5 -6 -6 -6 -6 -7 -7 -8 -8 -8 -9 -9 -9 -9 -9 -9 -9 -10 -10 -11 -17 -27 -32 -34 -33
-4 -4 -4 -4 -5 -5 -6 -6 -6 -7 -6 -7 -7 -7 -7 -7 -7 -7 -7 -7 -7 -7 -8 -9 -9 -9 -10 -10 -10 -10 -10 -10 -10 -10 -13 -20 -30 -32 -32 -32 -31 -30 -30
-6 -6 -6 -6 -6 -7 -7 -7 -8 -8 -8 -8 -8 -8 -8 -8 -8 -8 -8 -7 -8 -8 -9 -10 -10 -10 -11 -11 -11 -12 -14 -20 -27 -30 -31 -32 -32 -31 -31 -30 -30 -29 -29
-7 -7 -7 -8 -8 -8 -8 -8 -8 -8 -9 -9 -9 -9 -9 -9 -9 -9 -8 -9 -9 -10 -10 -10 -11 -11 -13 -18 -24 -28 -30 -31 -31 -31 -31 -31 -31 -30 -30 -29 -29 -29 -28
-8 -9 -9 -9 -9 -9 -9 -9 -9 -9 -9 -10 -10 -10 -10 -9 -9 -10 -10 -10 -11 -11 -12 -15 -18 -22 -25 -27 -28 -29 -30 -30 -30 -31 -31 -30 -30 -30 -29 -29 -28 -28 -27
-9 -9 -9 -9 -9 -10 -10 -10 -10 -10 -10 -10 -11 -11 -11 -10 -11 -11 -13 -16 -19 -22 -26 -27 -27 -28 -28 -29 -29 -29 -29 -29 -30 -30 -29 -29 -29 -28 -28 -28 -27 -26 -26
-10 -10 -10 -10 -10 -10 -10 -11 -11 -11 -11 -12 -12 -12 -14 -15 -17 -20 -23 -26 -27 -27 -28 -29 -29 -29 -29 -29 -29 -29 -29 -29 -29 -29 -28 -28 -28 -27 -27 -26 -25 -25 -25
-11 -11 -11 -11 -11 -12 -12 -12 -12 -13 -14 -16 -18 -22 -26 -28 -28 -29 -29 -29 -29 -29 -29 -29 -29 -29 -29 -29 -29 -29 -29 -28 -28 -28 -28 -28 -28 -27 -26 -25 -25 -24 -24
-12 -12 -12 -12 -13 -13 -14 -15 -18 -22 -24 -25 -26 -27 -28 -28 -29 -29 -29 -29 -28 -28 -28 -28 -28 -28 -28 -28 -28 -28 -28 -28 -28 -28 -28 -28 -27 -26 -25 -24 -24 -24 -23
-19 -17 -16 -17 -18 -20 -22 -22 -23 -23 -24 -25 -26 -26 -27 -27 -28 -28 -28 -28 -27 -27 -27 -27 -27 -27 -27 -28 -28 -28 -28 -28 -28 -28 -27 -26 -25 -24 -24 -24 -23 -23 -23
-23 -23 -23 -23 -23 -23 -23 -24 -24 -25 -25 -26 -27 -27 -27 -27 -27 -27 -27 -27 -27 -27 -27 -27 -27 -27 -27 -27 -27 -27 -27 -27 -27 -27 -26 -25 -24 -24 -24 -23 -23 -22 -22

GFSGL_850_dewp_099.txt.gz
Dewpoint
9 9 9 8 6 5 7 7 7 7 8 8 8 8 8 8 8 8 8 8 7 6 4 5 6 6 7 5 3 3 2 4 5 3 4 4 4 4 4 4 4 3 5
9 9 9 8 6 4 6 7 7 7 8 8 8 8 7 7 8 8 7 7 7 6 5 6 6 6 5 3 4 3 3 4 6 4 5 5 3 3 4 5 5 6 5
10 9 9 8 6 4 6 7 7 7 7 7 8 8 8 8 8 8 7 7 6 5 4 5 6 6 5 4 6 6 5 5 5 5 3 3 3 3 3 4 5 5 5
9 9 9 8 8 5 6 7 7 7 7 7 7 7 8 8 8 8 8 8 7 6 7 7 7 7 7 7 7 6 5 5 4 3 2 2 3 3 5 5 7 6 5
10 10 9 9 9 9 6 6 7 7 7 7 8 8 8 8 7 7 7 8 8 7 7 7 6 6 6 7 7 7 6 6 4 4 5 6 6 6 6 6 6 3 3
9 10 10 10 9 9 9 7 7 7 7 7 6 6 6 7 7 7 7 7 7 7 7 7 6 5 5 5 4 5 6 6 5 5 5 6 5 5 5 5 5 6 6
8 9 9 9 8 8 9 9 9 9 8 8 8 8 8 8 8 8 7 8 8 8 8 7 7 6 5 4 4 4 4 4 4 4 5 6 6 5 5 5 6 6 6
8 8 8 8 8 8 8 8 8 8 8 9 9 9 9 8 9 9 9 9 8 8 8 8 8 8 8 8 7 7 7 7 7 6 6 6 6 6 6 6 6 6 6
7 6 7 7 7 8 8 8 8 8 8 8 8 8 8 8 8 8 9 9 8 9 8 8 7 8 7 7 7 6 7 7 6 6 6 6 5 6 6 6 6 6 5
2 2 4 5 6 6 6 7 7 7 8 8 7 8 8 7 8 8 8 8 8 7 7 7 7 7 7 7 6 6 6 5 5 5 5 5 4 4 4 4 5 4 3
1 1 1 1 1 1 2 4 5 5 6 6 6 6 6 6 6 7 8 8 7 7 6 6 5 6 5 5 5 5 5 5 5 4 3 3 2 1 -0 -0 -0 0 -0
2 1 1 1 1 1 1 1 2 3 4 4 4 4 4 4 4 4 4 5 4 4 4 4 3 2 2 2 2 3 3 3 2 1 -1 -2 -3 -3 -5 -5 -5 -5 -5
0 1 1 1 0 0 -0 -0 -1 -0 0 1 1 2 2 1 0 -0 -0 -1 -0 0 0 -1 -1 -2 -2 -2 -2 -2 -2 -2 -2 -3 -4 -5 -6 -7 -7 -7 -7 -8 -7
-1 -0 -1 -1 -1 -1 -1 -2 -2 -2 -3 -2 -2 -2 -3 -3 -3 -3 -3 -3 -3 -3 -4 -4 -4 -4 -4 -4 -4 -4 -5 -5 -5 -6 -7 -8 -8 -8 -8 -8 -8 -8 -8
-2 -2 -2 -2 -2 -2 -3 -3 -4 -4 -4 -4 -4 -5 -4 -5 -5 -5 -5 -5 -5 -5 -5 -6 -6 -6 -7 -7 -7 -7 -8 -8 -8 -9 -9 -9 -9 -9 -9 -10 -12 -16 -19
-3 -3 -3 -4 -4 -4 -5 -5 -6 -6 -6 -6 -6 -6 -6 -6 -6 -6 -6 -6 -6 -6 -7 -7 -8 -8 -9 -9 -9 -9 -9 -9 -9 -10 -10 -11 -13 -18 -24 -30 -33 -33 -32
-5 -5 -5 -5 -5 -5 -6 -6 -7 -7 -7 -7 -7 -7 -7 -7 -7 -7 -7 -7 -7 -8 -8 -9 -9 -10 -10 -10 -10 -10 -11 -12 -14 -19 -27 -32 -32 -33 -32 -32 -32 -31 -31
-7 -6 -6 -6 -6 -7 -7 -7 -8 -8 -8 -8 -8 -8 -8 -8 -8 -8 -8 -8 -9 -9 -9 -10 -10 -10 -11 -11 -13 -17 -26 -31 -32 -33 -32 -32 -32 -31 -31 -31 -30 -30 -28
-8 -8 -8 -8 -8 -8 -8 -8 -8 -8 -8 -9 -9 -9 -9 -9 -9 -8 -9 -9 -10 -10 -10 -11 -12 -16 -23 -29 -30 -31 -32 -32 -32 -32 -32 -31 -31 -30 -30 -30 -29 -29 -28
-9 -9 -9 -9 -9 -9 -9 -9 -9 -9 -9 -9 -10 -10 -10 -10 -10 -10 -10 -11 -12 -14 -18 -24 -27 -29 -30 -30 -30 -30 -31 -31 -31 -31 -31 -30 -30 -29 -29 -29 -28 -27 -27
-10 -10 -10 -10 -10 -10 -10 -10 -10 -10 -10 -10 -11 -11 -11 -11 -11 -13 -16 -21 -24 -27 -28 -28 -29 -29 -30 -30 -30 -30 -31 -31 -31 -30 -30 -29 -29 -28 -28 -27 -27 -26 -26
-11 -11 -11 -11 -11 -11 -11 -11 -11 -11 -12 -12 -12 -13 -15 -17 -21 -24 -27 -28 -29 -29 -30 -30 -30 -30 -30 -30 -30 -30 -30 -30 -29 -29 -29 -28 -28 -27 -27 -26 -25 -25 -25
-12 -12 -12 -12 -12 -12 -12 -12 -13 -14 -16 -18 -22 -25 -27 -29 -29 -29 -30 -30 -30 -30 -30 -29 -29 -29 -29 -29 -29 -29 -29 -29 -29 -28 -28 -28 -27 -26 -26 -25 -25 -24 -24
-13 -13 -13 -13 -13 -14 -14 -16 -21 -24 -25 -26 -27 -27 -28 -29 -29 -29 -29 -29 -28 -28 -28 -28 -28 -28 -28 -28 -28 -28 -28 -28 -28 -28 -28 -27 -26 -26 -25 -24 -24 -23 -23
-21 -19 -18 -18 -19 -21 -22 -23 -23 -24 -24 -25 -26 -27 -27 -28 -28 -28 -28 -28 -28 -27 -27 -27 -27 -28 -28 -28 -28 -28 -27 -27 -28 -28 -27 -26 -25 -24 -24 -23 -23 -23 -23
-24 -23 -23 -22 -22 -23 -23 -23 -24 -25 -25 -26 -27 -27 -27 -27 -27 -27 -27 -27 -27 -27 -27 -27 -27 -27 -28 -28 -28 -28 -28 -28 -27 -27 -27 -26 -25 -24 -23 -23 -23 -22 -22

GFSGL_850_dewp_102.txt.gz
Dewpoint
10 10 9 9 9 9 8 6 6 6 8 8 8 8 8 9 9 9 9 9 9 8 8 7 7 7 7 7 5 6 5 3 4 3 3 5 6 4 3 4 3 4 3
10 10 10 9 9 8 8 6 6 7 8 8 8 8 8 8 9 8 9 8 8 8 8 7 7 7 6 6 5 7 7 7 6 6 3 2 5 7 7 7 4 3 4
10 11 10 9 9 8 8 8 7 7 7 8 8 8 7 7 7 7 7 7 7 7 7 7 6 7 7 7 5 5 6 5 5 5 4 5 6 6 7 7 8 7 3
9 10 10 9 8 8 8 7 7 7 8 7 8 7 7 7 7 7 7 7 6 6 6 6 5 5 5 5 5 5 6 5 4 5 6 5 6 6 6 6 6 6 7
10 9 9 8 8 7 7 7 7 7 8 8 8 8 8 7 7 7 7 7 8 7 6 6 6 6 6 6 6 7 7 6 6 7 7 6 5 5 6 6 6 6 6
9 8 9 9 9 9 7 7 7 7 8 8 8 8 8 8 8 8 7 8 7 8 8 7 7 7 8 7 7 6 7 7 7 7 7 7 6 6 6 6 6 7 7
8 8 8 8 8 9 9 9 8 8 8 8 8 7 8 7 7 7 8 8 8 8 7 7 8 8 8 7 7 6 6 5 6 6 7 7 7 7 7 6 6 6 7
7 7 8 8 8 9 8 8 8 8 8 8 8 8 7 8 8 8 8 8 7 8 8 8 8 8 8 7 7 7 7 7 6 6 6 6 6 6 6 6 6 6 6
6 6 6 6 8 8 8 8 8 8 8 8 8 8 8 8 8 8 8 8 8 8 7 7 7 7 6 7 6 6 6 6 6 6 6 6 5 5 5 5 5 5 5
4 4 4 5 6 6 6 7 7 7 7 7 7 7 8 8 8 8 8 8 8 8 8 7 7 7 7 7 6 6 5 5 5 4 4 4 4 4 4 4 3 3 2
2 2 2 2 2 3 4 5 5 6 5 5 5 5 5 5 6 6 6 6 6 6 6 5 5 5 5 5 5 5 5 4 4 3 2 2 2 -1 -1 -1 -2 -1 -1
1 1 0 0 1 1 2 2 2 3 3 3 3 3 3 3 3 3 2 3 3 3 3 2 2 1 1 1 1 1 1 1 0 -1 -1 -2 -3 -3 -4 -6 -6 -6 -6
-0 -0 -0 -1 -1 -1 -1 -1 -1 -0 0 0 1 1 -0 -1 -1 -2 -1 -1 -0 -0 -0 -1 -1 -3 -3 -3 -3 -3 -3 -3 -3 -3 -4 -5 -6 -7 -7 -7 -7 -8 -8
-1 -1 -1 -1 -2 -2 -3 -3 -3 -4 -3 -3 -3 -3 -3 -3 -4 -4 -3 -3 -4 -3 -4 -4 -5 -5 -5 -4 -5 -5 -5 -5 -6 -6 -7 -8 -8 -8 -9 -9 -9 -9 -10
-3 -3 -3 -3 -3 -3 -4 -4 -5 -4 -5 -5 -5 -5 -5 -5 -5 -5 -5 -5 -5 -5 -6 -6 -6 -7 -7 -7 -7 -8 -8 -8 -8 -9 -9 -9 -9 -10 -11 -13 -15 -16 -17
-5 -4 -4 -5 -6 -7 -6 -6 -6 -6 -6 -6 -6 -6 -7 -6 -6 -7 -7 -7 -7 -7 -7 -8 -8 -8 -9 -9 -9 -9 -9 -9 -9 -10 -10 -12 -16 -20 -22 -24 -22 -19 -18
-6 -7 -7 -8 -8 -8 -9 -8 -7 -7 -7 -7 -7 -7 -7 -7 -7 -8 -8 -8 -8 -9 -9 -9 -10 -10 -10 -10 -11 -12 -13 -16 -20 -22 -25 -26 -25 -27 -20 -17 -16 -16 -17
-7 -7 -7 -7 -8 -8 -8 -8 -9 -9 -9 -8 -8 -8 -8 -8 -8 -8 -9 -9 -9 -9 -10 -11 -11 -12 -13 -14 -16 -20 -27 -30 -32 -32 -31 -31 -27 -19 -20 -20 -19 -17 -17
-8 -8 -8 -8 -8 -9 -9 -9 -10 -10 -10 -10 -10 -9 -9 -9 -9 -9 -9 -10 -10 -11 -12 -13 -14 -15 -17 -21 -27 -30 -31 -32 -31 -30 -32 -31 -29 -22 -25 -21 -23 -29 -19
-9 -9 -9 -9 -9 -9 -9 -9 -9 -10 -10 -10 -10 -10 -10 -10 -10 -10 -11 -12 -15 -18 -20 -22 -24 -26 -28 -29 -30 -31 -30 -31 -31 -31 -31 -30 -28 -22 -20 -19 -19 -16 -19
-10 -10 -10 -10 -10 -10 -10 -10 -10 -10 -10 -10 -11 -11 -11 -11 -12 -14 -20 -24 -25 -23 -23 -25 -28 -29 -29 -30 -29 -30 -31 -31 -31 -30 -28 -28 -29 -23 -22 -22 -20 -19 -23
-11 -11 -11 -11 -11 -11 -11 -11 -11 -11 -12 -12 -12 -13 -15 -18 -23 -27 -28 -29 -30 -30 -30 -30 -30 -31 -31 -31 -31 -30 -30 -30 -30 -30 -29 -29 -27 -26 -23 -23 -19 -18 -18
-12 -12 -12 -12 -12 -12 -12 -12 -12 -13 -15 -18 -22 -26 -28 -30 -30 -30 -30 -31 -31 -31 -30 -30 -30 -30 -30 -29 -29 -29 -29 -29 -29 -29 -29 -28 -27 -22 -22 -19 -20 -19 -20
-15 -14 -13 -13 -13 -14 -14 -17 -21 -24 -25 -25 -27 -28 -29 -29 -30 -30 -30 -29 -29 -29 -29 -29 -29 -29 -29 -29 -28 -28 -28 -28 -28 -28 -28 -28 -26 -25 -23 -21 -20 -23 -20
-18 -17 -17 -16 -17 -18 -18 -19 -20 -22 -23 -24 -25 -27 -28 -29 -29 -29 -29 -28 -28 -28 -28 -28 -28 -28 -28 -28 -28 -28 -28 -28 -28 -28 -27 -27 -26 -25 -24 -22 -23 -20 -21
-22 -21 -19 -18 -18 -18 -18 -18 -19 -22 -23 -25 -27 -27 -27 -28 -28 -28 -28 -28 -28 -27 -27 -27 -27 -27 -28 -28 -28 -28 -28 -28 -28 -28 -28 -27 -26 -24 -23 -22 -22 -21 -21

GFSGL_850_dewp_105.txt.gz
Dewpoint
11 11 11 11 12 11 10 10 10 8 10 9 8 9 9 8 9 9 9 9 9 9 9 9 9 8 9 8 8 8 7 7 6 5 5 4 5 5 5 5 4 4 4
10 10 11 11 11 11 10 9 10 9 9 9 8 8 8 8 9 9 9 9 9 9 8 8 9 8 8 8 8 8 8 7 6 6 5 3 3 4 5 5 6 6 5
10 10 10 11 11 11 10 9 10 9 10 9 8 9 8 8 8 9 9 9 9 9 8 8 8 8 7 7 7 7 8 7 6 7 7 7 7 6 5 4 3 6 6
10 10 10 10 10 10 9 9 9 9 10 10 9 8 8 8 9 8 8 8 8 7 7 7 7 7 7 7 7 7 7 7 7 7 6 6 6 6 6 6 6 6 6
9 10 10 10 10 9 9 9 9 9 9 9 8 8 9 9 8 9 8 8 8 8 8 8 8 8 8 7 7 7 7 7 6 5 5 6 6 5 6 5 6 5 5
9 9 9 9 9 8 9 8 8 9 9 8 8 8 8 8 9 8 9 9 9 9 9 9 8 7 7 6 6 6 7 8 7 7 7 7 7 7 6 7 7 7 7
8 9 9 9 9 8 8 9 9 8 8 8 8 8 8 8 8 8 8 8 8 8 8 7 8 8 7 7 7 7 7 7 7 7 7 7 8 7 7 7 7 7 7
6 6 7 8 8 8 8 8 8 8 8 7 8 8 8 7 8 7 8 7 8 8 8 8 8 8 8 8 8 8 8 8 7 7 7 7 7 6 6 6 5 5 6
3 1 2 5 6 7 7 7 7 8 8 8 8 8 8 8 8 8 8 8 7 7 7 8 8 8 8 8 8 8 7 7 7 7 6 6 6 6 6 6 6 5 5
1 1 0 2 4 4 5 5 6 6 6 6 7 7 7 7 7 8 8 8 8 7 7 7 7 7 7 7 7 7 6 5 5 5 5 5 5 4 4 4 4 2 2
0 0 -0 1 2 2 2 4 3 3 4 4 3 3 3 4 5 5 6 6 6 5 4 4 4 5 5 5 5 5 5 4 3 3 2 1 0 0 -0 -1 -1 -2 -2
0 0 1 2 2 2 3 3 1 1 2 2 2 2 1 1 2 3 3 3 4 3 3 2 2 2 2 2 1 1 1 0 0 -1 -2 -2 -2 -3 -4 -6 -6 -6 -6
-1 -1 -1 0 -1 -1 -0 0 0 0 0 1 1 0 0 -0 -1 -1 -0 0 0 1 1 -0 -1 -2 -3 -3 -3 -3 -3 -3 -3 -3 -4 -4 -6 -6 -7 -7 -8 -8 -8
-4 -3 -3 -1 -1 -1 -1 -3 -3 -4 -4 -3 -3 -3 -4 -4 -4 -4 -4 -3 -3 -3 -4 -5 -5 -5 -5 -5 -5 -5 -5 -5 -5 -6 -7 -8 -8 -8 -9 -9 -9 -9 -10
-6 -5 -5 -5 -5 -4 -4 -4 -5 -5 -5 -5 -5 -5 -5 -5 -5 -5 -5 -5 -5 -6 -6 -6 -7 -7 -7 -7 -7 -8 -8 -8 -8 -8 -8 -9 -9 -10 -12 -13 -11 -12 -14
-7 -7 -7 -7 -7 -8 -7 -7 -7 -6 -6 -6 -6 -6 -6 -6 -6 -6 -6 -7 -7 -7 -7 -7 -8 -9 -9 -9 -9 -9 -9 -10 -10 -10 -11 -11 -12 -12 -12 -12 -13 -14 -16
-7 -8 -8 -8 -8 -8 -8 -9 -8 -8 -7 -7 -7 -7 -7 -7 -7 -8 -8 -8 -8 -8 -9 -9 -10 -10 -11 -11 -11 -11 -12 -15 -15 -14 -13 -12 -12 -13 -13 -12 -12 -13 -15
-8 -8 -8 -8 -9 -9 -9 -9 -9 -10 -9 -8 -8 -8 -8 -8 -8 -9 -10 -9 -9 -10 -11 -11 -12 -12 -12 -13 -14 -14 -14 -16 -20 -18 -20 -20 -15 -15 -15 -17 -16 -16 -16
-9 -10 -9 -9 -9 -9 -9 -9 -10 -10 -10 -11 -11 -9 -9 -9 -9 -9 -9 -10 -11 -12 -12 -13 -13 -13 -13 -14 -15 -18 -25 -29 -26 -18 -18 -18 -16 -14 -15 -14 -14 -20 -16
-10 -10 -11 -10 -10 -11 -11 -11 -11 -11 -12 -11 -11 -11 -12 -11 -11 -11 -12 -13 -13 -14 -14 -14 -15 -15 -15 -15 -16 -15 -15 -16 -16 -15 -17 -17 -15 -15 -15 -15 -18 -15 -16
-11 -11 -11 -11 -11 -11 -12 -12 -12 -12 -13 -13 -11 -12 -13 -14 -14 -15 -15 -15 -15 -15 -16 -16 -16 -16 -16 -16 -16 -17 -20 -18 -25 -18 -21 -17 -20 -16 -16 -16 -16 -16 -16
-12 -12 -12 -12 -12 -12 -13 -13 -13 -13 -13 -14 -15 -16 -16 -15 -16 -16 -17 -17 -17 -17 -17 -17 -19 -25 -28 -25 -23 -19 -24 -26 -28 -25 -21 -19 -18 -17 -17 -17 -17 -17 -16
-13 -13 -13 -13 -13 -13 -13 -14 -14 -14 -15 -15 -15 -16 -16 -17 -17 -17 -18 -19 -19 -25 -24 -24 -27 -28 -27 -28 -28 -29 -29 -29 -29 -29 -29 -22 -18 -20 -18 -18 -18 -18 -18
-14 -14 -14 -15 -14 -14 -14 -15 -16 -18 -16 -16 -16 -17 -17 -18 -18 -20 -23 -23 -24 -27 -28 -29 -29 -29 -29 -29 -29 -29 -29 -29 -29 -29 -29 -28 -20 -19 -19 -19 -18 -18 -19
-15 -15 -15 -15 -15 -15 -15 -16 -16 -16 -17 -17 -17 -18 -18 -19 -19 -19 -23 -28 -28 -28 -28 -29 -29 -29 -29 -29 -29 -29 -29 -29 -29 -29 -29 -27 -22 -25 -20 -22 -20 -20 -19
-17 -17 -16 -16 -16 -16 -16 -17 -17 -18 -18 -18 -19 -19 -19 -20 -20 -21 -26 -28 -28 -28 -28 -28 -28 -28 -28 -28 -28 -28 -28 -29 -29 -29 -28 -28 -25 -21 -21 -21 -20 -21 -20

GFSGL_850_dewp_108.txt.gz
Dewpoint
8 11 12 12 11 12 11 10 9 10 9 7 9 9 9 9 9 9 9 9 9 9 9 9 9 8 8 9 9 8 8 8 7 6 5 5 5 5 6 6 5 4 4
11 11 11 11 11 12 11 10 10 9 7 6 9 10 9 10 9 9 9 8 9 9 9 9 9 9 9 9 8 9 9 9 8 8 7 6 5 5 4 4 5 5 5
11 11 11 11 11 12 11 10 10 7 8 9 9 9 9 9 9 9 9 9 9 8 9 9 9 9 8 8 8 8 8 8 8 8 8 7 6 4 4 5 5 5 5
9 10 10 11 11 11 10 10 9 9 9 9 8 8 8 8 8 8 9 9 9 9 8 8 9 8 8 8 8 7 7 8 8 8 7 7 6 5 6 7 6 6 6
9 10 10 11 11 11 10 10 9 9 8 8 8 8 8 9 8 8 8 8 8 8 7 8 8 8 7 7 7 7 7 7 6 6 7 7 7 7 6 5 6 6 6
9 9 10 10 10 10 10 9 8 8 8 8 8 8 8 8 8 8 8 8 8 8 8 8 7 7 7 7 7 7 7 7 7 8 7 7 6 6 6 6 7 7 7
6 8 9 9 10 9 9 9 8 8 8 8 8 8 9 8 8 8 8 9 8 8 8 8 8 8 8 8 7 7 7 7 7 7 8 7 8 7 7 7 7 7 7
2 4 5 7 8 8 8 8 8 8 8 8 8 8 8 8 8 8 7 8 8 8 8 8 8 8 8 8 8 8 8 8 7 7 7 7 7 7 7 7 7 7 7
1 1 2 2 3 5 6 7 8 8 8 8 8 8 8 8 7 8 8 7 7 7 7 7 8 8 7 8 8 7 7 7 7 7 7 7 7 7 7 7 6 6 5
-0 0 1 1 1 1 1 1 3 5 6 6 6 6 6 7 8 8 8 7 7 7 7 7 7 7 7 7 7 7 6 6 6 6 5 5 5 4 4 4 4 3 2
-0 -0 0 0 1 1 1 -0 -1 2 1 2 3 3 3 3 4 4 5 5 5 5 4 4 4 4 5 5 5 5 5 4 3 3 2 2 1 1 1 0 0 -1 -1
-1 -0 -0 -1 -0 0 0 -0 -1 -1 1 0 2 3 3 2 2 2 3 3 2 2 3 2 2 1 1 2 1 2 1 0 -0 -0 -1 -1 -2 -2 -3 -5 -6 -6 -7
-2 -2 -2 -1 -0 -0 -0 -1 -0 -0 -1 -1 -0 -1 -1 -1 -0 -1 -1 -0 -0 1 0 -1 -1 -3 -3 -3 -3 -3 -3 -2 -2 -2 -2 -4 -5 -6 -7 -8 -8 -8 -8
-4 -4 -4 -3 -2 -1 -1 -1 -1 -2 -3 -2 -3 -4 -4 -4 -4 -3 -3 -3 -3 -3 -5 -5 -5 -5 -5 -4 -4 -4 -4 -5 -5 -6 -7 -8 -8 -9 -9 -10 -10 -10 -12
-6 -6 -6 -5 -5 -5 -4 -4 -4 -5 -5 -5 -5 -5 -5 -5 -6 -6 -5 -6 -6 -7 -7 -6 -6 -7 -7 -7 -7 -7 -8 -8 -8 -9 -9 -10 -10 -12 -14 -13 -13 -15 -19
-7 -7 -7 -7 -7 -7 -7 -7 -7 -6 -6 -6 -6 -6 -7 -7 -7 -7 -8 -8 -8 -7 -7 -8 -9 -9 -9 -9 -9 -9 -9 -9 -10 -10 -11 -12 -15 -14 -16 -18 -17 -18 -19
-8 -8 -8 -8 -8 -8 -8 -8 -8 -8 -7 -7 -7 -8 -8 -9 -9 -9 -8 -8 -8 -8 -8 -9 -10 -10 -10 -11 -11 -12 -14 -14 -15 -16 -17 -16 -15 -17 -17 -18 -16 -15 -17
-9 -9 -9 -9 -9 -9 -9 -9 -9 -9 -9 -9 -9 -9 -9 -9 -9 -9 -9 -9 -10 -10 -10 -11 -12 -12 -13 -14 -14 -15 -17 -19 -22 -23 -23 -21 -18 -19 -19 -22 -27 -22 -18
-10 -10 -10 -10 -10 -10 -10 -10 -10 -10 -10 -11 -11 -10 -10 -9 -9 -9 -10 -10 -11 -12 -13 -14 -14 -14 -15 -16 -15 -20 -23 -24 -23 -23 -25 -23 -19 -19 -21 -17 -15 -16 -17
-11 -11 -10 -10 -10 -10 -10 -11 -11 -11 -11 -11 -11 -12 -12 -11 -10 -11 -12 -13 -14 -15 -15 -17 -18 -17 -16 -18 -18 -16 -20 -21 -20 -20 -23 -23 -20 -17 -16 -17 -18 -17 -19
-12 -11 -11 -11 -11 -11 -11 -12 -12 -12 -12 -11 -12 -12 -13 -12 -13 -14 -16 -16 -17 -17 -17 -18 -19 -20 -20 -19 -21 -23 -24 -26 -26 -23 -24 -23 -18 -18 -16 -18 -16 -16 -16
-12 -12 -12 -12 -12 -12 -12 -12 -13 -13 -13 -14 -14 -15 -15 -15 -16 -18 -20 -20 -20 -20 -19 -21 -25 -27 -27 -25 -24 -24 -27 -29 -28 -27 -26 -21 -17 -17 -17 -17 -18 -17 -17
-13 -13 -13 -13 -13 -14 -14 -14 -14 -14 -15 -15 -15 -16 -17 -17 -17 -19 -21 -22 -25 -25 -26 -26 -28 -28 -27 -28 -29 -29 -29 -29 -30 -30 -29 -25 -21 -21 -19 -18 -18 -18 -20
-14 -14 -14 -14 -15 -14 -14 -15 -15 -16 -15 -16 -16 -17 -17 -18 -18 -21 -22 -22 -24 -26 -28 -29 -29 -29 -29 -29 -29 -29 -29 -29 -29 -29 -29 -28 -27 -24 -22 -20 -20 -19 -19
-15 -15 -15 -15 -15 -15 -15 -16 -16 -16 -16 -17 -17 -17 -18 -18 -18 -20 -23 -26 -27 -27 -28 -28 -28 -28 -29 -29 -29 -29 -29 -29 -29 -29 -29 -28 -28 -24 -21 -21 -20 -21 -20
-17 -17 -16 -16 -16 -16 -16 -16 -17 -17 -17 -18 -18 -18 -19 -19 -19 -20 -23 -26 -27 -26 -26 -28 -27 -27 -28 -28 -28 -28 -28 -28 -29 -29 -28 -28 -28 -26 -25 -23 -22 -22 -21

GFSGL_850_dewp_111.txt.gz
Dewpoint
4 7 8 8 9 10 11 11 11 11 10 10 8 9 9 9 9 9 9 9 9 9 9 9 9 9 9 9 8 8 8 8 8 6 6 6 6 5 6 6 4 5 6
12 9 8 9 9 10 10 11 11 10 10 10 9 8 9 9 8 8 9 9 9 9 9 9 9 9 9 9 9 8 8 9 8 7 7 8 7 7 6 5 5 6 6
10 11 10 9 9 10 11 12 11 10 10 10 9 8 10 9 8 8 9 9 8 9 9 9 8 9 9 9 8 8 9 9 9 8 8 9 8 7 7 6 5 4 4
10 9 11 11 10 10 10 12 11 10 10 9 8 9 9 8 9 9 9 8 9 9 9 8 9 8 8 9 9 8 8 8 8 8 8 8 8 8 8 6 6 5 5
9 10 10 10 11 11 11 11 11 10 9 9 8 8 8 8 8 8 9 8 9 9 9 9 8 8 8 8 7 8 8 7 7 7 7 7 6 7 7 7 6 6 6
6 8 9 10 10 11 10 10 10 9 9 8 8 8 8 8 8 8 8 8 8 8 7 7 7 7 7 7 7 6 6 6 6 6 6 6 6 6 6 6 6 6 6
3 4 6 8 9 10 10 10 9 9 9 8 8 8 8 8 8 7 7 7 8 8 7 7 7 7 7 7 7 7 7 7 7 8 7 7 7 6 6 7 7 7 6
1 2 3 4 5 6 8 9 9 9 8 8 8 8 8 8 8 8 8 8 8 8 8 8 8 8 8 8 8 7 7 8 7 7 7 7 7 7 7 7 7 7 7
1 0 1 2 2 3 3 4 6 8 8 8 8 8 8 8 8 8 8 8 8 8 8 8 8 8 8 8 8 8 8 8 7 7 7 7 7 7 7 7 6 6 5
0 -0 1 1 1 1 1 1 1 0 3 0 3 3 6 7 8 8 8 8 8 8 7 7 7 8 8 7 7 7 7 6 6 6 6 6 6 6 6 5 5 4 4
-1 -0 0 1 0 0 0 1 0 0 1 0 1 1 3 4 4 4 6 7 6 6 5 5 5 5 6 6 5 5 5 5 4 4 2 2 2 2 2 2 1 1 1
-3 -1 -1 -0 -0 -0 -0 -0 -0 -0 0 0 1 1 1 1 1 2 3 3 3 2 2 1 1 1 2 2 2 2 -0 2 1 1 -1 -1 -1 -1 -2 -2 -3 -4 -5
-4 -3 -3 -2 -2 -2 -1 -0 -0 -1 -0 -0 -0 0 -1 -2 -1 -1 -1 -0 0 1 0 -1 -1 -1 -1 -0 0 -1 -2 -1 -1 -2 -2 -2 -3 -5 -6 -7 -7 -8 -8
-6 -6 -5 -4 -4 -3 -3 -3 -2 -2 -3 -3 -2 -2 -3 -3 -4 -4 -3 -2 -2 -2 -4 -4 -4 -4 -4 -4 -4 -4 -4 -4 -4 -4 -5 -7 -8 -8 -9 -9 -9 -10 -11
-7 -7 -7 -7 -7 -6 -5 -5 -5 -5 -5 -5 -6 -5 -5 -6 -6 -6 -5 -5 -5 -5 -5 -6 -6 -6 -6 -6 -7 -7 -7 -7 -8 -8 -9 -10 -10 -11 -11 -12 -14 -17 -20
-8 -8 -8 -8 -8 -8 -8 -8 -7 -7 -7 -7 -7 -7 -8 -8 -8 -7 -7 -7 -7 -7 -6 -7 -7 -8 -8 -8 -9 -9 -9 -9 -10 -10 -11 -11 -13 -16 -18 -19 -20 -23 -27
-9 -9 -9 -8 -8 -8 -9 -9 -8 -8 -8 -8 -8 -8 -9 -9 -9 -8 -8 -8 -8 -8 -8 -9 -10 -10 -10 -11 -12 -12 -12 -12 -12 -13 -14 -17 -19 -20 -21 -21 -20 -21 -21
-10 -10 -10 -9 -9 -9 -9 -10 -10 -10 -10 -10 -10 -10 -10 -9 -9 -9 -9 -9 -9 -10 -10 -11 -11 -12 -12 -12 -13 -15 -17 -18 -20 -21 -22 -22 -23 -25 -26 -27 -21 -20 -20
-11 -10 -10 -10 -10 -10 -10 -10 -10 -11 -11 -11 -11 -11 -10 -10 -10 -10 -10 -11 -11 -12 -12 -13 -14 -15 -17 -20 -23 -23 -24 -24 -25 -24 -22 -23 -23 -23 -24 -20 -19 -21 -19
-11 -11 -11 -11 -11 -11 -11 -11 -11 -11 -11 -11 -12 -12 -11 -11 -11 -11 -12 -13 -14 -16 -17 -17 -17 -17 -18 -16 -17 -19 -20 -22 -23 -23 -23 -21 -19 -20 -22 -21 -21 -22 -22
-12 -12 -12 -12 -12 -12 -12 -12 -13 -12 -12 -12 -13 -13 -13 -12 -12 -13 -14 -15 -17 -18 -18 -18 -18 -19 -20 -21 -22 -21 -23 -25 -25 -26 -25 -25 -22 -21 -21 -20 -18 -20 -21
-13 -13 -13 -13 -13 -13 -13 -13 -13 -13 -14 -14 -14 -14 -15 -16 -18 -20 -20 -20 -20 -20 -20 -22 -24 -24 -25 -24 -26 -27 -28 -29 -30 -28 -26 -26 -22 -20 -19 -20 -19 -20 -20
-14 -14 -15 -14 -14 -15 -15 -14 -14 -14 -15 -15 -15 -16 -17 -18 -19 -21 -22 -23 -24 -24 -26 -26 -28 -28 -28 -28 -28 -29 -30 -29 -29 -30 -29 -27 -25 -22 -19 -21 -21 -20 -21
-15 -15 -15 -14 -15 -15 -15 -16 -16 -16 -16 -16 -17 -17 -18 -19 -19 -21 -23 -25 -27 -28 -27 -28 -29 -30 -30 -30 -29 -30 -30 -30 -30 -29 -29 -29 -28 -27 -24 -23 -21 -19 -19
-16 -16 -15 -16 -15 -15 -16 -16 -16 -17 -17 -17 -17 -18 -18 -18 -19 -21 -23 -25 -27 -28 -28 -29 -29 -29 -29 -29 -29 -29 -29 -29 -29 -29 -29 -29 -28 -28 -26 -24 -23 -22 -21
-18 -17 -17 -17 -17 -16 -17 -17 -17 -17 -18 -18 -18 -18 -19 -19 -21 -22 -23 -25 -27 -28 -28 -28 -28 -29 -29 -29 -28 -28 -28 -28 -28 -29 -29 -29 -28 -28 -27 -26 -26 -24 -23

GFSGL_850_dewp_114.txt.gz
Dewpoint
11 8 6 6 9 10 9 9 8 8 11 11 10 10 9 9 10 9 9 9 8 9 9 9 9 9 8 8 9 8 8 7 7 7 7 7 7 7 7 6 7 8 7
10 11 11 7 9 9 9 9 9 10 11 10 11 8 7 10 9 9 9 9 9 9 9 9 9 9 9 9 9 9 8 8 8 8 8 8 7 7 6 7 7 6 6
9 10 11 12 12 12 10 9 9 10 11 11 10 9 9 9 9 9 8 8 9 9 9 9 9 9 9 9 9 9 9 8 8 9 8 8 8 7 8 8 7 6 6
8 9 10 11 11 10 10 9 9 10 11 10 10 10 9 8 8 8 8 9 9 9 9 9 9 9 9 9 9 9 9 9 9 8 8 8 8 8 8 8 8 6 6
5 7 9 9 11 11 10 9 9 10 11 10 10 10 8 8 8 9 8 8 9 9 8 8 9 8 8 8 8 8 8 9 8 8 8 8 8 8 8 8 8 8 7
3 4 5 7 9 10 10 10 11 11 10 10 10 8 8 8 8 8 9 9 8 9 8 9 8 9 8 8 8 8 7 7 7 8 7 7 6 6 6 6 6 7 7
1 2 3 4 5 9 9 10 9 9 9 9 9 9 8 8 8 8 7 8 9 8 8 8 8 7 7 7 6 6 6 7 7 7 7 6 5 6 6 6 7 7 7
0 1 1 2 2 3 3 8 8 9 9 9 8 8 9 8 8 7 7 7 8 8 7 7 7 7 7 7 6 6 6 6 6 7 7 7 7 7 6 6 6 7 7
-1 -0 0 1 1 1 2 2 2 3 5 6 8 8 8 8 8 8 7 7 7 8 7 7 7 7 7 7 7 7 7 6 7 7 7 7 7 7 7 7 7 7 7
-2 -2 -1 -1 0 -0 0 0 1 1 1 1 1 4 4 6 7 8 8 8 8 8 7 7 8 8 8 8 8 8 8 8 7 7 7 7 7 7 7 6 6 5 5
-3 -2 -1 -1 -1 -1 -0 0 1 0 0 1 1 1 2 2 2 3 4 5 5 6 6 7 7 7 7 7 6 7 6 7 5 4 5 4 3 4 4 4 3 3 2
-5 -3 -2 -2 -2 -2 -1 -0 -0 -0 0 -0 0 0 1 1 1 1 1 2 1 2 1 1 4 4 5 4 3 3 3 3 2 1 1 2 1 1 0 1 0 -1 -1
-6 -6 -5 -4 -3 -3 -2 -2 -1 -1 -1 -0 -0 -0 -0 -0 -1 -0 0 0 0 1 -0 -2 -1 1 1 2 1 -0 -1 -0 -0 -0 -1 -1 -1 -2 -3 -4 -5 -6 -6
-7 -7 -7 -6 -6 -5 -4 -4 -4 -4 -3 -3 -3 -3 -3 -3 -3 -3 -2 -2 -1 -1 -2 -2 -2 -2 -2 -2 -1 -2 -2 -3 -2 -2 -2 -4 -6 -7 -7 -8 -9 -9 -10
-8 -8 -8 -8 -8 -7 -7 -6 -6 -7 -7 -6 -6 -6 -6 -6 -6 -5 -5 -4 -4 -4 -4 -4 -4 -4 -4 -4 -4 -4 -4 -5 -5 -6 -7 -8 -9 -10 -10 -10 -11 -12 -16
-9 -8 -8 -8 -9 -9 -8 -8 -8 -8 -8 -8 -8 -8 -8 -8 -7 -7 -7 -7 -6 -6 -5 -5 -6 -6 -6 -6 -6 -7 -7 -8 -8 -9 -9 -10 -11 -13 -14 -16 -20 -24 -27
-10 -10 -9 -9 -9 -9 -9 -9 -9 -9 -9 -9 -9 -9 -9 -9 -8 -8 -8 -8 -8 -8 -7 -8 -8 -8 -8 -9 -9 -9 -9 -9 -10 -11 -12 -14 -16 -17 -18 -19 -21 -24 -27
-10 -10 -10 -10 -10 -10 -10 -10 -10 -9 -9 -9 -10 -10 -9 -9 -9 -9 -9 -9 -9 -9 -9 -10 -10 -10 -11 -12 -13 -13 -14 -14 -14 -15 -16 -17 -19 -20 -20 -20 -20 -21 -23
-12 -11 -11 -11 -11 -11 -11 -11 -11 -11 -11 -11 -10 -10 -10 -10 -10 -10 -11 -11 -11 -11 -12 -12 -14 -16 -18 -18 -17 -18 -19 -20 -20 -20 -21 -22 -23 -22 -23 -23 -23 -20 -19
-12 -12 -12 -12 -12 -12 -12 -12 -12 -11 -11 -12 -12 -12 -12 -11 -11 -11 -12 -13 -14 -15 -16 -17 -17 -17 -17 -17 -18 -19 -20 -22 -23 -22 -22 -21 -21 -22 -23 -23 -23 -23 -23
-13 -13 -13 -13 -13 -12 -13 -13 -13 -13 -13 -13 -13 -13 -13 -13 -13 -13 -14 -15 -16 -17 -17 -18 -18 -18 -19 -19 -19 -20 -22 -23 -24 -23 -23 -23 -23 -24 -24 -23 -23 -22 -22
-14 -14 -14 -13 -14 -14 -14 -13 -14 -14 -14 -14 -15 -15 -15 -16 -18 -19 -19 -18 -18 -19 -19 -20 -20 -20 -21 -21 -23 -24 -25 -25 -25 -25 -25 -24 -23 -22 -21 -21 -22 -23 -23
-15 -14 -14 -14 -14 -14 -15 -14 -14 -15 -15 -16 -16 -17 -18 -18 -19 -20 -21 -22 -22 -21 -22 -23 -25 -25 -26 -28 -28 -28 -28 -29 -29 -29 -28 -26 -25 -24 -24 -22 -22 -23 -23
-17 -15 -15 -15 -15 -15 -15 -16 -16 -16 -16 -17 -17 -18 -18 -19 -19 -21 -22 -24 -24 -25 -26 -28 -28 -29 -28 -29 -29 -30 -29 -29 -29 -29 -29 -29 -28 -26 -26 -24 -22 -22 -23
-20 -17 -16 -16 -16 -16 -16 -17 -17 -17 -17 -17 -18 -18 -18 -18 -19 -20 -22 -25 -26 -27 -28 -28 -28 -28 -28 -28 -28 -29 -29 -29 -29 -29 -29 -29 -29 -28 -26 -25 -23 -23 -23
-19 -19 -18 -18 -18 -17 -18 -18 -18 -18 -18 -18 -18 -19 -19 -19 -20 -21 -22 -24 -26 -26 -27 -27 -28 -27 -28 -27 -28 -28 -28 -28 -28 -29 -29 -29 -29 -28 -28 -28 -28 -27 -26

GFSGL_850_dewp_117.txt.gz
Dewpoint
9 10 10 8 7 5 8 9 7 9 9 8 8 10 11 11 11 11 10 9 9 9 9 9 9 9 9 9 9 9 9 8 7 7 7 6 6 5 4 6 5 5 6
7 9 10 11 10 11 8 7 8 8 9 9 8 9 10 10 10 10 9 8 8 9 9 9 9 8 9 9 9 9 8 8 8 7 7 7 6 5 6 7 7 7 7
6 8 9 10 10 11 12 9 8 9 9 9 9 10 10 10 10 10 9 8 8 9 8 8 9 9 9 9 8 9 9 9 8 8 7 7 8 8 8 7 7 8 7
4 6 8 9 10 10 11 11 11 10 9 8 9 9 11 9 8 9 8 8 9 8 8 8 8 9 9 9 9 9 9 9 9 8 8 9 8 8 8 8 8 7 8
3 4 5 6 8 9 11 11 11 11 10 9 9 10 10 10 9 8 8 8 8 9 9 9 9 9 9 8 8 9 9 9 8 8 8 8 8 8 8 8 8 8 8
1 2 3 4 6 7 9 10 10 10 10 11 10 11 10 10 9 8 8 8 8 9 9 9 9 8 8 9 8 8 8 8 8 8 8 8 8 8 8 8 8 8 7
0 1 1 2 3 4 5 7 8 8 9 10 10 10 10 9 9 8 7 8 8 9 9 9 7 8 8 8 8 8 8 8 7 7 7 7 7 7 7 6 6 6 7
-1 -0 -0 0 1 1 2 3 4 3 3 7 9 9 9 9 8 8 8 8 8 8 7 7 8 8 8 8 8 7 7 7 7 6 7 7 7 7 6 6 6 7 7
-1 -1 -1 -1 -1 -0 0 1 1 2 2 2 2 6 6 8 8 8 8 8 8 7 8 8 8 8 7 7 7 6 6 6 6 5 5 5 6 6 7 7 7 7 6
-3 -2 -1 -1 -1 -1 -1 -1 -0 0 1 1 2 2 2 3 6 8 8 8 8 7 7 7 7 7 7 7 7 7 7 7 6 6 7 7 7 7 7 7 7 7 7
-5 -4 -2 -2 -1 -1 -1 -1 -1 -0 -0 -0 1 1 2 1 1 2 3 4 5 5 5 6 7 7 7 7 7 7 7 7 7 6 6 6 6 6 6 6 5 4 4
-6 -6 -5 -4 -3 -2 -2 -1 -1 -1 -1 -1 -1 -0 0 1 1 1 0 1 1 2 2 1 2 1 3 4 4 5 5 4 3 3 2 2 2 1 2 2 2 2 1
-7 -7 -7 -7 -6 -4 -3 -3 -2 -3 -2 -2 -3 -4 -4 -2 -2 -2 -1 -0 -1 -0 0 0 0 -0 1 1 0 0 2 1 1 1 1 0 -0 -1 -1 -1 -1 -1 -1
-8 -8 -8 -8 -7 -7 -6 -5 -5 -5 -5 -5 -5 -5 -5 -5 -5 -5 -4 -3 -3 -2 -3 -2 -2 -2 -1 -1 -2 -2 -3 -2 -2 -2 -2 -2 -2 -3 -4 -5 -7 -9 -9
-9 -9 -9 -9 -9 -8 -8 -8 -8 -8 -8 -7 -7 -7 -7 -7 -7 -7 -6 -5 -5 -5 -4 -4 -4 -3 -4 -4 -4 -3 -4 -4 -3 -4 -4 -4 -6 -8 -9 -9 -10 -11 -12
-10 -10 -9 -9 -9 -10 -9 -9 -9 -9 -8 -8 -8 -8 -8 -8 -8 -7 -7 -7 -7 -7 -6 -5 -5 -5 -5 -6 -6 -6 -6 -7 -8 -9 -9 -10 -10 -10 -10 -12 -16 -20 -24
-11 -11 -11 -10 -10 -10 -10 -10 -10 -10 -9 -9 -9 -9 -9 -9 -8 -8 -8 -8 -8 -7 -7 -7 -7 -8 -8 -8 -8 -8 -8 -8 -8 -9 -9 -10 -12 -15 -17 -19 -21 -25 -27
-12 -12 -11 -11 -11 -11 -11 -11 -11 -11 -10 -10 -10 -10 -10 -10 -9 -10 -10 -10 -10 -10 -10 -10 -10 -10 -10 -10 -10 -10 -10 -10 -11 -12 -13 -15 -16 -17 -19 -21 -22 -23 -24
-13 -13 -13 -12 -12 -12 -12 -12 -12 -11 -11 -11 -11 -11 -11 -11 -11 -11 -11 -11 -12 -12 -13 -14 -15 -16 -15 -15 -16 -17 -18 -17 -18 -19 -21 -21 -21 -22 -23 -22 -21 -21 -21
-16 -15 -14 -13 -13 -13 -13 -13 -13 -12 -12 -12 -12 -12 -13 -12 -12 -12 -12 -13 -14 -15 -16 -17 -17 -17 -17 -17 -18 -19 -20 -21 -21 -20 -21 -21 -22 -22 -22 -21 -21 -22 -23
-17 -16 -15 -15 -14 -14 -14 -14 -14 -14 -14 -14 -14 -14 -14 -14 -14 -15 -15 -16 -17 -17 -18 -18 -18 -18 -18 -18 -18 -19 -20 -21 -21 -21 -21 -21 -22 -23 -24 -23 -23 -24 -24
-17 -16 -15 -16 -15 -15 -15 -14 -15 -15 -15 -16 -17 -17 -18 -19 -19 -20 -21 -20 -20 -20 -20 -21 -21 -20 -21 -21 -23 -24 -24 -24 -24 -24 -24 -23 -23 -23 -23 -23 -23 -25 -26
-22 -19 -16 -16 -16 -16 -15 -15 -16 -16 -16 -17 -17 -18 -19 -20 -20 -21 -22 -23 -23 -23 -22 -23 -24 -25 -26 -27 -27 -27 -27 -28 -28 -28 -27 -25 -23 -23 -24 -23 -24 -25 -25
-25 -23 -18 -16 -16 -16 -17 -16 -17 -17 -17 -17 -18 -18 -18 -19 -19 -21 -22 -24 -25 -26 -27 -27 -27 -28 -28 -29 -29 -29 -29 -29 -29 -29 -29 -29 -28 -27 -28 -27 -27 -28 -27
-23 -21 -19 -18 -18 -17 -17 -17 -18 -17 -18 -18 -18 -19 -19 -19 -19 -20 -22 -23 -25 -26 -26 -27 -27 -28 -28 -28 -28 -29 -29 -29 -29 -29 -29 -29 -29 -29 -29 -28 -28 -27 -27
-22 -21 -20 -19 -19 -19 -19 -19 -19 -19 -19 -19 -19 -19 -19 -20 -20 -20 -21 -22 -24 -26 -26 -27 -27 -27 -27 -28 -28 -28 -28 -29 -29 -29 -29 -29 -29 -29 -28 -28 -28 -28 -28